[[{"header":{"parameterUnit":"m.s-1","parameterCategory":1,"la1":30.6,"la2":28.766,"lo1":-90.7593,"lo2":-88.6598,"dy":0.0162,"dx":0.0183,"nx":116,"ny":114,"refTime":"2023-04-08T00:00:00:Z","depth":0,"parameterNumber":2,"parameterNumberName":"U-component_of_WINDS"},"data":[0.0,0.0,0.0,0.0,0.0,0.0,0.0,0.0,0.0,0.0,0.0,0.0,0.0,0.0,0.0,0.0,0.0,0.0,0.0,0.0,0.0,0.0,0.0,0.0,0.0,0.0,0.0,0.0,0.0,0.0,0.0,0.0,0.0,0.0,0.0,0.0,0.0,0.0,0.0,0.0,0.0,0.0,0.0,0.0,0.0,0.0,0.0,0.0,0.0,0.0,0.0,0.0,0.0,0.0,0.0,0.0,0.0,0.0,0.0,0.0,0.0,0.0,0.0,0.0,0.0,0.0,0.0,0.0,0.0,0.0,0.0,0.0,0.0,0.0,0.0,0.0,0.0,0.0,0.0,0.0,0.0,0.0,0.0,0.0,0.0,0.0,0.0,0.0,0.0,0.0,0.0,0.0,0.0,0.0,0.0,0.0,0.0,0.0,0.0,0.0,0.0,0.0,0.0,0.0,0.0,0.0,0.0,0.0,0.0,0.0,0.0,0.0,0.0,0.0,0.0,0.0,0.0,0.0,0.0,0.0,0.0,0.0,0.0,0.0,0.0,0.0,0.0,0.0,0.0,0.0,0.0,0.0,0.0,0.0,0.0,0.0,0.0,0.0,0.0,0.0,0.0,0.0,0.0,0.0,0.0,0.0,0.0,0.0,0.0,0.0,0.0,0.0,0.0,0.0,0.0,0.0,0.0,0.0,0.0,0.0,0.0,0.0,0.0,0.0,0.0,0.0,0.0,0.0,0.0,0.0,0.0,0.0,0.0,0.0,0.0,0.0,0.0,0.0,0.0,0.0,0.0,0.0,0.0,0.0,0.0,0.0,0.0,0.0,0.0,0.0,0.0,0.0,0.0,0.0,0.0,0.0,0.0,0.0,0.0,0.0,0.0,0.0,0.0,0.0,0.0,0.0,0.0,0.0,0.0,0.0,0.0,0.0,0.0,0.0,0.0,0.0,0.0,0.0,0.0,0.0,0.0,0.0,0.0,0.0,0.0,0.0,0.0,0.0,0.0,0.0,0.0,0.0,0.0,0.0,0.0,0.0,0.0,0.0,0.0,0.0,0.0,0.0,0.0,0.0,0.0,0.0,0.0,0.0,0.0,0.0,0.0,0.0,0.0,0.0,0.0,0.0,0.0,0.0,0.0,0.0,0.0,0.0,0.0,0.0,0.0,0.0,0.0,0.0,0.0,0.0,0.0,0.0,0.0,0.0,0.0,0.0,0.0,0.0,0.0,0.0,0.0,0.0,0.0,0.0,0.0,0.0,0.0,0.0,0.0,0.0,0.0,0.0,0.0,0.0,0.0,0.0,0.0,0.0,0.0,0.0,0.0,0.0,0.0,0.0,0.0,0.0,0.0,0.0,0.0,0.0,0.0,0.0,0.0,0.0,0.0,0.0,0.0,0.0,0.0,0.0,0.0,0.0,0.0,0.0,0.0,0.0,0.0,0.0,0.0,0.0,0.0,0.0,0.0,0.0,0.0,0.0,0.0,0.0,0.0,0.0,0.0,0.0,0.0,0.0,0.0,0.0,0.0,0.0,0.0,0.0,0.0,0.0,0.0,0.0,0.0,0.0,0.0,0.0,0.0,0.0,0.0,0.0,0.0,0.0,0.0,0.0,0.0,0.0,0.0,0.0,0.0,0.0,0.0,0.0,0.0,0.0,0.0,0.0,0.0,0.0,0.0,0.0,0.0,0.0,0.0,0.0,0.0,0.0,0.0,0.0,0.0,0.0,0.0,0.0,0.0,0.0,0.0,0.0,0.0,0.0,0.0,0.0,0.0,0.0,0.0,0.0,0.0,0.0,0.0,0.0,0.0,0.0,0.0,0.0,0.0,0.0,0.0,0.0,0.0,0.0,0.0,0.0,0.0,0.0,0.0,0.0,0.0,0.0,0.0,0.0,0.0,0.0,0.0,0.0,0.0,0.0,0.0,0.0,0.0,0.0,0.0,0.0,0.0,0.0,0.0,0.0,0.0,0.0,0.0,0.0,0.0,0.0,0.0,0.0,0.0,0.0,0.0,0.0,0.0,0.0,0.0,0.0,0.0,0.0,0.0,0.0,0.0,0.0,0.0,0.0,0.0,0.0,0.0,0.0,0.0,0.0,0.0,0.0,0.0,0.0,0.0,0.0,0.0,0.0,0.0,0.0,0.0,0.0,0.0,0.0,0.0,0.0,0.0,0.0,0.0,0.0,0.0,0.0,0.0,0.0,0.0,0.0,0.0,0.0,0.0,0.0,0.0,0.0,0.0,0.0,0.0,0.0,0.0,0.0,0.0,0.0,0.0,0.0,0.0,0.0,0.0,0.0,0.0,0.0,0.0,0.0,0.0,0.0,0.0,0.0,0.0,0.0,0.0,0.0,0.0,0.0,0.0,0.0,0.0,0.0,0.0,0.0,0.0,0.0,0.0,0.0,0.0,0.0,0.0,0.0,0.0,0.0,0.0,0.0,0.0,0.0,0.0,0.0,0.0,0.0,0.0,0.0,0.0,0.0,0.0,0.0,0.0,0.0,0.0,0.0,0.0,0.0,0.0,0.0,0.0,0.0,0.0,0.0,0.0,0.0,0.0,0.0,0.0,0.0,0.0,0.0,0.0,0.0,0.0,0.0,0.0,0.0,0.0,0.0,0.0,0.0,0.0,0.0,0.0,0.0,0.0,0.0,0.0,0.0,0.0,0.0,0.0,0.0,0.0,0.0,0.0,0.0,0.0,0.0,0.0,0.0,0.0,0.0,0.0,0.0,0.0,0.0,0.0,0.0,0.0,0.0,0.0,0.0,0.0,0.0,0.0,0.0,0.0,0.0,0.0,0.0,0.0,0.0,0.0,0.0,0.0,0.0,0.0,0.0,0.0,0.0,0.0,0.0,0.0,0.0,0.0,0.0,0.0,0.0,0.0,0.0,0.0,0.0,0.0,0.0,0.0,0.0,0.0,0.0,0.0,0.0,0.0,0.0,0.0,0.0,0.0,0.0,0.0,0.0,0.0,0.0,0.0,0.0,0.0,0.0,0.0,0.0,0.0,0.0,0.0,0.0,0.0,0.0,0.0,0.0,0.0,0.0,0.0,0.0,0.0,0.0,0.0,0.0,0.0,0.0,0.0,0.0,0.0,0.0,0.0,0.0,0.0,0.0,0.0,0.0,0.0,0.0,0.0,0.0,0.0,0.0,0.0,0.0,0.0,0.0,0.0,0.0,0.0,0.0,0.0,0.0,0.0,0.0,0.0,0.0,0.0,0.0,0.0,0.0,0.0,0.0,0.0,0.0,0.0,0.0,0.0,0.0,0.0,0.0,0.0,0.0,0.0,0.0,0.0,0.0,0.0,0.0,0.0,0.0,0.0,0.0,0.0,0.0,0.0,0.0,0.0,0.0,0.0,0.0,0.0,0.0,0.0,0.0,0.0,0.0,0.0,0.0,0.0,0.0,0.0,0.0,0.0,0.0,0.0,0.0,0.0,0.0,0.0,0.0,0.0,0.0,0.0,0.0,0.0,0.0,0.0,0.0,0.0,0.0,0.0,0.0,0.0,0.0,0.0,0.0,0.0,0.0,0.0,0.0,0.0,0.0,0.0,0.0,0.0,0.0,0.0,0.0,0.0,0.0,0.0,0.0,0.0,0.0,0.0,0.0,0.0,0.0,0.0,0.0,0.0,0.0,0.0,0.0,0.0,0.0,0.0,0.0,0.0,0.0,0.0,0.0,0.0,0.0,0.0,0.0,0.0,0.0,0.0,0.0,0.0,0.0,0.0,0.0,0.0,0.0,0.0,0.0,0.0,0.0,0.0,0.0,0.0,0.0,0.0,0.0,0.0,0.0,0.0,0.0,0.0,0.0,0.0,0.0,0.0,0.0,0.0,0.0,0.0,0.0,0.0,0.0,0.0,0.0,0.0,0.0,0.0,0.0,0.0,0.0,0.0,0.0,0.0,0.0,0.0,0.0,0.0,0.0,0.0,0.0,0.0,0.0,0.0,0.0,0.0,0.0,0.0,0.0,0.0,0.0,0.0,0.0,0.0,0.0,0.0,0.0,0.0,0.0,0.0,0.0,0.0,0.0,0.0,0.0,0.0,0.0,0.0,0.0,0.0,0.0,0.0,0.0,0.0,0.0,0.0,0.0,0.0,0.0,0.0,0.0,0.0,0.0,0.0,0.0,0.0,0.0,0.0,0.0,0.0,0.0,0.0,0.0,0.0,0.0,0.0,0.0,0.0,0.0,0.0,0.0,0.0,0.0,0.0,0.0,0.0,0.0,0.0,0.0,0.0,0.0,0.0,0.0,0.0,0.0,0.0,0.0,0.0,0.0,0.0,0.0,0.0,0.0,0.0,0.0,0.0,0.0,0.0,0.0,0.0,0.0,0.0,0.0,0.0,0.0,0.0,0.0,0.0,0.0,0.0,0.0,0.0,0.0,0.0,0.0,0.0,0.0,0.0,0.0,0.0,0.0,0.0,0.0,0.0,0.0,0.0,0.0,0.0,0.0,0.0,0.0,0.0,0.0,0.0,0.0,0.0,0.0,0.0,0.0,0.0,0.0,0.0,0.0,0.0,0.0,0.0,0.0,0.0,0.0,0.0,0.0,0.0,0.0,0.0,0.0,0.0,0.0,0.0,0.0,0.0,0.0,0.0,0.0,0.0,0.0,0.0,0.0,0.0,0.0,0.0,0.0,0.0,0.0,0.0,0.0,0.0,0.0,0.0,0.0,0.0,0.0,0.0,0.0,0.0,0.0,0.0,0.0,0.0,0.0,0.0,0.0,0.0,0.0,0.0,0.0,0.0,0.0,0.0,0.0,0.0,0.0,0.0,0.0,0.0,0.0,0.0,0.0,0.0,0.0,0.0,0.0,0.0,0.0,0.0,0.0,0.0,0.0,0.0,0.0,0.0,0.0,0.0,0.0,0.0,0.0,0.0,0.0,0.0,0.0,0.0,0.0,0.0,0.0,0.0,0.0,0.0,0.0,0.0,0.0,0.0,0.0,0.0,0.0,0.0,0.0,0.0,0.0,0.0,0.0,0.0,0.0,0.0,0.0,0.0,0.0,0.0,0.0,0.0,0.0,0.0,0.0,0.0,0.0,0.0,0.0,0.0,0.0,0.0,0.0,0.0,0.0,0.0,0.0,0.0,0.0,0.0,0.0,0.0,0.0,0.0,0.0,0.0,0.0,0.0,0.0,0.0,0.0,0.0,0.0,0.0,0.0,0.0,0.0,0.0,0.0,0.0,0.0,0.0,0.0,0.0,0.0,0.0,0.0,0.0,0.0,0.0,0.0,0.0,0.0,0.0,0.0,0.0,0.0,0.0,0.0,0.0,0.0,0.0,0.0,0.0,0.0,0.0,0.0,0.0,0.0,0.0,0.0,0.0,0.0,0.0,0.0,0.0,0.0,0.0,0.0,0.0,0.0,0.0,0.0,0.0,0.0,0.0,0.0,0.0,0.0,0.0,0.0,0.0,0.0,0.0,0.0,0.0,0.0,0.0,0.0,0.0,0.0,0.0,0.0,0.0,0.0,0.0,0.0,0.0,0.0,0.0,0.0,0.0,0.0,0.0,0.0,0.0,0.0,0.0,0.0,0.0,0.0,0.0,0.0,0.0,0.0,0.0,0.0,0.0,0.0,0.0,0.0,0.0,0.0,0.0,0.0,0.0,0.0,0.0,0.0,0.0,0.0,0.0,0.0,0.0,0.0,0.0,0.0,0.0,0.0,0.0,0.0,0.0,0.0,0.0,0.0,0.0,0.0,0.0,0.0,0.0,0.0,0.0,0.0,0.0,0.0,0.0,0.0,0.0,0.0,0.0,0.0,0.0,0.0,0.0,0.0,0.0,0.0,0.0,0.0,0.0,0.0,0.0,0.0,0.0,0.0,0.0,0.0,0.0,0.0,0.0,0.0,0.0,0.0,0.0,0.0,0.0,0.0,0.0,0.0,0.0,0.0,0.0,0.0,0.0,0.0,0.0,0.0,0.0,0.0,0.0,0.0,0.0,0.0,0.0,0.0,0.0,0.0,0.0,0.0,0.0,0.0,0.0,0.0,0.0,0.0,0.0,0.0,0.0,0.0,0.0,0.0,0.0,0.0,0.0,0.0,0.0,0.0,0.0,0.0,0.0,0.0,4.4571,0.0,0.0,0.0,0.0,0.0,0.0,0.0,0.0,0.0,0.0,0.0,0.0,0.0,0.0,0.0,0.0,0.0,0.0,0.0,0.0,0.0,0.0,0.0,0.0,0.0,0.0,0.0,0.0,0.0,0.0,0.0,0.0,0.0,0.0,0.0,0.0,0.0,0.0,0.0,3.182,3.2261,3.263,3.4039,3.4824,3.504,0.0,0.0,0.0,0.0,0.0,0.0,0.0,0.0,0.0,0.0,0.0,0.0,0.0,0.0,0.0,0.0,0.0,0.0,0.0,0.0,0.0,0.0,0.0,0.0,0.0,0.0,0.0,0.0,0.0,0.0,0.0,0.0,0.0,0.0,0.0,0.0,0.0,0.0,0.0,0.0,0.0,0.0,0.0,0.0,0.0,0.0,0.0,0.0,0.0,0.0,0.0,0.0,0.0,0.0,0.0,0.0,0.0,0.0,0.0,0.0,0.0,0.0,0.0,0.0,0.0,0.0,0.0,0.0,0.0,0.0,0.0,4.5604,0.0,0.0,0.0,0.0,0.0,0.0,0.0,0.0,0.0,0.0,0.0,0.0,0.0,0.0,0.0,0.0,0.0,0.0,0.0,0.0,0.0,0.0,0.0,0.0,2.6816,2.7369,2.7846,2.8348,0.0,0.0,0.0,0.0,0.0,0.0,0.0,0.0,0.0,0.0,3.1853,3.2901,3.4254,3.5577,3.5938,3.5519,3.5234,0.0,0.0,0.0,0.0,0.0,0.0,0.0,0.0,0.0,0.0,0.0,0.0,0.0,0.0,0.0,0.0,0.0,0.0,0.0,0.0,0.0,0.0,0.0,0.0,0.0,0.0,0.0,0.0,0.0,0.0,0.0,0.0,0.0,0.0,0.0,0.0,0.0,0.0,0.0,0.0,0.0,0.0,0.0,0.0,0.0,0.0,0.0,0.0,0.0,0.0,0.0,0.0,0.0,0.0,0.0,0.0,0.0,0.0,0.0,0.0,0.0,0.0,0.0,5.1837,5.2699,5.4432,5.3701,5.309,5.2524,4.963,4.7675,4.6392,4.7426,0.0,0.0,0.0,0.0,0.0,0.0,0.0,0.0,0.0,0.0,0.0,0.0,0.0,0.0,0.0,0.0,0.0,0.0,0.0,0.0,0.0,2.7168,2.7394,2.7946,2.8072,2.8348,0.0,0.0,0.0,0.0,0.0,0.0,0.0,3.062,3.1119,3.1167,3.3465,3.595,3.8537,3.8799,3.917,3.9499,3.6671,3.6432,3.8023,0.0,0.0,0.0,0.0,0.0,0.0,0.0,0.0,0.0,0.0,0.0,0.0,0.0,0.0,0.0,0.0,0.0,0.0,0.0,0.0,0.0,0.0,0.0,0.0,0.0,0.0,0.0,0.0,0.0,0.0,0.0,0.0,0.0,0.0,0.0,0.0,0.0,0.0,0.0,0.0,0.0,3.7614,3.8182,0.0,0.0,0.0,0.0,0.0,0.0,0.0,0.0,0.0,0.0,0.0,0.0,0.0,5.026,5.1438,5.3095,5.4126,5.4603,5.6352,5.6709,5.5715,5.5439,5.5503,5.5902,5.4643,0.0,4.8028,4.7119,0.0,0.0,0.0,0.0,0.0,0.0,0.0,0.0,0.0,0.0,0.0,0.0,0.0,0.0,0.0,0.0,0.0,0.0,0.0,0.0,0.0,2.7846,2.8298,2.8549,2.9704,3.0131,2.9453,0.0,0.0,0.0,0.0,0.0,3.0545,3.097,3.2078,3.3907,3.5992,3.7376,3.813,3.8318,3.8631,3.9039,3.8173,3.8164,3.8931,3.7789,0.0,0.0,0.0,0.0,0.0,0.0,0.0,0.0,0.0,0.0,0.0,0.0,0.0,0.0,0.0,0.0,0.0,0.0,0.0,0.0,0.0,0.0,0.0,0.0,0.0,0.0,0.0,0.0,0.0,0.0,0.0,0.0,0.0,0.0,0.0,0.0,0.0,0.0,0.0,4.0152,4.1298,3.9212,4.1607,4.3033,0.0,0.0,0.0,0.0,0.0,0.0,0.0,0.0,0.0,5.1437,5.2267,5.3668,5.5457,5.5374,5.6185,5.765,5.865,5.9222,5.944,5.8966,5.9122,5.9622,5.8864,5.6942,5.4177,5.157,4.9828,4.8728,0.0,0.0,0.0,0.0,4.9588,5.0596,0.0,0.0,0.0,0.0,0.0,0.0,0.0,0.0,0.0,0.0,0.0,0.0,2.8222,2.895,2.9654,3.0357,3.1662,3.1913,3.0708,3.1235,0.0,0.0,0.0,3.062,3.1536,3.226,3.4187,3.7353,3.8953,3.9637,3.9452,3.9436,3.9972,4.0887,4.0939,4.0771,4.0337,3.914,3.8212,3.7434,0.0,0.0,0.0,0.0,0.0,0.0,0.0,0.0,0.0,0.0,0.0,0.0,0.0,0.0,0.0,0.0,0.0,0.0,0.0,0.0,0.0,0.0,0.0,0.0,0.0,0.0,0.0,0.0,0.0,0.0,0.0,0.0,0.0,0.0,0.0,0.0,0.0,4.2241,4.3548,4.0051,4.3518,4.5187,0.0,0.0,0.0,0.0,0.0,0.0,5.0058,5.2909,5.4875,5.5841,5.6056,5.7121,5.91,5.8235,5.8818,6.0835,6.1019,6.1637,6.2839,6.2331,6.2391,6.281,6.2151,6.1194,5.9867,5.5827,5.3101,5.1291,5.0787,5.0469,5.0405,5.1209,5.1966,5.2692,0.0,0.0,0.0,0.0,0.0,0.0,0.0,0.0,0.0,0.0,0.0,2.7092,3.0783,3.0783,3.1587,3.4198,3.3571,3.2993,3.2918,3.1035,3.0547,3.1832,3.1408,3.1609,3.2522,3.5293,3.817,4.105,4.2367,4.4002,4.5688,4.5052,4.6101,4.8596,4.6101,4.4239,4.297,4.0427,3.9679,4.0038,3.8123,0.0,0.0,0.0,0.0,0.0,0.0,0.0,0.0,0.0,0.0,0.0,0.0,0.0,0.0,0.0,0.0,0.0,0.0,0.0,0.0,0.0,0.0,0.0,0.0,0.0,0.0,0.0,0.0,0.0,0.0,0.0,0.0,0.0,0.0,0.0,0.0,0.0,0.0,4.0516,4.4458,0.0,0.0,0.0,0.0,4.8491,5.104,5.2911,5.3566,5.5764,5.7367,5.8437,5.9655,6.0927,6.195,6.2984,6.3674,6.3824,6.4483,6.4755,6.4874,6.4844,6.4844,6.4844,6.4156,6.3468,6.251,5.7978,5.5999,5.5771,5.4819,5.5163,5.6213,5.5626,5.5842,5.6367,0.0,0.0,0.0,0.0,0.0,0.0,0.0,0.0,2.7067,2.7243,2.8473,3.0131,3.224,3.3897,3.5378,3.6709,3.681,3.6207,3.4751,3.382,3.3112,3.2567,3.2691,3.3799,3.5992,3.8559,4.0724,4.2568,4.3476,4.4545,4.558,4.3611,4.4125,4.6661,4.5729,4.5202,4.4996,4.2812,4.1085,3.9679,3.8512,3.7524,0.0,0.0,0.0,0.0,0.0,0.0,0.0,0.0,0.0,0.0,0.0,0.0,0.0,0.0,0.0,0.0,0.0,0.0,0.0,0.0,0.0,0.0,0.0,0.0,0.0,0.0,0.0,0.0,0.0,0.0,0.0,0.0,0.0,0.0,0.0,0.0,0.0,4.6681,4.9703,0.0,4.9505,4.9189,4.9828,5.1716,5.3726,5.5618,5.7159,5.9858,6.2208,6.3996,6.4127,6.4964,6.6552,6.5709,6.5503,6.5922,6.6161,6.652,6.6909,6.649,6.6281,6.6251,6.5592,6.4934,6.4216,6.254,6.0116,5.7274,5.6164,5.5659,5.5811,5.6385,5.7051,5.7656,0.0,0.0,0.0,0.0,0.0,0.0,0.0,0.0,2.7344,2.7544,2.9804,3.2164,3.4248,3.6584,3.8542,3.9848,3.9471,3.8442,3.6784,3.5502,3.4439,3.3645,3.4632,3.6282,3.8658,4.1054,4.2767,4.3815,4.4228,4.4936,4.5695,4.3089,4.3808,4.7219,4.6301,4.6812,4.815,4.6634,4.4077,4.0965,3.9619,3.8931,3.8601,0.0,0.0,0.0,0.0,0.0,0.0,0.0,0.0,0.0,0.0,0.0,0.0,0.0,0.0,0.0,0.0,0.0,0.0,0.0,0.0,0.0,0.0,0.0,0.0,0.0,0.0,0.0,0.0,0.0,0.0,0.0,0.0,0.0,0.0,0.0,5.0272,5.1139,5.3773,5.484,5.3219,5.3006,5.3675,5.5226,5.7438,5.942,6.1036,6.3486,6.5582,6.7372,6.6884,6.7427,6.9028,6.7698,6.7238,6.7657,6.7657,6.7897,6.8315,6.7867,6.7537,6.7298,6.664,6.5981,6.5353,6.5114,6.3079,6.0027,5.9159,5.8411,5.7962,5.88,5.9398,5.9817,0.0,0.0,0.0,0.0,0.0,0.0,0.0,2.6942,2.7519,2.8072,3.0156,3.3018,3.686,3.8843,4.0978,4.3664,4.1379,3.9521,3.8944,3.5657,3.4233,3.5228,3.7288,3.9017,4.0259,4.2822,4.4359,4.4804,4.4886,4.5573,4.6626,4.4163,4.5817,5.0755,4.8219,4.9038,5.2121,5.1434,4.8656,4.4317,4.1624,4.0905,4.1294,0.0,0.0,0.0,0.0,0.0,0.0,0.0,0.0,0.0,0.0,0.0,0.0,0.0,0.0,0.0,0.0,0.0,0.0,0.0,0.0,0.0,0.0,0.0,0.0,0.0,0.0,0.0,0.0,0.0,0.0,0.0,0.0,0.0,4.6322,5.0421,5.3324,5.3414,5.6346,5.7334,5.479,5.6855,5.865,5.9279,6.2271,6.4395,6.5114,6.637,6.7358,6.8046,6.8046,6.8375,6.9064,6.9034,6.9034,6.9064,6.9064,6.9064,6.9064,6.9064,6.8675,6.7986,6.7328,6.667,6.6011,6.5353,6.4695,6.4066,6.4006,6.3617,6.3079,6.3079,6.3079,6.2989,0.0,0.0,0.0,0.0,0.0,0.0,0.0,2.7268,2.8222,2.9202,3.2993,3.6609,3.9295,4.2534,4.497,4.6125,4.3313,4.0902,3.9546,3.6849,3.6175,3.8135,3.8243,4.0129,4.4219,4.4478,4.5017,4.5983,4.6178,4.6336,4.6652,4.4954,4.5727,4.846,4.8431,4.9175,5.0416,5.1464,5.1199,4.9673,4.5574,4.3479,4.2551,0.0,0.0,0.0,0.0,0.0,0.0,0.0,0.0,0.0,0.0,0.0,0.0,0.0,0.0,0.0,0.0,0.0,0.0,0.0,0.0,0.0,0.0,0.0,0.0,0.0,0.0,0.0,0.0,0.0,0.0,0.0,0.0,5.069,5.0601,5.3713,5.6735,5.871,6.1433,6.2839,6.2121,6.3139,6.3917,6.4096,6.5383,6.667,6.7837,6.8256,6.8944,7.0051,6.9662,6.9722,7.038,6.9931,6.9931,7.038,7.038,7.038,7.038,7.038,7.0021,6.9393,6.8734,6.8076,6.7388,6.6729,6.6071,6.5353,6.4366,6.3617,6.3079,6.3079,6.3079,6.3049,0.0,0.0,0.0,0.0,0.0,0.0,0.0,2.8187,2.9061,3.0139,3.454,3.8391,4.0626,4.3915,4.61,4.6426,4.3614,4.1115,3.9344,3.7812,3.7685,3.9262,4.0153,4.2153,4.5238,4.5727,4.624,4.7107,4.6992,4.6992,4.7198,4.5876,4.6524,4.86,4.8991,5.005,5.1896,5.2833,5.3574,5.3623,5.0631,4.8147,4.5933,4.3299,4.2731,4.309,4.1444,4.1683,4.2462,4.0337,0.0,0.0,0.0,0.0,0.0,0.0,0.0,0.0,0.0,0.0,0.0,0.0,0.0,0.0,0.0,0.0,0.0,0.0,0.0,0.0,0.0,0.0,0.0,0.0,5.2576,5.6017,5.7004,5.856,6.0475,6.2869,6.4755,6.5862,6.5862,6.67,6.7148,6.6849,6.8196,6.9273,6.9782,7.032,7.0979,7.1727,7.1398,7.1368,7.1727,7.1398,7.1248,7.1308,7.1308,7.1158,7.0889,7.0889,7.056,6.9931,6.9273,6.8615,6.7926,6.7268,6.661,0.0,0.0,0.0,0.0,0.0,6.3079,6.3079,0.0,0.0,0.0,0.0,0.0,0.0,0.0,2.9161,2.9784,3.0921,3.5162,3.8843,4.1003,4.374,4.5397,4.5397,4.2836,4.0567,3.8976,3.8616,3.8916,3.989,4.2701,4.4413,4.5057,4.6699,4.7699,4.8109,4.7506,4.7481,4.7983,4.7029,4.7809,5.007,4.9785,5.1428,5.4483,5.4759,5.5371,5.6199,5.5675,5.3533,5.0301,4.7818,4.716,4.7279,4.5334,4.4377,4.3778,4.2312,0.0,0.0,0.0,0.0,0.0,0.0,0.0,0.0,0.0,0.0,0.0,0.0,0.0,0.0,0.0,0.0,0.0,0.0,0.0,0.0,0.0,0.0,0.0,0.0,5.7184,6.0864,6.4006,6.4156,6.4515,6.6041,6.6939,6.7418,6.7418,6.8645,6.9183,6.8585,7.0679,7.1787,7.1278,0.0,0.0,0.0,0.0,7.2924,7.2924,7.2924,7.2595,7.1996,7.1996,7.1667,7.1009,7.1009,7.0679,7.0051,6.9393,6.8704,6.8016,6.7298,6.661,6.5981,6.5832,6.5024,6.3827,6.3288,6.3079,6.3079,0.0,0.0,0.0,0.0,0.0,0.0,0.0,2.8781,2.9855,3.1182,3.5193,3.8693,4.0475,4.3137,4.4794,4.4794,4.2258,4.0541,4.0305,3.8776,3.9899,4.4419,4.48,4.6178,4.8721,4.8666,4.8737,4.9264,4.8259,4.8058,4.8611,4.8385,4.8762,4.9749,5.0825,5.1758,5.2568,5.4543,5.5814,5.6607,5.725,5.5568,5.2426,5.087,4.9703,4.8686,4.7249,4.7339,4.7758,4.5364,4.5544,4.6352,4.3928,0.0,0.0,0.0,0.0,0.0,0.0,0.0,0.0,0.0,0.0,0.0,0.0,0.0,0.0,0.0,0.0,0.0,0.0,0.0,0.0,5.7378,6.1283,6.4665,6.6879,6.8465,6.8944,6.7717,6.9093,7.0141,7.0141,7.1368,7.2086,7.1966,7.2415,7.2894,7.3283,7.3073,7.3163,7.3702,7.3193,7.2924,7.2924,7.2924,7.2834,7.2714,0.0,0.0,7.1697,7.1697,7.1338,7.0679,7.0051,6.9423,6.8704,6.7478,6.661,6.5892,6.4814,6.3917,6.3228,6.3109,6.3079,6.3079,0.0,0.0,0.0,0.0,0.0,0.0,0.0,2.9318,3.006,3.1448,3.4363,3.701,3.8668,4.0576,4.1404,4.0551,3.8939,3.834,3.9285,4.025,4.2371,4.5874,4.6928,4.8366,5.0076,4.9824,4.9866,5.0444,4.9866,4.9741,5.0017,5.0017,5.0167,5.0444,5.1175,5.1998,5.2807,5.4939,5.656,5.7628,5.9037,5.862,5.6944,5.491,5.3354,5.2097,5.1109,5.075,5.0421,4.8446,4.7997,4.7878,4.5544,4.4137,4.309,0.0,0.0,0.0,0.0,0.0,0.0,0.0,0.0,0.0,0.0,0.0,0.0,0.0,0.0,4.7968,0.0,0.0,5.7915,6.1515,6.4844,6.7597,6.9213,7.056,7.0919,6.9602,7.0889,7.1906,7.1906,7.2804,7.3283,7.2954,7.3522,7.3881,7.3881,7.3881,7.4031,7.436,7.4061,7.3881,7.3881,7.3881,7.3732,7.3402,7.3402,7.2864,7.1876,7.1876,7.1517,7.0859,6.9901,6.9303,6.8884,6.7537,6.661,6.5922,6.4904,6.4515,6.4455,6.3797,6.3528,6.3498,0.0,0.0,0.0,0.0,0.0,0.0,0.0,2.9911,3.0201,3.1339,3.2962,3.47,3.6358,3.7362,3.7362,3.6006,3.5993,3.6823,3.878,4.2128,4.5045,4.7048,4.9031,5.0304,5.072,5.0745,5.0971,5.1448,5.1322,5.1348,5.1448,5.1448,5.1448,5.1448,5.1548,5.2272,5.3373,5.5132,5.6676,5.8093,5.9597,6.0546,6.0565,5.8397,5.6944,5.5867,5.5209,5.3773,5.2067,5.1109,4.9853,4.8416,4.692,4.6172,4.5424,4.318,4.2731,0.0,0.0,0.0,0.0,0.0,0.0,0.0,0.0,0.0,4.5602,4.8346,5.0039,5.2337,5.6579,5.9093,6.1672,6.5383,6.7986,6.9961,7.1128,7.1876,7.2086,7.1547,7.2445,7.3103,7.3103,7.3702,7.3881,7.3343,7.427,7.4629,7.4121,7.4599,7.4869,7.4869,7.4869,7.4869,7.4869,7.4869,7.4599,7.4091,7.4091,7.3462,7.2265,7.2146,7.1727,7.1009,6.9602,6.8914,6.8704,6.7478,6.661,6.5981,6.5562,6.5742,6.6011,6.4395,6.3827,6.3737,0.0,0.0,0.0,0.0,0.0,0.0,0.0,0.0,2.9861,3.0012,3.1065,3.239,3.4098,3.4374,3.4374,3.4198,3.6741,3.9465,4.1928,4.4098,4.6717,5.0123,5.0819,5.1355,5.19,5.1925,5.195,5.2026,5.1523,5.1523,5.2026,5.2026,5.2026,5.2026,5.2528,5.2589,5.238,5.4001,5.5046,5.5809,5.6954,5.8334,5.9651,5.9362,5.8977,5.859,5.7932,5.5329,5.2276,5.2695,5.1588,5.0092,5.0451,4.9344,4.7788,4.689,0.0,4.1654,4.1953,4.1713,0.0,4.2641,4.3,4.4197,0.0,0.0,4.9584,5.2828,5.499,5.7182,6.0016,6.3194,6.6131,6.8914,7.059,7.1816,7.2595,7.3253,7.3642,7.3582,7.3702,7.3791,7.3791,7.439,7.4749,7.4659,7.4809,7.4839,7.4779,7.4839,7.4869,7.4869,7.4869,7.4869,7.4869,7.4869,7.4839,7.4779,7.4779,7.439,7.3642,7.3073,7.2415,7.1667,6.9812,6.8645,6.8016,6.7298,6.661,6.6071,6.658,6.6819,6.658,6.4096,6.3169,6.3169,0.0,0.0,0.0,0.0,0.0,0.0,0.0,0.0,0.0,2.8773,2.9478,3.0357,3.1386,3.1512,3.1731,3.2246,3.4838,3.7672,4.0721,4.4045,4.7427,5.0921,5.1766,5.2352,5.2578,5.2578,5.2578,5.2578,5.2352,5.2352,5.2578,5.2578,5.2578,5.2603,5.2829,5.2804,5.2714,5.4337,5.5208,5.5551,5.7322,5.83,5.8615,5.8615,5.7491,5.6044,5.6776,5.5179,0.0,0.0,5.1229,5.0301,5.0571,4.9553,4.7997,4.6561,4.4676,0.0,4.297,0.0,0.0,0.0,4.6232,4.8147,5.1259,5.2636,5.4102,5.7034,5.9488,6.2061,6.5144,6.7148,6.9064,0.0,7.2116,7.2714,7.3402,7.3732,7.3612,7.2834,7.3402,7.4031,7.442,7.4719,7.4869,7.4869,7.4869,7.4869,7.4869,7.4869,7.4869,7.4869,7.4869,7.4869,7.4869,7.4869,7.4869,7.4869,7.4869,7.454,7.3881,7.3223,7.2146,7.0709,6.9512,6.8615,6.7926,6.7268,6.6819,6.658,6.646,6.643,6.6281,6.5203,6.4545,6.4156,0.0,0.0,0.0,0.0,0.0,0.0,0.0,0.0,0.0,0.0,2.7996,2.8598,2.9605,2.9757,3.0216,3.1119,3.3487,3.6232,3.927,4.3765,4.7732,5.0896,5.2101,5.2779,5.2929,5.2929,5.2929,5.2929,5.2929,5.2929,5.2929,5.2929,5.2929,5.2929,5.308,5.313,5.3155,5.4576,5.5143,5.5304,5.685,5.7369,5.7159,5.6631,5.4864,5.2995,5.4282,5.304,0.0,0.0,4.8985,4.8626,4.8805,4.8476,4.7728,4.6292,4.5125,4.4227,4.3778,0.0,0.0,4.7698,5.0182,5.2755,5.5089,5.7034,5.9129,6.1972,6.4066,6.6281,6.9243,7.035,7.1308,7.2924,7.3343,7.3612,7.4091,7.3851,7.3193,7.2026,7.2415,7.3043,7.3702,7.427,7.4689,7.4869,7.4869,7.4869,7.4869,7.4869,7.4869,7.4869,7.4869,7.4869,7.4869,7.4869,7.4869,7.4869,7.4869,7.4629,7.4151,7.3283,7.1936,7.0201,6.9542,6.8974,6.8465,6.7597,6.7268,6.7208,6.655,6.6281,6.6281,6.6281,6.5742,6.4934,0.0,0.0,0.0,0.0,0.0,0.0,0.0,0.0,0.0,0.0,0.0,0.0,0.0,2.9702,3.0216,3.1119,3.3845,3.6483,3.8743,4.3539,4.7556,5.0318,5.1523,5.2377,5.2929,5.2929,5.2929,5.2929,5.2929,5.2929,5.2929,5.2929,5.2929,5.2955,5.3457,5.3683,5.3708,5.4401,5.4653,5.4603,5.4049,5.4517,5.5313,5.3065,5.1548,5.0533,5.0834,4.8229,0.0,0.0,4.4526,4.4616,4.5244,4.6322,0.0,4.7249,4.5843,0.0,0.0,0.0,4.8147,5.2007,5.494,5.7752,6.1074,6.2839,6.4695,6.8046,6.8794,6.9453,7.1427,7.2355,7.3043,7.3762,7.439,7.4839,7.4839,7.3762,7.2684,7.1966,7.0799,7.029,0.0,7.2774,7.418,7.4839,7.4869,7.4869,7.4869,7.4869,7.4869,7.4869,7.4869,7.4869,7.4869,7.4869,7.4869,7.4869,7.4869,7.4869,7.4809,7.3492,7.2176,7.0829,7.0231,6.9931,6.9812,6.8495,6.7956,6.7867,6.7208,6.6969,6.6969,6.6969,6.6131,6.4934,0.0,0.0,0.0,0.0,0.0,0.0,0.0,0.0,0.0,0.0,0.0,0.0,0.0,0.0,0.0,0.0,3.2872,3.46,3.7563,4.1404,4.497,4.8109,5.0368,5.1649,5.1825,5.2553,5.2929,5.2929,5.2929,5.2929,5.2929,5.2929,5.2929,5.2929,5.3105,5.3381,5.3708,5.3909,5.4436,5.4988,5.3708,5.367,5.404,5.1432,4.8318,4.5437,0.0,4.3589,0.0,0.0,0.0,0.0,4.2491,0.0,0.0,4.2731,0.0,0.0,0.0,0.0,5.3384,5.6885,6.0086,6.2989,6.5443,6.7328,6.8794,6.9512,6.9662,6.9842,7.05,7.0081,7.026,7.2235,7.2744,7.3373,7.4689,7.448,7.3163,7.032,7.0709,0.0,0.0,0.0,0.0,7.4121,7.4629,7.4869,7.4869,7.5318,7.5347,7.4899,7.4869,7.4869,7.4869,7.4869,7.4869,7.4869,7.4869,7.442,7.3552,7.3103,7.2176,7.0859,7.026,6.9991,6.9901,6.9004,6.8375,6.7956,6.7717,6.7358,6.6999,6.6999,6.67,6.6161,0.0,0.0,0.0,0.0,0.0,0.0,0.0,0.0,0.0,0.0,0.0,0.0,0.0,0.0,0.0,0.0,0.0,3.3294,3.583,3.8743,4.1856,4.5196,4.6677,4.7807,4.8586,4.8736,4.9163,4.9967,4.9967,5.0469,5.1448,5.1448,5.1649,5.2051,5.2251,5.2754,5.3432,5.3432,5.3607,5.3758,5.1875,5.0745,4.9841,4.6878,4.3588,0.0,3.9666,3.8978,0.0,0.0,0.0,0.0,0.0,0.0,0.0,0.0,0.0,0.0,0.0,5.4311,5.8201,6.1972,6.5024,6.7508,6.9034,7.035,7.1009,7.0141,6.9213,6.8555,6.8555,6.6909,6.67,7.026,7.044,7.1158,7.4121,7.3911,7.2535,6.9991,7.038,7.029,0.0,0.0,0.0,7.3732,7.43,7.4629,7.4869,7.5288,7.5347,7.4899,7.4869,7.4869,7.4869,7.4869,7.4869,7.4869,7.4869,7.418,7.2924,7.2924,7.2176,7.0889,7.05,7.032,7.026,6.9602,6.9093,6.8675,6.8435,6.7926,6.7358,6.7358,6.7029,6.649,0.0,0.0,0.0,0.0,0.0,0.0,0.0,0.0,0.0,0.0,0.0,0.0,0.0,0.0,0.0,0.0,0.0,0.0,3.3696,3.5805,3.8467,4.1681,4.0953,4.1455,4.3539,4.2108,4.2384,4.4493,4.4493,4.5874,4.8485,4.8485,4.9038,5.0092,5.0645,5.1523,5.2553,5.2528,5.1925,5.0795,4.8485,4.6024,4.3363,4.0074,3.7756,3.6008,3.5438,0.0,0.0,0.0,0.0,0.0,0.0,0.0,0.0,0.0,0.0,5.075,5.5927,5.9428,6.263,6.7029,6.9602,7.1188,7.1757,7.1846,7.1427,7.0021,6.7597,6.5712,0.0,0.0,6.272,6.7897,6.7837,6.8764,7.3343,7.2355,7.1128,0.0,0.0,0.0,0.0,0.0,0.0,7.3791,0.0,7.424,7.4899,7.4958,7.4958,7.4929,7.4899,7.4869,7.4869,7.4869,7.4869,7.4869,7.4869,7.421,7.2954,7.2954,7.2235,7.0949,7.0949,7.0949,7.0859,7.026,6.9991,6.9871,6.9243,6.8555,6.7926,6.7926,6.7119,6.5922,0.0,0.0,0.0,0.0,0.0,0.0,0.0,0.0,0.0,0.0,0.0,0.0,0.0,0.0,0.0,0.0,0.0,0.0,3.1964,3.3721,3.5479,3.7161,3.8944,4.0174,4.0727,4.1128,4.1806,4.2785,4.2785,4.3363,4.4468,4.4468,4.4819,4.5497,4.5648,4.6326,4.7355,4.6928,4.6828,4.6728,4.4091,4.2836,4.2258,3.9346,3.7304,3.6113,3.6252,0.0,0.0,0.0,0.0,0.0,0.0,0.0,4.3718,0.0,0.0,5.5359,5.9638,6.4186,6.8076,6.9752,7.1667,7.2924,7.2086,7.1517,7.038,6.7567,6.4545,6.1762,0.0,0.0,0.0,6.4665,6.7478,0.0,7.4809,7.4958,0.0,7.2565,0.0,7.1787,7.1427,7.1398,0.0,0.0,7.4929,7.4929,7.5617,7.6066,7.6125,7.5647,7.5138,7.4869,7.4869,7.4869,7.4869,7.4869,7.4869,7.445,7.3642,7.3642,7.2894,7.1637,7.1637,7.1368,7.0889,7.0739,7.0111,6.9243,6.9064,6.8286,6.7238,6.7238,6.6729,6.5922,0.0,0.0,0.0,0.0,0.0,0.0,0.0,0.0,0.0,0.0,0.0,0.0,0.0,0.0,0.0,0.0,0.0,0.0,0.0,3.1562,3.2692,3.4022,3.4901,3.568,3.6408,3.6332,3.6885,3.8165,3.8165,3.8944,4.0425,4.0425,4.0877,4.163,4.163,4.2258,4.3263,4.271,4.2359,0.0,0.0,3.8391,3.7563,3.5529,3.4641,3.4607,3.478,0.0,0.0,0.0,0.0,4.1713,4.2611,4.5095,4.8446,5.2426,0.0,6.0146,6.4395,6.8555,7.1816,7.2475,7.3732,7.4121,7.1607,7.0081,6.7837,6.3079,5.9967,0.0,5.4581,5.5418,0.0,0.0,0.0,0.0,7.4779,7.5467,7.5048,0.0,7.4061,0.0,7.3253,7.3462,7.439,0.0,7.5407,7.5288,7.6275,7.6365,7.6275,7.5916,7.5228,7.4869,7.4869,7.4869,7.4869,7.4869,7.4869,7.454,7.3881,7.3881,7.3163,7.1876,0.0,7.1517,7.0889,7.0889,7.032,6.9423,6.9423,6.8615,6.7418,6.7418,6.6999,6.634,0.0,0.0,0.0,0.0,0.0,0.0,0.0,0.0,0.0,0.0,3.0764,0.0,0.0,0.0,0.0,0.0,0.0,0.0,0.0,0.0,3.0407,3.1838,3.0532,3.0457,3.1863,3.0507,3.0758,3.2742,3.2742,3.3997,3.6408,3.6408,3.6985,3.799,3.799,3.8567,3.9496,3.8944,3.809,3.701,3.5504,3.3758,3.1928,0.0,0.0,0.0,0.0,0.0,0.0,0.0,4.3958,4.5484,4.7668,5.105,5.4999,5.889,6.1972,6.5054,6.9333,7.2355,7.442,7.4899,7.5258,7.445,7.038,6.7687,6.4216,5.7663,0.0,5.2665,5.0182,5.1618,5.491,6.0236,0.0,6.8405,7.421,7.5078,7.5138,7.5138,7.5677,7.5826,7.5318,7.5736,7.6335,7.7023,7.5946,7.5766,7.6904,7.6455,7.6066,7.5916,7.5228,7.4869,7.4869,7.4869,7.4869,7.4869,7.4869,7.4569,7.4031,7.3941,7.3223,7.2026,7.1936,7.1517,7.0889,7.0799,7.041,6.9842,6.9752,6.8944,6.7837,6.7837,6.7418,6.6759,0.0,0.0,0.0,0.0,0.0,0.0,0.0,0.0,0.0,0.0,3.1613,3.1782,0.0,0.0,0.0,0.0,0.0,0.0,0.0,0.0,0.0,3.0206,2.9955,2.993,3.0206,2.993,3.0206,3.1035,3.1035,3.1512,3.239,3.239,3.2742,3.337,3.337,3.3746,3.4324,3.3746,3.3144,3.2466,3.1763,3.1388,3.1389,0.0,0.0,0.0,0.0,0.0,0.0,0.0,4.7668,4.9763,5.2845,5.6555,6.0416,6.3827,6.7059,7.0081,7.2535,7.4749,7.6215,7.5826,7.4569,7.2265,6.7717,6.3887,0.0,0.0,5.069,4.8835,4.7279,5.0391,5.491,6.0236,6.5263,0.0,0.0,0.0,7.6485,0.0,0.0,0.0,0.0,0.0,0.0,0.0,0.0,7.7382,7.7622,7.7532,7.6993,7.5946,7.5228,7.4869,7.4869,7.4869,7.4869,7.4869,7.4869,7.4809,7.4689,7.4151,7.3462,7.2714,7.2146,0.0,7.0859,7.035,6.9752,6.9123,6.8555,6.7837,6.7148,6.7148,6.6759,6.6071,0.0,0.0,0.0,0.0,0.0,0.0,0.0,2.9287,3.0334,3.2736,3.232,3.1786,3.1612,3.1809,3.1536,0.0,0.0,0.0,0.0,0.0,0.0,0.0,0.0,0.0,2.9804,2.9804,0.0,0.0,0.0,0.0,0.0,0.0,0.0,0.0,0.0,3.111,3.1361,3.106,3.1077,3.1242,3.0984,0.0,0.0,0.0,0.0,0.0,0.0,0.0,0.0,0.0,4.8656,5.2995,5.7004,6.0745,6.4246,6.7208,6.9901,7.2385,7.439,7.6125,7.7203,7.6544,7.436,7.0889,6.5263,0.0,0.0,0.0,4.689,4.5933,4.4945,4.8805,0.0,5.7393,6.1583,6.646,0.0,0.0,0.0,0.0,0.0,0.0,0.0,0.0,0.0,0.0,0.0,7.831,7.831,7.7682,7.6724,7.5407,7.5048,7.4869,7.4869,7.4869,7.4869,7.4869,7.4869,7.4869,7.4869,7.454,7.3851,7.2894,7.2565,0.0,7.0859,7.0231,6.9602,6.8944,6.8256,6.7567,6.6999,6.6999,6.6789,6.643,0.0,0.0,0.0,0.0,0.0,0.0,0.0,3.0894,3.1988,3.4921,3.3917,3.2653,3.2124,3.2187,3.2064,0.0,0.0,0.0,0.0,0.0,0.0,0.0,0.0,0.0,0.0,0.0,0.0,0.0,0.0,0.0,0.0,0.0,0.0,0.0,0.0,0.0,0.0,3.0011,3.057,0.0,0.0,0.0,0.0,0.0,0.0,0.0,0.0,0.0,0.0,0.0,4.8416,5.3593,5.8501,6.2989,6.6849,6.8944,7.1457,7.3941,7.5647,7.7023,7.7831,7.7023,7.4031,6.9572,6.3139,5.7363,0.0,0.0,4.3898,4.3778,4.3389,0.0,5.1439,0.0,5.7962,6.251,6.9512,0.0,0.0,0.0,0.0,0.0,0.0,0.0,0.0,0.0,0.0,7.8579,7.8579,7.7352,7.6155,7.5138,7.4958,7.4869,7.4869,7.4869,7.4869,7.4869,7.4869,7.4869,7.4869,7.4569,7.3881,7.2894,7.2624,0.0,7.0829,7.0081,6.9482,6.8914,6.8076,6.7448,6.6999,6.6999,6.6999,6.6879,0.0,0.0,0.0,0.0,0.0,0.0,0.0,3.2318,3.3694,3.7524,3.7357,3.6043,3.3812,3.2272,3.1395,0.0,0.0,0.0,0.0,0.0,0.0,0.0,0.0,0.0,0.0,0.0,0.0,0.0,0.0,0.0,0.0,0.0,0.0,0.0,0.0,0.0,0.0,0.0,0.0,0.0,0.0,0.0,0.0,0.0,0.0,0.0,0.0,0.0,0.0,0.0,0.0,4.8955,5.479,6.1762,6.7837,6.8076,0.0,0.0,7.6544,7.7711,7.84,7.7143,7.3013,6.7687,6.1642,0.0,0.0,4.3658,4.2551,4.2701,4.324,4.5693,0.0,0.0,0.0,6.2211,6.8315,7.1727,0.0,0.0,0.0,0.0,0.0,0.0,0.0,0.0,0.0,7.7891,7.7891,7.6694,7.5946,7.5826,7.5198,7.4869,7.4869,7.4869,7.4869,7.4869,7.4869,7.4869,7.4839,7.3642,7.3043,7.2834,7.1607,0.0,0.0,6.9602,6.9064,6.8884,6.7597,6.7029,6.6999,6.6999,6.6999,6.6879,0.0,0.0,0.0,0.0,0.0,0.0,3.1901,3.2168,3.3484,3.7823,3.6428,3.511,3.5398,3.2908,3.1162,3.1103,0.0,0.0,0.0,0.0,0.0,0.0,0.0,0.0,0.0,0.0,0.0,0.0,0.0,0.0,0.0,0.0,0.0,0.0,0.0,0.0,0.0,0.0,0.0,0.0,0.0,0.0,0.0,0.0,0.0,0.0,0.0,0.0,0.0,0.0,0.0,0.0,4.7967,5.3623,0.0,0.0,6.9093,7.2894,7.5557,7.7502,7.846,7.7143,7.1966,6.5832,6.0685,0.0,4.683,4.312,4.2043,4.2102,4.315,4.4526,4.686,5.096,5.2067,0.0,6.1493,6.4246,6.7508,0.0,0.0,0.0,0.0,0.0,0.0,0.0,7.7801,7.7233,7.7233,7.6395,7.5707,7.5288,7.5018,7.4869,7.4869,7.4869,7.4869,7.4869,7.4869,7.4869,7.4839,7.3911,7.3283,7.2864,7.1906,0.0,0.0,6.9542,6.9004,6.8884,6.7508,6.6999,6.6999,6.6999,6.6999,6.6939,0.0,0.0,0.0,0.0,0.0,2.8135,3.1959,3.2287,3.3511,3.7475,3.5769,3.4453,3.516,3.2791,3.0885,3.0201,3.1443,0.0,0.0,0.0,0.0,0.0,0.0,0.0,0.0,0.0,0.0,0.0,0.0,0.0,0.0,0.0,0.0,0.0,0.0,0.0,0.0,0.0,0.0,0.0,0.0,0.0,0.0,0.0,0.0,0.0,0.0,0.0,0.0,0.0,0.0,0.0,0.0,0.0,0.0,0.0,6.5832,7.0141,7.3762,7.6425,7.7891,7.6574,7.0949,6.4515,0.0,0.0,4.5574,4.291,4.1833,4.1713,4.2851,4.3748,4.5214,4.7938,4.8446,5.078,5.7483,5.9877,6.3288,0.0,0.0,0.0,0.0,0.0,0.0,7.8789,7.7562,7.6814,7.6814,7.6036,7.5377,7.4899,7.4869,7.4869,7.4869,7.4869,7.4869,7.4869,7.4869,7.4779,7.4569,7.3911,7.3253,7.2565,7.1906,0.0,0.0,6.9722,6.9183,6.8884,6.7717,6.7148,6.6999,6.6999,6.6999,6.6999,0.0,0.0,0.0,0.0,0.0,0.0,3.2018,3.3066,3.4332,3.6707,3.649,3.518,3.2622,3.1553,3.0349,2.8675,3.0769,0.0,0.0,0.0,0.0,0.0,0.0,0.0,0.0,0.0,3.2593,3.2593,3.2593,0.0,0.0,0.0,0.0,0.0,0.0,0.0,0.0,0.0,0.0,0.0,0.0,0.0,3.5519,0.0,0.0,0.0,0.0,0.0,0.0,0.0,0.0,0.0,0.0,0.0,0.0,0.0,6.2301,6.8585,7.1248,7.436,7.6544,7.5228,6.9931,6.3827,0.0,0.0,4.5574,4.291,4.1833,4.1594,4.2252,4.3449,4.4766,4.6142,4.9075,5.3025,5.8351,6.1373,6.4545,0.0,0.0,0.0,0.0,0.0,7.8789,7.8789,7.7562,0.0,7.6814,7.5587,7.4899,7.4869,7.4869,7.4869,7.4869,7.4869,7.4869,7.4869,7.4869,7.454,7.3881,7.3223,7.2535,7.1846,0.0,0.0,0.0,7.0231,6.9602,6.8944,6.8226,6.7567,6.6999,6.6999,6.6999,6.6999,0.0,0.0,0.0,0.0,0.0,0.0,0.0,3.1719,3.3063,3.5629,3.4758,3.3865,3.3649,3.1377,3.0011,3.0303,3.0115,0.0,0.0,0.0,0.0,0.0,0.0,0.0,0.0,0.0,3.4274,3.3533,3.4274,3.4041,3.3087,3.3463,0.0,0.0,0.0,0.0,0.0,0.0,0.0,0.0,0.0,3.5519,3.5549,0.0,0.0,0.0,0.0,0.0,0.0,0.0,0.0,0.0,0.0,0.0,0.0,4.8327,5.5209,0.0,6.3947,6.6939,6.8914,6.67,6.254,5.7992,5.4251,0.0,4.4466,4.2731,4.1833,4.1713,4.2821,4.3359,4.4825,4.8416,4.9883,5.2217,0.0,0.0,0.0,6.8585,7.3552,7.7023,0.0,0.0,7.8789,7.8789,7.7562,7.6814,7.6814,7.5587,7.4869,7.4869,7.4869,7.4869,7.4869,7.4869,7.4869,7.4869,7.442,7.4091,7.3851,7.2714,7.2086,0.0,0.0,0.0,7.0231,6.9572,6.8914,6.8226,6.7567,6.7178,6.6999,6.6999,6.6999,6.6999,0.0,0.0,0.0,0.0,0.0,0.0,0.0,3.027,3.1219,3.2786,3.2262,3.1875,3.1917,3.0035,2.912,3.0118,2.9462,0.0,0.0,0.0,0.0,0.0,0.0,0.0,0.0,3.4812,3.5198,3.5312,3.5911,3.5828,3.5107,3.5456,3.4917,3.3522,0.0,0.0,0.0,0.0,0.0,0.0,3.5519,3.5519,3.5549,0.0,0.0,0.0,0.0,0.0,0.0,0.0,0.0,0.0,0.0,0.0,0.0,0.0,4.8656,5.4162,0.0,6.1642,6.3707,6.1822,5.8351,0.0,0.0,0.0,4.3658,4.2581,4.1833,4.1773,4.309,4.3539,4.4736,4.7878,0.0,0.0,0.0,0.0,0.0,6.8794,0.0,0.0,0.0,7.846,7.8789,7.8789,7.7562,7.6814,7.6814,7.5587,7.4869,7.4869,7.4869,7.4869,7.4869,7.4869,7.4749,7.451,7.4091,7.3642,7.3103,7.2265,7.1757,0.0,0.0,7.056,0.0,6.9542,6.8824,6.7926,6.7508,6.7208,6.6999,6.6999,6.6999,6.6999,0.0,0.0,0.0,0.0,0.0,0.0,0.0,2.9019,2.9197,2.8816,2.9398,2.9414,2.8206,2.7867,2.7961,2.8584,2.892,0.0,0.0,0.0,0.0,0.0,0.0,0.0,3.4442,3.4532,3.5459,3.7345,3.7375,3.7316,3.7113,3.8068,3.7286,3.5189,3.617,0.0,0.0,0.0,0.0,0.0,3.5519,3.5519,0.0,0.0,0.0,0.0,0.0,0.0,0.0,0.0,0.0,0.0,0.0,0.0,0.0,0.0,0.0,0.0,0.0,5.7573,5.9877,0.0,0.0,0.0,0.0,0.0,0.0,4.2432,4.1803,4.1803,4.321,4.3898,4.4556,0.0,0.0,0.0,0.0,5.856,0.0,0.0,0.0,0.0,7.5168,7.7352,7.8759,7.8729,7.7532,7.6814,7.6754,7.5557,7.4869,7.4869,7.4869,7.4869,7.4869,7.4839,7.451,7.3881,7.3791,7.3103,7.1876,7.1787,7.1427,0.0,0.0,7.041,6.9842,6.9842,6.9064,6.7897,6.7897,6.7537,6.6999,6.6999,6.6999,6.6999,0.0,0.0,0.0,0.0,0.0,0.0,0.0,0.0,0.0,0.0,2.8683,2.8641,2.823,2.8102,2.856,0.0,0.0,0.0,0.0,0.0,0.0,0.0,0.0,0.0,3.4472,3.4981,3.5729,3.6716,3.7165,3.7595,3.8109,3.8859,3.8311,3.6891,3.7097,3.6567,0.0,0.0,0.0,0.0,3.5519,3.5519,0.0,0.0,0.0,0.0,3.7404,3.8272,0.0,0.0,0.0,0.0,0.0,0.0,0.0,0.0,4.1414,4.2791,4.5005,0.0,4.9404,4.7698,4.6561,4.5454,0.0,0.0,0.0,0.0,0.0,4.2073,4.4407,4.4137,4.4945,0.0,0.0,0.0,5.6795,0.0,0.0,0.0,0.0,0.0,7.7921,7.843,7.8579,7.8071,7.7293,7.6634,7.6155,7.5318,7.4869,7.4869,7.4869,7.4869,7.4869,7.436,7.4061,7.3881,7.2864,7.2176,7.1846,7.0859,7.035,0.0,6.9662,6.9064,6.8435,6.8435,6.7956,6.7238,6.7238,6.7119,6.6999,6.6999,6.6999,6.6999,0.0,0.0,0.0,0.0,0.0,0.0,0.0,0.0,0.0,0.0,2.8054,2.8212,2.8124,2.8401,2.9016,0.0,0.0,0.0,0.0,0.0,0.0,0.0,0.0,3.3036,3.3993,3.4382,3.5489,3.7345,3.7704,3.8512,3.9768,3.9828,3.914,3.7823,3.6926,3.6148,0.0,0.0,0.0,3.5519,3.5519,0.0,0.0,0.0,0.0,0.0,3.7764,3.8542,0.0,4.0127,4.0307,4.0307,0.0,0.0,0.0,0.0,4.0217,4.0546,4.0905,4.3389,4.5603,4.4496,4.4018,4.3539,0.0,0.0,0.0,0.0,0.0,0.0,4.4377,0.0,0.0,0.0,5.0361,0.0,0.0,0.0,0.0,0.0,7.8519,7.9088,0.0,7.834,7.8071,7.7412,7.6784,7.6245,7.5916,7.5258,7.4869,7.4869,7.4869,7.4719,7.442,7.4061,7.3582,7.2954,7.2235,7.1577,7.0979,7.029,6.9812,0.0,6.9153,6.8435,6.7537,6.7837,6.7418,6.658,6.6879,6.6999,6.6999,6.6999,6.6999,6.6999,0.0,0.0,0.0,0.0,0.0,0.0,0.0,0.0,0.0,0.0,0.0,0.0,0.0,0.0,0.0,0.0,0.0,0.0,0.0,0.0,0.0,0.0,0.0,3.2347,3.3484,3.3694,3.522,3.8093,3.8512,3.9619,4.1384,4.1115,4.0127,3.8452,3.6626,3.5699,0.0,0.0,0.0,3.5519,3.5519,0.0,0.0,0.0,0.0,0.0,0.0,0.0,0.0,4.0696,4.1145,4.1205,4.1115,0.0,0.0,0.0,0.0,0.0,3.9918,4.2611,4.5155,4.4556,4.4137,4.3688,4.294,0.0,0.0,0.0,0.0,0.0,0.0,0.0,0.0,0.0,0.0,0.0,6.4485,6.8914,0.0,7.6365,7.7981,0.0,7.7741,7.7741,7.7502,7.6754,7.6215,7.5856,7.5766,7.5198,7.4839,7.4719,7.4719,7.43,7.3462,7.3642,7.3073,7.1727,7.1727,7.1068,6.9842,6.9842,6.9482,6.8824,0.0,0.0,6.6879,6.7328,6.6939,6.6071,6.664,6.6909,6.6999,6.6999,6.6999,6.6999,0.0,0.0,0.0,0.0,0.0,0.0,0.0,0.0,0.0,0.0,0.0,0.0,0.0,0.0,0.0,0.0,0.0,0.0,0.0,0.0,0.0,3.1482,3.2587,3.3275,3.3484,3.4622,3.5729,3.6776,3.899,4.0546,4.1414,4.297,4.2132,3.92,3.7764,3.6507,3.5519,0.0,0.0,3.5519,3.5519,0.0,0.0,0.0,0.0,0.0,0.0,0.0,0.0,3.9649,4.0098,4.0457,3.9888,0.0,0.0,0.0,0.0,0.0,4.2132,4.3988,4.4496,4.1145,4.1085,4.1504,0.0,0.0,0.0,0.0,0.0,0.0,0.0,0.0,0.0,0.0,0.0,0.0,0.0,0.0,0.0,7.6485,0.0,7.831,7.7083,7.7472,7.7322,7.6125,7.5946,7.5647,7.5078,7.4929,7.4629,7.4061,7.4031,7.3193,7.1368,7.2505,7.2385,7.1038,7.1038,7.038,6.9153,6.9153,6.8764,6.8076,0.0,6.634,6.6131,6.5652,6.5682,6.6011,6.6131,6.649,6.6999,6.6999,6.6999,6.6999,0.0,0.0,0.0,0.0,0.0,0.0,0.0,0.0,0.0,0.0,0.0,0.0,0.0,0.0,0.0,0.0,0.0,0.0,0.0,0.0,3.1631,3.2048,3.2976,3.3484,3.3484,3.516,3.6866,3.8601,4.1235,4.2851,4.3479,4.2611,4.0995,3.8781,3.7135,3.6058,3.5519,3.5519,3.5519,3.5549,0.0,0.0,0.0,0.0,0.0,0.0,0.0,0.0,0.0,0.0,4.0636,4.1294,4.0277,0.0,0.0,0.0,0.0,0.0,4.0905,4.2432,4.3269,4.1474,4.2821,4.4137,0.0,0.0,0.0,0.0,0.0,0.0,0.0,0.0,0.0,0.0,0.0,0.0,0.0,0.0,0.0,0.0,0.0,7.7891,7.6933,7.7113,7.6754,7.5437,7.5347,7.5198,7.4899,7.454,7.421,7.3911,7.3552,7.2744,7.1457,7.1697,7.1158,6.9871,6.9871,6.9363,6.8435,6.8076,6.7537,6.6849,0.0,6.5263,6.4964,6.5383,6.5533,6.5562,6.6251,6.6729,6.6939,6.658,6.67,6.6939,0.0,0.0,0.0,0.0,0.0,0.0,0.0,0.0,0.0,0.0,0.0,0.0,0.0,0.0,0.0,0.0,0.0,0.0,0.0,0.0,3.1988,3.2497,3.3455,3.4053,3.4203,3.6148,3.8392,4.0846,4.3658,4.5185,4.5484,4.2491,4.0127,3.8332,3.6686,3.5789,3.5519,3.5519,3.5519,3.5549,0.0,0.0,0.0,0.0,0.0,0.0,0.0,0.0,0.0,0.0,0.0,0.0,0.0,0.0,0.0,4.0337,3.9768,3.9798,4.0397,4.1654,4.2851,4.3,0.0,0.0,0.0,0.0,0.0,0.0,0.0,0.0,0.0,5.2007,0.0,0.0,0.0,0.0,0.0,0.0,0.0,0.0,7.7382,7.7322,7.6664,7.6604,7.6125,7.4958,7.4869,7.4809,7.4659,7.418,7.3762,7.3432,7.2924,7.2206,7.1218,7.0709,6.9961,6.9004,6.9004,6.8555,6.7717,6.7208,6.664,6.5951,6.5144,6.4575,6.4306,6.5173,6.5413,6.5353,6.637,6.6849,6.6909,6.6251,6.643,6.6879,0.0,0.0,0.0,0.0,0.0,0.0,0.0,0.0,0.0,0.0,0.0,0.0,0.0,0.0,0.0,0.0,0.0,0.0,0.0,0.0,3.2467,3.2527,3.4352,3.5639,3.6267,3.8182,4.0187,4.2299,4.5484,4.68,4.6202,4.4137,4.1474,3.8362,3.7614,3.6626,3.5519,3.5519,3.5519,3.5519,3.5549,0.0,0.0,0.0,0.0,0.0,0.0,0.0,0.0,0.0,0.0,0.0,0.0,0.0,4.1414,4.1294,4.0816,4.0876,4.3299,4.4077,4.4317,4.4945,4.4347,0.0,0.0,0.0,0.0,0.0,0.0,0.0,0.0,5.7004,6.1972,6.6759,7.038,7.3253,7.5258,0.0,7.6904,7.7652,7.7233,7.6664,7.6036,7.5976,7.5677,7.4929,7.4869,7.4599,7.4001,7.3911,7.3313,7.2056,7.1996,7.1068,6.9243,6.9153,6.9093,6.9004,6.9004,6.8315,6.7059,6.6999,6.664,6.5951,6.4635,6.4425,6.4904,6.4366,6.4844,6.5951,6.6041,6.646,6.6909,6.6251,6.643,6.6819,0.0,0.0,0.0,0.0,0.0,0.0,0.0,0.0,0.0,0.0,0.0,0.0,0.0,0.0,0.0,0.0,0.0,0.0,0.0,3.2138,3.2706,3.3095,3.504,3.6417,3.7045,4.0606,4.3629,4.6052,4.7309,4.716,4.5603,4.2432,3.9798,3.7734,3.6686,3.5968,3.5519,3.5519,3.5519,3.5549,3.5938,3.6626,0.0,0.0,0.0,0.0,0.0,0.0,0.0,0.0,4.0337,4.0905,4.0337,4.0995,4.1833,4.0995,4.0606,4.0606,4.1624,4.306,4.4377,4.4616,0.0,0.0,0.0,0.0,0.0,0.0,0.0,0.0,0.0,0.0,6.5263,6.8645,7.1966,7.454,7.5736,7.6425,7.6933,7.7173,7.6963,7.6574,7.5976,7.5916,7.5437,7.436,7.427,7.3971,7.3313,7.2864,7.2415,7.1906,7.1098,7.035,6.9602,6.8764,6.8166,6.7747,6.7328,6.6879,6.634,6.5503,6.4994,6.4725,6.3797,6.3797,6.4395,6.4575,6.5173,6.6011,6.6011,6.5922,6.5682,6.5024,6.5203,6.5622,0.0,0.0,0.0,0.0,0.0,0.0,0.0,0.0,0.0,0.0,0.0,0.0,0.0,0.0,0.0,0.0,0.0,0.0,3.1482,3.2347,3.3036,3.3484,3.5609,3.7375,3.8631,4.2791,4.5933,4.7967,4.8386,4.7369,4.4915,4.1175,3.8811,3.7674,3.6387,3.5938,3.6088,3.5908,3.5699,3.5549,3.5998,3.6656,0.0,0.0,0.0,0.0,0.0,0.0,0.0,0.0,4.0187,4.0726,4.0427,4.1145,4.1923,4.1235,4.0876,4.0666,4.0457,4.1863,4.3479,0.0,0.0,0.0,0.0,0.0,0.0,0.0,0.0,0.0,0.0,0.0,0.0,0.0,7.2774,7.5377,7.5826,7.6275,7.6544,7.6544,7.6335,7.6036,7.5617,7.5587,7.5108,7.3971,7.3881,7.3522,7.2624,7.1936,7.1487,7.1278,7.0231,6.9572,6.9363,6.8226,6.7328,6.667,6.5802,6.5473,6.5652,6.4515,6.4006,6.3977,6.3558,6.3737,6.4366,6.4844,6.5293,6.5712,6.5712,6.5562,6.5233,6.4336,6.4575,6.5173,0.0,0.0,0.0,0.0,0.0,0.0,0.0,0.0,0.0,0.0,0.0,0.0,0.0,0.0,0.0,0.0,0.0,0.0,3.1482,3.2766,3.3484,3.3484,3.5998,3.8631,4.1265,4.4556,4.6621,4.7309,4.8596,4.7519,4.4197,4.0935,3.902,3.8302,3.7045,3.6836,3.7345,3.6746,3.6118,3.5519,3.5519,3.6267,0.0,0.0,0.0,0.0,0.0,0.0,0.0,0.0,3.9948,3.9768,4.1713,4.1923,4.1534,4.2162,4.1893,4.1235,4.0576,4.0876,0.0,0.0,0.0,0.0,0.0,0.0,0.0,0.0,0.0,0.0,0.0,0.0,0.0,0.0,7.2894,7.5886,7.5886,7.5886,7.5886,7.5886,7.5288,7.4869,7.4869,7.4869,7.4569,7.3911,7.3881,7.3283,7.1936,7.1248,7.059,6.9991,6.9333,6.8645,6.7956,6.7298,6.664,6.5981,6.4635,6.4366,6.4994,6.4306,6.3977,6.3977,6.3977,6.4366,6.5024,6.5024,6.5024,6.5024,6.5024,6.5413,6.5832,6.4485,6.4844,6.5712,0.0,0.0,0.0,0.0,0.0,0.0,0.0,0.0,0.0,0.0,0.0,0.0,0.0,0.0,0.0,0.0,0.0,0.0,3.1482,3.2766,3.3484,3.3484,3.5998,3.7345,3.7255,4.0487,4.3838,4.7309,4.6741,4.4287,4.0127,3.914,3.7853,3.6417,3.7375,3.7165,3.6088,3.6357,3.6387,3.6178,3.6178,3.6956,3.8093,0.0,0.0,0.0,0.0,0.0,0.0,0.0,0.0,0.0,4.0786,4.1803,4.2611,4.1893,4.1863,4.1833,4.0696,4.1893,0.0,0.0,0.0,0.0,0.0,0.0,0.0,0.0,0.0,0.0,0.0,0.0,0.0,0.0,0.0,7.4659,7.5108,7.5198,7.5198,7.5198,7.4599,7.418,7.418,7.3762,7.3223,7.2535,7.2056,7.1427,7.059,6.9931,6.9273,6.8585,6.7926,6.7268,6.661,6.5951,6.5263,6.4605,6.4186,6.4096,6.4276,6.3647,6.3348,6.3348,6.3348,6.3707,6.4336,6.4814,6.4755,6.4306,6.4306,6.4156,6.3887,6.3498,6.3617,6.3857,0.0,0.0,0.0,0.0,0.0,0.0,0.0,0.0,0.0,0.0,0.0,0.0,0.0,0.0,0.0,0.0,0.0,0.0,0.0,3.3155,3.3873,3.3873,3.5669,3.6776,3.7045,3.9768,4.2162,4.4167,4.3898,4.1893,3.8392,3.8661,3.8302,3.7524,3.8931,3.8781,3.7434,3.7315,3.7075,3.6866,3.6866,3.7644,3.8811,0.0,0.0,0.0,0.0,0.0,0.0,0.0,0.0,0.0,4.0307,4.1205,4.2073,4.1534,4.1294,4.1205,4.1175,0.0,0.0,0.0,0.0,0.0,0.0,0.0,0.0,0.0,0.0,0.0,0.0,0.0,0.0,7.1248,7.2984,7.433,7.448,7.4719,7.4689,7.4151,7.3971,7.3791,7.3522,7.3163,7.2505,7.1577,7.1128,7.053,6.9632,6.8944,6.8286,6.7597,6.6939,6.6281,6.5622,6.4964,6.4425,6.4006,6.3737,6.3617,6.3617,6.3258,6.3079,6.3079,6.3348,6.3647,6.4036,6.4455,6.4216,6.3617,6.3617,6.3558,6.3408,6.3169,6.3228,6.3408,0.0,0.0,0.0,0.0,0.0,0.0,0.0,0.0,0.0,0.0,0.0,0.0,0.0,0.0,0.0,0.0,0.0,0.0,0.0,0.0,3.4472,3.4472,3.513,3.6626,3.902,4.0816,4.0846,3.905,4.0487,4.0187,3.8242,3.911,3.9798,4.0337,4.1055,4.0935,4.0127,3.8841,3.7973,3.7404,3.7464,3.8272,3.9409,3.9409,0.0,0.0,0.0,0.0,0.0,0.0,0.0,0.0,4.0187,4.0427,4.0606,4.1145,4.0516,4.0098,4.1953,0.0,0.0,4.9464,0.0,0.0,0.0,0.0,0.0,0.0,0.0,0.0,0.0,7.1577,7.1427,7.1966,7.3612,7.4569,7.3971,7.436,7.424,7.3043,7.3373,7.3462,7.2804,7.2684,7.2116,7.0829,7.062,7.0051,6.8884,6.8106,6.7388,6.6729,6.6131,6.5503,6.4844,6.4216,6.3917,6.3917,6.3348,6.3079,6.3079,6.3079,6.3079,6.3109,6.3677,6.3917,6.3917,6.3917,6.3588,6.3079,6.3079,6.3438,6.3857,6.3288,6.3438,6.3827,0.0,0.0,0.0,0.0,0.0,0.0,0.0,0.0,0.0,0.0,0.0,0.0,0.0,0.0,0.0,0.0,0.0,0.0,0.0,0.0,3.4472,3.4472,3.513,3.5759,3.6327,3.6776,3.6776,3.6357,3.8691,3.8841,3.6956,3.917,3.9978,3.9679,4.0846,4.0427,3.8781,3.7973,3.7524,3.7464,3.7973,3.8661,3.9409,3.9409,3.9409,0.0,0.0,0.0,0.0,0.0,0.0,0.0,4.0187,4.0756,4.1085,4.0726,4.1145,4.1923,4.288,4.4766,0.0,0.0,5.8291,6.3857,0.0,0.0,0.0,0.0,0.0,0.0,7.2744,7.3432,7.3881,7.3522,7.3821,7.4061,7.3911,7.3582,7.3223,7.2954,7.2565,7.2056,7.1398,7.0889,7.029,6.9482,6.8435,6.7717,6.7448,6.6311,6.5353,6.4665,6.4515,6.4126,6.3498,6.3348,6.3258,6.3258,6.3139,6.3079,6.3079,6.3079,6.3079,6.3079,6.3228,6.3258,6.3258,6.3258,6.3199,6.3079,6.3079,6.3169,6.3258,6.3139,6.3169,6.3258,0.0,0.0,0.0,0.0,0.0,0.0,0.0,0.0,0.0,0.0,0.0,0.0,0.0,0.0,0.0,0.0,0.0,0.0,0.0,0.0,3.4981,3.4981,3.5609,3.5818,3.5519,3.5818,3.5818,3.5519,3.6896,3.7195,3.6537,3.917,4.0397,4.0397,4.1414,4.0905,3.929,3.8302,3.7883,3.7943,3.8601,3.929,3.9888,3.9888,3.9499,0.0,0.0,0.0,0.0,0.0,0.0,0.0,0.0,0.0,4.0427,4.0397,4.0876,4.1833,4.3748,0.0,0.0,5.6825,0.0,6.5533,6.7508,0.0,0.0,0.0,7.1338,7.2924,7.2924,7.3462,7.3821,7.3492,7.3432,7.3313,7.2984,7.2924,7.2565,7.1607,7.1457,7.1038,7.0081,6.9692,6.9093,6.8106,6.7388,6.6729,6.6071,6.5413,6.4695,6.4006,6.4006,6.3707,6.3079,6.3079,6.3079,6.3079,6.3079,6.3079,6.3079,6.3079,6.3079,6.3079,6.3079,6.3079,6.3079,6.3079,6.3079,6.3079,6.3079,6.3079,6.3079,6.3079,6.3079,6.3079,0.0,0.0,0.0,0.0,0.0,0.0,0.0,0.0,0.0,0.0,0.0,0.0,0.0,0.0,0.0,0.0,0.0,0.0,0.0,0.0,0.0,3.5519,3.6028,3.6058,3.5519,3.6028,3.6058,3.5519,3.5519,3.5998,3.7045,3.932,4.0816,4.1564,4.1893,4.1354,4.0127,3.8691,3.8123,3.8272,3.896,3.9649,4.0217,4.0217,3.9529,0.0,0.0,0.0,0.0,0.0,0.0,0.0,0.0,0.0,3.9529,4.0068,4.0307,4.1055,4.4137,0.0,5.2965,6.0805,6.3797,0.0,6.7208,6.7717,6.7986,6.8675,7.029,7.1757,7.2445,7.2654,7.2744,7.2744,7.2654,7.2325,7.1637,7.1936,7.1637,7.0021,7.0171,6.9931,6.8764,6.8555,6.7986,6.6759,6.655,6.6011,6.4904,6.4755,6.4425,6.3857,6.3827,6.3588,6.3079,6.3079,6.3079,6.3079,6.3079,6.3079,6.3079,6.3394,6.3279,6.3079,6.3394,6.3279,6.3079,6.3394,6.3279,6.3079,6.3079,6.3079,6.3079,6.3079,6.3079,6.3079,0.0,0.0,0.0,0.0,0.0,0.0,0.0,0.0,0.0,0.0,0.0,0.0,0.0,0.0,0.0,0.0,0.0,0.0,0.0,0.0,0.0,3.5519,3.5579,3.5579,3.5519,3.5579,3.5579,3.5519,3.5519,0.0,0.0,0.0,0.0,4.2192,4.1145,4.0247,3.9439,3.7524,3.7045,3.7584,3.8272,3.8931,3.9559,3.9559,3.9439,0.0,0.0,0.0,0.0,0.0,0.0,0.0,0.0,0.0,3.9439,3.9529,3.9948,4.0876,4.3,0.0,5.5628,0.0,6.278,6.4515,0.0,0.0,6.7298,0.0,6.9243,7.044,7.1068,7.1637,7.2026,7.2026,7.1547,7.0949,7.029,6.9812,6.9423,6.9153,6.8675,6.8076,6.7328,6.6729,6.6101,6.5353,6.4725,6.4306,6.4156,6.3617,6.3288,6.3199,6.3199,6.3169,6.3079,6.3079,6.3079,6.3079,6.3079,6.3079,6.3194,6.432,6.4209,6.3194,6.432,6.4209,6.3194,6.429,6.4097,6.3079,6.3079,6.3079,6.3079,6.3079,6.3079,6.3079,0.0,0.0,0.0,0.0,0.0,0.0,0.0,0.0,0.0,0.0,0.0,0.0,0.0,0.0,0.0,0.0,0.0,0.0,0.0,0.0,0.0,3.5519,3.5519,3.5519,3.5519,3.5519,3.5519,3.5519,3.5519,0.0,0.0,4.0277,4.1294,0.0,0.0,0.0,3.932,3.7704,3.6956,3.6985,3.7973,3.8362,3.8362,3.914,0.0,0.0,0.0,0.0,0.0,0.0,0.0,0.0,3.9409,0.0,0.0,0.0,4.0157,4.1953,4.6501,5.0301,5.4371,0.0,6.2032,6.2929,6.4994,0.0,6.5981,6.6251,6.6789,6.7747,6.9512,7.0081,7.0141,6.9752,6.9453,6.9034,6.8375,6.8046,6.7747,6.7358,6.7059,6.661,6.5951,6.5622,6.5173,6.4515,6.4186,6.3857,6.3498,6.3228,6.3079,6.3079,6.3079,6.2899,6.254,6.254,6.254,6.254,6.254,6.3116,6.4209,6.4813,6.4813,6.432,6.5652,6.5544,6.432,6.4813,6.432,6.3079,6.3079,6.3079,6.3079,6.3079,6.3079,6.3079,0.0,0.0,0.0,0.0,0.0,0.0,0.0,0.0,0.0,0.0,0.0,0.0,0.0,0.0,0.0,0.0,0.0,0.0,0.0,0.0,0.0,3.5519,3.5519,3.5519,3.5519,3.5519,3.5519,3.5519,0.0,0.0,4.0905,4.0905,4.2222,0.0,4.2162,4.0606,0.0,0.0,0.0,0.0,0.0,0.0,0.0,0.0,0.0,0.0,0.0,0.0,0.0,0.0,0.0,0.0,0.0,0.0,0.0,0.0,0.0,4.2102,0.0,0.0,5.1977,5.8261,6.0206,6.1194,0.0,0.0,6.4575,0.0,6.4904,6.5622,6.7627,6.8136,6.8076,6.7567,6.7478,6.7238,6.658,6.649,6.6311,6.5832,6.5592,6.5293,6.4814,6.4635,6.4306,6.3797,6.3767,6.3558,6.3109,6.2929,6.2839,6.2839,6.266,6.2331,6.1852,6.1852,6.1852,6.1852,6.213,6.3091,6.4615,6.5302,6.5712,6.5901,6.7202,6.6751,6.5111,6.5544,6.4623,6.3079,6.3079,6.3079,6.3079,6.3079,6.3079,6.3079,0.0,0.0,0.0,0.0,0.0,0.0,0.0,0.0,0.0,0.0,0.0,0.0,0.0,0.0,3.3425,3.3484,3.4651,3.5429,3.5519,3.5519,3.5519,3.5519,3.5519,0.0,3.5519,3.5519,3.5519,3.5519,0.0,0.0,4.2252,4.2252,4.4317,4.7878,4.4616,4.2132,4.0247,0.0,0.0,0.0,0.0,0.0,0.0,0.0,0.0,0.0,0.0,0.0,0.0,0.0,0.0,0.0,0.0,0.0,0.0,0.0,0.0,0.0,0.0,4.6052,0.0,5.2785,5.6466,5.9578,0.0,0.0,6.3348,6.3917,6.4575,6.5084,6.5203,6.5742,6.6161,6.6131,6.6101,6.5892,6.5233,6.5114,6.5114,6.5084,6.4515,6.4096,6.4066,6.3528,6.3169,6.3139,6.3139,6.3109,6.3079,6.248,6.2151,6.2151,6.1553,6.1194,6.1164,6.1164,6.1164,6.1164,6.2333,6.3052,6.3189,6.5772,6.7254,6.7943,6.8728,6.7572,6.5219,6.6543,6.5544,6.3079,6.3079,6.3079,6.3079,6.3079,6.3079,6.3079,0.0,0.0,0.0,0.0,0.0,0.0,0.0,0.0,0.0,0.0,0.0,0.0,0.0,3.2755,3.3572,3.3516,3.4741,3.5519,3.5519,3.5519,3.5519,3.5519,3.5519,3.5519,3.5519,3.5519,3.5519,0.0,0.0,3.7434,4.0487,4.0905,4.2551,4.5065,4.3449,4.2312,4.1474,3.8452,0.0,0.0,0.0,0.0,0.0,0.0,0.0,0.0,0.0,0.0,0.0,0.0,0.0,0.0,0.0,0.0,0.0,0.0,0.0,0.0,0.0,0.0,0.0,5.078,5.3623,5.5867,5.8052,6.0236,6.1882,6.2091,6.3019,6.3767,6.3767,6.4665,6.5233,6.4784,6.4725,6.4485,6.3857,6.3767,6.3767,6.3767,6.3558,6.3408,6.3408,6.3199,6.3079,6.3079,6.3079,6.2899,6.248,6.2211,6.1912,6.1493,6.1253,6.0894,6.0446,6.0027,6.0027,6.0446,6.1737,6.3048,6.4381,6.6159,6.7612,6.8797,6.9065,6.7907,6.594,6.6799,6.5295,6.248,6.2899,6.3079,6.3079,6.3079,6.3079,6.3079,0.0,0.0,0.0,0.0,0.0,0.0,0.0,0.0,0.0,0.0,0.0,0.0,0.0,0.0,3.3813,3.4145,3.4981,3.5519,3.5519,3.5519,3.5619,3.5846,3.5619,3.5619,3.5846,3.5619,3.5519,3.5519,3.5729,3.7075,0.0,4.0098,4.1594,4.3629,4.2073,4.1863,0.0,0.0,0.0,3.7734,0.0,0.0,3.6596,0.0,0.0,0.0,0.0,0.0,0.0,0.0,0.0,0.0,0.0,0.0,0.0,0.0,0.0,0.0,4.1803,0.0,0.0,0.0,5.105,5.2456,5.5987,5.7992,5.9308,5.9967,6.1343,6.248,6.272,6.3647,6.4216,6.3767,6.3677,6.3558,6.3139,6.3079,6.3079,6.3079,6.3079,6.3079,6.3079,6.2869,6.275,6.275,6.254,0.0,6.1792,6.1553,6.1014,6.0146,6.0326,5.9997,5.9099,5.9099,5.9405,6.0122,6.1609,6.3241,6.5061,6.6351,6.7547,6.8707,6.8707,6.7637,6.582,6.63,6.4577,6.1822,6.2241,6.2421,6.245,6.266,6.275,6.278,0.0,0.0,0.0,0.0,0.0,0.0,0.0,0.0,0.0,2.9535,0.0,0.0,0.0,0.0,0.0,3.5464,3.5489,3.5519,3.5519,3.5519,3.5846,3.6538,3.5879,3.5846,3.66,3.591,3.5519,3.5519,3.6148,3.7434,3.9349,4.0008,4.1683,4.4018,4.0846,4.0876,4.321,0.0,4.1474,4.0127,0.0,3.7285,3.8512,0.0,0.0,0.0,4.0876,4.0546,0.0,0.0,0.0,0.0,0.0,0.0,0.0,0.0,0.0,0.0,0.0,0.0,0.0,0.0,0.0,0.0,5.47,5.5418,5.5598,5.7603,5.9578,6.1164,6.1912,6.257,6.2989,6.3049,6.3079,6.3079,6.3079,6.3049,6.3049,6.3049,6.3019,6.3019,6.3019,6.245,6.2061,6.2061,6.1463,6.1104,6.1044,6.0386,5.9428,5.8141,5.874,5.8441,5.7094,5.8411,5.9425,6.016,6.2073,6.3732,6.4959,6.6201,6.7151,6.7827,6.7793,6.6775,6.4988,6.5084,6.3516,6.1074,6.1104,6.1104,6.1194,6.1852,6.2091,6.2181,0.0,0.0,0.0,0.0,0.0,0.0,2.9695,3.033,3.064,0.0,0.0,0.0,0.0,0.0,3.4783,3.6136,3.5846,3.5519,3.5519,3.5519,3.5846,3.6538,3.5879,3.5846,3.66,3.591,3.5519,3.5519,3.5699,3.6297,3.7315,3.7943,3.914,0.0,4.0307,4.0277,4.0397,3.8302,0.0,0.0,3.7345,3.7823,0.0,0.0,0.0,0.0,0.0,4.1055,0.0,0.0,4.0876,4.1085,0.0,0.0,0.0,0.0,0.0,0.0,3.9649,0.0,0.0,0.0,0.0,0.0,0.0,5.0002,5.1738,5.47,5.6107,5.7603,6.0176,6.0775,6.1224,6.2211,6.278,6.3079,6.3079,6.266,6.2361,6.2361,6.1942,6.1642,6.1642,6.1493,6.1373,0.0,6.1224,6.0685,5.9727,5.856,5.7752,5.7393,5.8052,5.7992,5.7094,5.8814,5.9839,6.0129,6.2424,6.4014,6.4959,6.5664,6.6102,6.6271,6.573,6.4221,6.2204,6.4252,6.3204,6.0416,6.0924,6.1104,6.1194,6.1852,6.2091,6.2181,0.0,0.0,0.0,0.0,0.0,3.0027,3.0151,3.0723,3.108,0.0,0.0,0.0,0.0,0.0,3.5533,3.6102,3.5718,3.5519,3.5519,3.5782,3.6165,3.66,3.6165,3.6165,3.66,3.591,3.5519,3.5519,3.5519,3.5699,3.6088,3.6447,3.7195,0.0,0.0,0.0,0.0,0.0,0.0,0.0,3.8362,0.0,0.0,4.0965,4.1534,0.0,0.0,0.0,4.3838,4.2611,4.2102,0.0,0.0,0.0,0.0,0.0,0.0,0.0,0.0,0.0,0.0,0.0,0.0,0.0,4.5783,4.677,4.7997,5.075,5.2516,5.4281,5.6765,5.7902,5.889,6.0236,6.0984,6.1702,6.254,6.2091,6.1672,6.1672,6.1343,6.1104,6.1104,6.0864,6.0685,6.0685,6.0416,5.9817,5.874,5.7693,5.6974,5.6705,5.7363,5.7527,5.7041,5.8631,5.9933,6.0771,6.2476,6.388,6.4834,6.506,6.5222,6.5222,6.4783,6.3482,6.1757,6.2875,6.1707,5.9308,5.9727,6.0027,6.0356,6.1014,6.1253,6.1403,0.0,0.0,2.9768,2.9883,3.0368,3.0608,3.0183,3.0548,3.1061,0.0,3.181,0.0,0.0,0.0,0.0,3.5669,3.5549,3.5519,3.5519,3.6102,3.6477,3.66,3.6508,3.6508,3.66,3.591,3.5549,3.5609,3.5609,3.5609,3.5609,3.5609,0.0,0.0,0.0,0.0,0.0,0.0,0.0,3.8392,3.9738,4.1205,0.0,0.0,4.4825,0.0,4.6202,4.6531,4.6352,4.4466,4.288,0.0,0.0,0.0,0.0,0.0,3.9529,0.0,0.0,0.0,0.0,0.0,0.0,0.0,4.5005,4.4915,4.4676,4.6681,4.8955,5.105,5.2665,5.4491,5.6137,5.7363,5.8261,5.9488,6.1583,6.1313,6.0864,6.0805,6.0715,6.0655,6.0655,6.0116,5.9757,5.9757,5.9159,5.853,5.7932,5.7244,5.6615,5.6077,5.6852,5.7163,5.6991,5.8425,6.0073,6.1758,6.2418,6.3415,6.4613,6.4512,6.4478,6.4478,6.4214,6.3534,6.2355,6.1037,5.9648,5.8324,5.8112,5.853,5.9189,5.9847,6.0086,6.0266,0.0,0.0,3.0714,3.1835,3.2061,3.2404,3.3407,3.3213,3.2946,3.3095,3.4053,0.0,0.0,0.0,0.0,3.6297,3.5818,3.5519,3.5519,3.5619,3.6006,3.6538,3.607,3.6006,3.66,3.591,3.5759,3.6297,3.6297,3.6297,3.6297,0.0,0.0,0.0,0.0,0.0,0.0,0.0,0.0,3.7704,3.908,0.0,4.3958,4.4227,4.5394,4.692,4.707,4.7788,4.8476,0.0,4.5304,4.3569,0.0,0.0,0.0,0.0,0.0,0.0,0.0,0.0,0.0,0.0,0.0,0.0,4.2402,4.2551,4.3299,4.5274,4.6112,4.7489,5.096,5.2366,5.3234,5.4012,5.5598,5.7603,6.0116,5.9907,5.9308,5.877,5.8231,5.7872,5.7872,5.7752,5.7693,5.7693,5.7094,5.6675,5.6555,5.5927,5.5508,5.5388,5.7037,5.7536,5.6991,5.9703,6.1251,6.1725,6.2832,6.3761,6.458,6.4005,6.3734,6.362,6.2099,6.1183,6.0844,5.8649,5.8514,5.9451,5.8505,5.853,5.9189,5.9847,6.0086,6.0266,0.0,3.1061,3.1715,3.2448,3.3065,3.3607,3.3969,3.4,3.4233,3.4891,3.6417,0.0,0.0,0.0,0.0,0.0,0.0,3.5519,0.0,3.5846,3.607,3.607,3.607,3.607,3.607,3.5683,3.5669,3.5998,3.5998,3.5998,3.5998,0.0,0.0,0.0,0.0,0.0,0.0,0.0,3.7135,3.7644,4.0307,0.0,4.3958,4.5304,4.6621,4.7848,4.8177,4.8925,4.9464,4.7489,4.6352,0.0,0.0,4.2132,4.1803,0.0,4.1145,4.0876,0.0,0.0,0.0,4.1863,0.0,0.0,0.0,4.1115,4.1354,4.3,4.3329,4.4137,4.68,4.7818,4.8925,5.09,5.2067,5.3653,5.6286,5.7214,5.7513,5.7184,5.6555,5.6137,5.6137,5.6137,5.6286,5.6615,5.6047,5.5837,5.6166,5.5538,5.5451,5.6085,5.7043,5.7966,5.8812,6.0315,6.1399,6.2014,6.2683,6.3159,6.3497,6.3125,6.2956,6.2922,6.1924,6.148,6.1399,5.9522,5.9521,6.055,5.843,5.8231,5.9129,5.9488,5.9608,5.9787,0.0,0.0,3.2557,3.2677,3.3694,3.4352,3.3933,3.4322,3.519,3.6656,0.0,0.0,0.0,0.0,0.0,0.0,0.0,0.0,0.0,0.0,3.5919,3.531,3.61,3.6194,3.531,3.5549,3.5699,3.5699,3.5699,3.5699,3.5699,3.5699,0.0,0.0,0.0,0.0,0.0,0.0,0.0,3.8123,0.0,4.318,4.324,4.5903,4.7339,4.8027,4.9075,4.9883,5.0062,4.7698,0.0,4.689,4.3419,4.288,0.0,0.0,0.0,0.0,0.0,0.0,0.0,0.0,0.0,4.1713,0.0,0.0,0.0,0.0,0.0,0.0,0.0,0.0,0.0,4.7519,0.0,0.0,0.0,5.3563,0.0,5.5359,5.482,5.4491,5.461,5.4371,5.4521,5.5179,5.473,5.48,5.5732,5.54,5.578,5.7058,5.734,5.8473,6.0586,6.087,6.1399,6.2381,6.2381,6.2381,6.2381,6.2381,6.2381,6.2381,6.211,6.2223,6.2302,6.087,6.0758,6.136,5.8825,5.8412,5.9318,5.9439,5.9285,5.9279,3.1659,3.2048,0.0,3.3275,3.3993,3.4651,3.519,3.534,3.6058,3.7913,0.0,0.0,0.0,0.0,0.0,0.0,0.0,0.0,3.7913,0.0,0.0,3.4592,3.5859,3.5919,3.4622,3.5759,3.6387,3.6387,3.6387,3.6387,3.6387,3.6387,0.0,0.0,3.5459,0.0,0.0,0.0,3.8033,0.0,4.2222,4.2641,0.0,4.4526,4.5933,4.686,4.9254,5.0541,5.09,0.0,4.8596,4.7908,0.0,4.5035,0.0,0.0,0.0,0.0,0.0,0.0,0.0,0.0,4.5304,0.0,0.0,0.0,0.0,0.0,0.0,0.0,0.0,0.0,0.0,0.0,0.0,0.0,4.7219,4.8805,5.069,5.2456,5.2067,5.1887,5.2486,5.1498,5.1079,5.1738,5.1708,5.2389,5.4083,5.4638,5.575,5.7586,5.8637,5.9676,6.0586,6.1676,6.2302,6.2381,6.2381,6.2381,6.2381,6.2381,6.2381,6.2302,6.1317,6.1399,6.2189,5.9957,6.0031,6.1567,6.0789,6.0226,5.991,6.0496,6.0045,5.9219,3.2736,3.2886,0.0,3.3933,3.4622,3.519,3.5459,3.7135,3.8362,3.8392,0.0,0.0,0.0,0.0,0.0,0.0,0.0,3.7045,0.0,0.0,0.0,0.0,0.0,0.0,3.5639,3.5818,3.5908,3.5908,3.5908,3.5908,3.5908,3.5908,0.0,0.0,3.534,0.0,3.5429,0.0,0.0,0.0,0.0,0.0,0.0,4.5304,4.689,4.7668,4.9134,4.9853,4.9823,0.0,4.7878,0.0,0.0,0.0,0.0,0.0,0.0,0.0,0.0,0.0,0.0,0.0,0.0,0.0,0.0,0.0,4.2372,0.0,0.0,0.0,0.0,0.0,0.0,0.0,4.3449,0.0,0.0,0.0,4.6561,5.0092,0.0,0.0,5.0144,4.9992,4.9789,4.9584,5.0366,5.1631,5.3272,5.3985,5.5448,5.7943,5.851,5.9481,6.0959,6.1503,6.1772,6.1772,6.1772,6.1501,6.1061,6.1061,6.1061,6.1095,6.1031,6.1312,6.1694,6.115,6.1318,6.2096,6.2297,6.1873,6.0987,6.0508,6.0301,6.0136,0.0,0.0,0.0,0.0,3.504,3.5579,3.5759,3.7793,0.0,0.0,0.0,0.0,4.1953,4.1743,0.0,0.0,0.0,3.902,0.0,0.0,3.6178,0.0,0.0,0.0,0.0,0.0,3.5938,3.5759,3.5579,3.5609,3.5759,3.5759,0.0,0.0,0.0,3.6297,3.5998,0.0,0.0,3.9948,4.2252,4.3389,4.3928,4.5963,4.7399,4.8356,4.8835,4.9105,4.9015,4.7399,4.7489,0.0,4.6352,0.0,0.0,0.0,0.0,0.0,4.5574,0.0,0.0,0.0,0.0,0.0,0.0,0.0,0.0,0.0,0.0,0.0,0.0,0.0,0.0,0.0,0.0,4.1863,0.0,4.2363,0.0,0.0,0.0,0.0,0.0,4.9259,4.9027,4.8309,4.914,5.0465,5.2261,5.3143,5.5056,5.8104,5.8416,5.941,6.1298,6.1095,6.1095,6.1298,6.1095,6.0655,6.0114,6.0114,6.0216,6.0452,6.0825,6.1197,6.1637,6.1941,6.2212,6.2448,6.299,6.2882,6.2237,6.1313,6.1074,6.1107,3.531,3.4891,0.0,0.0,0.0,0.0,3.6357,0.0,0.0,0.0,0.0,0.0,0.0,0.0,0.0,0.0,0.0,4.1265,4.1265,0.0,3.7165,0.0,0.0,0.0,0.0,0.0,0.0,3.6447,3.5818,3.5818,3.6447,3.6447,0.0,0.0,0.0,3.929,3.9379,4.1384,4.2611,4.3299,4.4646,4.5992,4.701,0.0,4.6591,4.8297,4.8297,0.0,0.0,4.8446,4.8237,0.0,0.0,0.0,0.0,0.0,0.0,0.0,0.0,0.0,0.0,4.5783,0.0,0.0,0.0,0.0,4.6423,0.0,0.0,0.0,0.0,0.0,0.0,0.0,0.0,0.0,0.0,0.0,0.0,0.0,0.0,0.0,0.0,4.9106,4.8307,4.8126,4.7521,4.8184,5.0758,5.2203,5.4427,5.7808,5.8586,5.97,6.1298,6.052,6.052,6.1298,6.052,6.0114,6.0114,6.0114,6.052,6.1231,6.0452,6.0994,6.2313,6.1603,6.1772,6.2381,6.2415,6.2809,6.3492,6.3583,6.288,6.1759,0.0,0.0,0.0,0.0,0.0,0.0,0.0,3.7584,0.0,0.0,0.0,0.0,0.0,0.0,4.8027,0.0,0.0,4.4915,4.4018,4.1713,0.0,0.0,0.0,3.8542,0.0,0.0,0.0,0.0,0.0,0.0,3.7105,0.0,0.0,0.0,0.0,3.8751,0.0,0.0,0.0,0.0,0.0,4.704,4.8446,0.0,0.0,4.7638,4.7638,4.7788,0.0,4.7698,4.7638,4.7608,4.7369,4.716,4.698,4.698,4.698,0.0,0.0,0.0,4.8446,4.6471,0.0,0.0,0.0,0.0,0.0,0.0,0.0,0.0,0.0,0.0,0.0,0.0,0.0,0.0,0.0,0.0,0.0,0.0,0.0,0.0,0.0,0.0,4.6311,4.4673,4.5341,4.6571,4.8447,5.091,5.3545,5.6393,5.7171,5.8254,5.9776,5.9505,5.9505,5.9776,5.9505,5.9133,5.8626,5.8626,5.8795,5.9099,5.9776,6.0385,6.0926,6.1704,6.2178,6.2381,6.2381,6.255,6.2763,6.2974,6.3153,6.3069,3.5519,0.0,0.0,0.0,0.0,0.0,0.0,0.0,0.0,0.0,4.6352,0.0,5.1289,0.0,5.1109,0.0,5.0032,4.7967,4.5454,4.4377,0.0,4.1115,4.0876,0.0,0.0,0.0,0.0,0.0,0.0,3.7764,3.7764,0.0,0.0,0.0,0.0,3.9469,3.9649,0.0,4.3629,0.0,0.0,4.7429,0.0,0.0,4.7608,4.7938,0.0,4.7309,4.7309,4.7309,4.7309,4.7309,4.7309,4.716,4.695,4.695,4.695,4.704,4.7489,4.8237,0.0,4.704,4.7643,0.0,4.5489,0.0,0.0,0.0,0.0,0.0,0.0,0.0,0.0,0.0,0.0,0.0,0.0,3.8742,0.0,0.0,0.0,0.0,0.0,0.0,4.5635,4.352,4.4367,4.5538,0.0,4.9655,5.2399,5.4871,5.6156,5.7509,5.8998,5.8761,5.8761,5.9032,5.8727,5.8355,5.7881,5.7881,5.8017,5.8355,5.9302,6.0013,6.0588,6.1603,6.2144,6.2381,6.2381,6.255,6.2843,6.325,6.3736,6.4186,0.0,0.0,0.0,0.0,3.6058,0.0,0.0,0.0,4.4047,0.0,4.8745,5.093,5.2336,5.2456,5.2426,5.2426,5.2366,0.0,4.5963,4.7399,0.0,0.0,4.2581,4.2312,3.9679,0.0,0.0,0.0,0.0,0.0,3.8482,0.0,0.0,0.0,4.0786,0.0,4.1534,4.4825,4.5873,4.5454,4.677,4.7339,4.7399,4.7339,4.8117,4.9105,4.7788,4.7309,4.7309,4.7279,4.7279,4.7309,4.7279,4.686,4.6381,4.6381,4.6381,4.6381,4.6411,4.7339,4.8117,4.7459,0.0,0.0,0.0,0.0,5.0013,0.0,0.0,0.0,0.0,0.0,0.0,0.0,0.0,0.0,0.0,0.0,0.0,0.0,0.0,0.0,0.0,4.6997,4.5949,4.4497,4.4395,4.4767,0.0,4.8443,5.1082,5.3382,5.5581,5.7476,5.893,5.8254,5.8254,5.8964,5.822,5.7881,5.7881,5.7881,5.8287,5.8964,5.9032,5.9911,6.1264,6.1332,6.1772,6.2381,6.2381,6.2854,6.3599,6.4377,6.4823,6.5171,3.5519,3.5908,3.6237,0.0,3.5968,3.6537,0.0,0.0,0.0,0.0,5.081,5.3503,5.6286,5.6137,5.5837,5.5837,5.497,0.0,0.0,0.0,0.0,4.71,4.6531,4.5065,4.2432,4.2043,0.0,3.9619,0.0,0.0,3.9858,0.0,0.0,0.0,0.0,0.0,4.0846,4.3629,4.5304,4.6142,4.698,4.7908,0.0,0.0,4.8117,4.9105,4.7788,4.7309,4.7219,4.6741,4.689,4.7219,4.6741,4.68,4.704,4.704,4.704,4.716,4.7638,4.8027,4.8117,4.7459,4.797,4.8254,0.0,0.0,0.0,0.0,0.0,0.0,0.0,0.0,0.0,0.0,0.0,0.0,0.0,0.0,0.0,0.0,0.0,0.0,4.5297,4.4231,4.3016,4.2029,4.2052,0.0,0.0,0.0,5.0304,5.2536,5.4803,5.6697,5.8152,5.7983,5.7983,5.8186,5.7983,5.7881,5.7881,5.7881,5.7983,5.8254,5.9336,6.0047,6.0486,6.1637,6.2212,6.2381,6.2381,6.2854,6.3666,6.4952,6.58,6.632,3.5878,0.0,0.0,3.7315,0.0,0.0,4.0876,0.0,0.0,4.9164,5.2247,0.0,5.6645,5.7274,5.7423,5.7124,5.6196,0.0,0.0,0.0,0.0,4.9344,4.8566,4.692,4.4287,4.3,0.0,4.0397,0.0,0.0,3.9948,3.929,0.0,0.0,0.0,4.1324,4.1444,4.4077,4.5783,4.68,4.716,0.0,0.0,4.7279,4.7339,4.7848,4.68,4.68,4.7219,4.6561,4.6561,4.686,4.677,4.68,4.692,4.7219,4.7309,4.7399,4.7758,4.8057,4.8207,4.7818,4.8343,4.859,4.725,4.8364,4.9426,0.0,0.0,0.0,0.0,0.0,0.0,0.0,0.0,0.0,0.0,0.0,0.0,0.0,0.0,0.0,4.3098,4.2332,4.1488,4.0667,4.1588,0.0,0.0,0.0,4.956,5.0811,5.4329,5.6596,5.7408,5.8389,5.8524,5.7881,5.7881,5.7881,5.7881,5.7881,5.8084,5.8457,5.9607,6.0317,6.0723,6.1907,6.2381,6.2415,6.2753,6.3125,6.3666,6.4783,6.5493,6.5831,0.0,0.0,0.0,0.0,0.0,0.0,0.0,4.5334,0.0,5.0481,0.0,5.5688,5.5688,5.7214,5.7932,5.7154,0.0,5.5239,5.2755,5.3683,5.2965,4.9912,4.9703,4.8416,4.5753,4.3658,0.0,0.0,0.0,0.0,3.9529,3.8841,0.0,0.0,0.0,0.0,0.0,4.4915,4.6322,4.692,4.71,4.7189,4.713,4.6531,4.6262,4.6082,4.5424,4.5963,4.695,4.6292,4.6112,4.6262,4.677,4.6651,4.6441,4.701,4.7249,4.7309,4.7309,4.7728,4.8147,4.8147,4.8596,4.8716,4.7578,4.7934,4.8358,4.7731,4.7808,4.7656,0.0,0.0,0.0,0.0,0.0,0.0,0.0,0.0,0.0,0.0,0.0,0.0,4.161,4.1305,4.0899,4.0155,0.0,0.0,0.0,0.0,4.8612,4.8984,5.3788,5.6562,5.6934,5.8863,5.9201,5.8017,5.7949,5.7881,5.7881,5.7881,5.8287,5.9066,5.9674,6.0486,6.1366,6.1975,6.2245,6.2313,6.2956,6.3226,6.3328,6.4038,6.4309,6.4343,0.0,0.0,0.0,0.0,0.0,4.5574,4.7878,4.9793,5.1798,5.4042,5.6705,5.8411,5.8411,5.871,5.8441,5.7214,5.7004,0.0,0.0,0.0,0.0,5.2576,5.1977,5.0451,4.7818,4.5274,4.3599,0.0,0.0,0.0,0.0,0.0,0.0,0.0,0.0,0.0,4.2432,4.3419,0.0,4.4945,4.6052,4.6501,4.6471,4.6381,4.5963,4.5394,4.4736,4.4975,4.5544,4.4885,4.5035,4.5394,4.4975,4.5514,4.6352,4.6471,4.689,4.7309,4.7309,4.7399,4.7489,4.7489,4.7549,4.7578,4.7369,4.7452,4.7357,4.6695,4.6139,4.5586,4.4881,0.0,0.0,0.0,0.0,0.0,0.0,0.0,0.0,0.0,0.0,0.0,0.0,0.0,0.0,0.0,0.0,0.0,0.0,0.0,4.6481,0.0,5.23,0.0,0.0,0.0,5.8457,5.8795,5.8186,5.7881,5.7881,5.7881,5.8287,5.9032,5.9167,6.0013,6.1332,6.1434,6.1501,6.1501,6.1637,6.1704,6.1772,6.2516,6.2787,6.2843,0.0,0.0,0.0,0.0,0.0,0.0,0.0,5.3563,0.0,5.473,5.6077,5.7064,5.7064,5.7992,5.8201,5.7184,5.6795,5.6226,5.5239,5.488,5.4221,5.3234,5.2217,0.0,4.8835,4.5843,4.3988,4.3329,0.0,0.0,0.0,0.0,0.0,3.9469,0.0,4.2132,0.0,0.0,0.0,4.4915,4.5903,4.6322,4.6262,4.5544,4.5065,4.4706,4.4047,4.4018,4.4287,4.4317,4.4526,4.4796,4.4825,4.5274,4.5873,4.6232,4.68,4.7309,4.7309,4.7309,4.7309,4.7309,4.7309,4.7309,4.7309,4.704,4.6711,4.6381,4.5514,4.4496,4.3479,4.2652,0.0,0.0,0.0,0.0,0.0,0.0,0.0,0.0,0.0,0.0,0.0,0.0,0.0,0.0,0.0,0.0,0.0,0.0,4.6007,0.0,0.0,0.0,5.6731,0.0,5.8829,5.8423,5.8051,5.7881,5.7881,5.7881,5.849,5.9573,5.9573,6.025,6.1298,6.1298,6.1298,6.1332,6.1704,6.1873,6.1907,6.2245,6.2381,6.2403,0.0,4.1773,0.0,0.0,4.7938,0.0,5.3084,5.6196,5.7573,5.5508,5.5568,5.5807,5.5807,5.7064,5.7633,5.6944,5.6436,5.5837,5.5029,5.464,5.3982,5.3025,5.2127,5.09,4.9284,4.6441,4.4347,0.0,0.0,0.0,0.0,0.0,0.0,0.0,0.0,0.0,0.0,0.0,4.4885,4.4975,4.5783,4.6022,4.5783,4.4706,4.4227,4.4047,4.3509,4.3329,4.3419,4.3928,4.4107,4.4197,4.4706,4.5065,4.5394,4.5933,4.6681,4.7309,4.7309,4.7309,4.7309,4.7309,4.7309,4.7309,4.7309,4.689,4.6441,4.6172,4.5035,4.3748,4.2581,4.2768,0.0,0.0,0.0,0.0,0.0,0.0,0.0,0.0,0.0,0.0,0.0,0.0,0.0,0.0,0.0,0.0,4.0155,0.0,0.0,0.0,0.0,5.4634,5.5716,0.0,5.9133,5.8118,5.7949,5.7881,5.7881,5.7881,5.8626,5.9877,5.9708,6.0182,6.1028,6.1028,6.1163,6.1366,6.1941,6.2144,6.2178,6.2347,6.2381,6.2415,0.0,0.0,0.0,0.0,0.0,0.0,5.4072,5.6915,5.8919,5.868,5.8171,5.7842,5.7842,5.7453,5.6944,5.6316,5.6196,5.5658,5.4371,5.479,5.4251,5.2366,5.2755,5.1828,4.9314,4.7788,4.5514,0.0,0.0,0.0,0.0,0.0,0.0,0.0,0.0,0.0,0.0,4.2761,4.3569,4.3688,4.4885,4.5035,4.4496,4.4377,4.3958,4.3419,4.3359,4.3329,4.3329,4.3389,4.3419,4.3419,4.3509,4.4347,4.5304,4.5364,4.6292,4.7309,4.7309,4.7309,4.7309,4.7309,4.7309,4.7309,4.7309,4.7249,4.686,4.5633,4.4347,4.321,4.2491,4.3135,4.3521,0.0,0.0,0.0,0.0,0.0,0.0,0.0,0.0,0.0,0.0,4.0769,0.0,0.0,4.0223,0.0,0.0,0.0,0.0,4.5771,5.0168,5.3551,5.5683,5.7306,5.8355,5.8896,5.822,5.7881,5.7881,5.7881,5.8355,5.9066,5.8389,5.8896,6.0216,6.0216,6.0655,6.1298,6.1366,6.14,6.1467,6.2144,6.2381,6.2482,0.0,0.0,0.0,0.0,0.0,0.0,0.0,5.7752,5.8949,5.856,5.862,5.856,5.8171,5.7513,5.6855,5.6226,5.5807,5.5359,5.485,5.467,5.4072,5.2845,5.2665,5.1528,4.9314,4.8356,4.6292,0.0,0.0,0.0,0.0,0.0,0.0,0.0,0.0,4.0935,4.2222,4.303,4.3599,4.3988,4.4496,4.4556,4.4257,4.3868,4.3569,4.3329,4.3329,4.3329,4.3329,4.3329,4.3329,4.3329,4.3329,4.4227,4.5304,4.5304,4.6262,4.7309,4.7309,4.7309,4.7309,4.7309,4.701,4.6711,4.6711,4.6411,4.5843,4.4885,4.3958,4.3359,4.3509,4.4476,4.5168,0.0,0.0,0.0,0.0,0.0,0.0,0.0,0.0,0.0,0.0,0.0,0.0,0.0,0.0,0.0,0.0,0.0,0.0,4.6278,0.0,5.3179,5.5006,5.7374,5.8727,5.9032,5.8693,5.8558,5.8558,5.8084,5.8287,5.9032,5.9167,5.9573,6.0148,6.0622,6.1028,6.1332,6.1772,6.1941,6.2009,6.2279,6.2381,6.2415,4.7967,0.0,4.9374,0.0,5.3653,5.497,5.6825,5.8082,5.871,5.8441,5.8471,5.8261,5.7633,5.6944,5.6346,5.5927,5.5448,5.5119,5.491,5.4461,5.3803,5.2935,5.2456,0.0,4.9314,4.8805,4.695,4.3658,4.3629,0.0,0.0,0.0,0.0,0.0,4.0816,4.1504,4.306,4.3449,4.3778,4.4047,4.4227,4.4197,4.3958,4.3509,4.3329,4.3329,4.3329,4.3329,4.3329,4.3329,4.3329,4.3329,4.3329,4.4227,4.5304,4.5304,4.6112,4.707,4.7249,4.716,4.707,4.7249,4.695,4.6561,4.6381,4.6112,4.5693,4.5035,4.4227,4.3828,4.4599,4.529,4.5921,4.6173,0.0,0.0,0.0,0.0,0.0,0.0,4.1686,4.1177,3.9445,0.0,0.0,0.0,0.0,0.0,0.0,0.0,0.0,0.0,0.0,0.0,5.4905,5.7645,5.9032,5.9032,5.9032,5.9032,5.8998,5.8457,5.8524,5.9066,5.9776,6.0216,6.0486,6.1061,6.1434,6.167,6.2178,6.2381,6.2381,6.2381,6.2381,6.2415,4.9823,5.072,5.1798,5.3832,5.5777,5.7064,5.7094,5.7693,5.8381,5.9009,5.7932,5.6885,5.6256,5.5598,5.5209,5.5209,5.5179,5.491,5.4251,5.4221,5.3623,0.0,0.0,5.1289,4.9314,4.9254,4.7638,4.4317,0.0,0.0,4.0397,0.0,4.1384,4.1444,4.2701,4.294,4.2462,4.3748,4.3928,4.3389,4.4047,4.3928,4.3329,4.3329,4.3329,4.3329,4.3329,4.3329,4.3329,4.3329,4.3329,4.3329,4.3329,4.4227,4.5304,4.5304,4.5783,4.6471,4.713,4.683,4.6501,4.713,4.7309,4.713,4.6471,4.683,4.71,4.6441,4.5244,4.4579,4.5542,4.5246,4.5153,4.6032,0.0,0.0,0.0,0.0,0.0,0.0,4.2892,4.2522,4.0271,0.0,0.0,0.0,0.0,0.0,0.0,0.0,0.0,4.7868,5.1522,0.0,5.5683,5.7915,5.9032,5.9032,5.9032,5.9032,5.9032,5.8998,5.8998,5.9066,5.9776,6.0554,6.1298,6.1298,6.1738,6.2381,6.2381,6.2381,6.2381,6.2381,6.2381,6.2482,5.1349,5.2486,5.3593,5.47,5.5748,5.6466,5.6466,5.7004,5.7363,5.7124,5.6735,5.6226,5.5568,5.5718,5.5508,0.0,5.494,5.47,0.0,5.3952,5.3593,5.2247,5.2187,5.1289,4.9314,4.9254,4.7848,4.4975,0.0,0.0,0.0,4.2372,4.2521,4.3359,4.3359,4.3718,4.4347,4.4317,4.4436,4.4646,4.4407,4.4197,4.4018,4.4018,4.3718,4.3329,4.3329,4.3329,4.3329,4.3329,4.3329,4.3329,4.3329,4.4227,4.5214,4.4766,4.5424,4.6381,4.6591,4.6142,4.5903,4.701,4.6621,4.5992,4.6262,4.6112,4.6022,4.6262,4.5244,4.4609,4.5542,4.5246,4.5079,4.6032,4.6383,0.0,0.0,0.0,0.0,0.0,4.2189,4.2186,0.0,4.221,0.0,0.0,0.0,0.0,0.0,0.0,0.0,0.0,5.23,0.0,5.6461,5.8152,5.9268,5.9742,5.9742,5.9742,5.9742,5.9742,5.9742,5.981,6.0588,6.1061,6.1332,6.1839,6.2178,6.2381,6.2381,6.2381,6.2381,6.2381,6.2381,6.2415,5.2396,5.3234,5.4102,5.5029,5.5718,5.6166,5.6166,5.6496,5.6705,5.6526,5.6107,5.5748,5.5568,5.5718,0.0,5.4311,5.482,5.461,5.3264,5.3593,5.3324,5.2247,5.1738,5.078,4.9284,4.9015,0.0,4.6052,4.5992,4.5514,4.4646,4.3599,4.3808,4.5035,4.4646,4.4766,4.5274,4.4855,4.4766,4.4855,4.4197,4.4107,4.4287,4.4047,4.3688,4.3329,4.3329,4.3479,4.3658,4.3419,4.3509,4.3658,4.3419,4.4077,4.4855,4.4436,4.4915,4.5633,4.5873,4.5454,4.5244,4.6591,4.6292,4.5873,4.6531,4.6172,4.5873,4.6561,4.5633,4.4971,4.5912,4.5049,4.4493,4.5182,4.5194,4.4691,4.3553,0.0,0.0,0.0,0.0,0.0,0.0,4.3866,4.4959,0.0,0.0,0.0,0.0,0.0,0.0,5.0202,5.3619,5.5987,5.7205,5.8998,5.9945,6.0114,6.0419,6.0385,6.0114,6.0419,6.0554,6.0588,6.1366,6.1704,6.1738,6.2212,6.2381,6.2381,6.2381,6.2381,6.2381,6.2381,6.2381,6.2381,5.2995,5.3294,5.3713,0.0,5.5688,0.0,5.6107,5.6107,5.6316,5.6885,5.5927,5.5418,5.6047,5.5568,5.491,5.4192,0.0,0.0,0.0,5.3114,5.2785,5.2097,5.09,4.9912,4.9224,4.8596,4.7967,4.7309,4.5992,4.5394,4.5424,4.4766,4.5155,4.6381,4.6381,4.6022,4.5364,4.5364,4.5005,4.4407,4.3748,4.3838,4.4317,4.3658,4.3359,4.3329,4.3329,4.3748,4.4227,4.3599,4.3838,4.4287,4.3658,4.3898,4.4377,4.4287,4.4287,4.4436,4.5065,4.4796,4.4646,4.5992,4.6352,4.6561,4.716,4.683,4.6561,4.713,4.6232,4.5634,4.6498,4.4886,4.3434,4.3673,4.3151,4.2487,4.1853,0.0,0.0,0.0,0.0,0.0,0.0,4.6143,4.6955,0.0,0.0,0.0,0.0,0.0,5.0236,5.2232,5.5243,5.7205,5.8017,6.0114,6.0825,6.0182,6.0926,6.0926,6.0283,6.1028,6.1366,6.14,6.211,6.2381,6.2381,6.2381,6.2381,6.2381,6.2381,6.2381,6.2381,6.2381,6.2381,6.2381,0.0,0.0,5.482,5.5119,5.5329,5.5418,5.5418,5.5418,5.5478,5.5628,5.5388,5.5239,5.5418,5.5299,5.47,5.3533,5.4042,5.3862,5.2516,5.2426,5.1917,5.075,5.0421,4.9703,4.8536,4.8356,4.7967,4.7309,4.6471,4.6352,4.683,4.6142,4.6292,4.707,4.707,4.6711,4.6082,4.6082,4.5992,4.5783,4.5095,4.4915,4.4975,4.4317,4.3778,4.3329,4.3329,4.3748,4.4287,4.4137,4.4526,4.5035,4.4885,4.4945,4.4855,4.3868,4.3928,4.4347,4.4496,4.4436,4.4646,4.5992,4.6711,4.71,4.7279,4.7189,4.698,4.6621,4.6292,4.6056,4.5973,4.4947,4.3826,4.3117,4.2412,4.1601,4.0482,4.0834,0.0,0.0,4.3944,4.4756,4.5872,4.6143,4.6481,0.0,0.0,0.0,4.9255,5.1285,5.2401,5.23,5.5243,5.7679,5.9573,5.9573,6.0047,6.1028,6.1231,6.1501,6.1839,6.2042,6.2144,6.2144,6.2313,6.2381,6.2381,6.2381,6.2381,6.2381,6.2381,6.2381,6.2381,6.2381,6.2381,6.2381,5.4072,5.4491,5.485,5.5149,5.5179,5.5179,5.5179,5.5179,5.5179,5.5179,5.5179,5.5179,5.5179,5.5179,5.491,5.4162,5.4162,5.3503,5.1858,5.2037,5.1618,5.0301,4.9942,4.9314,4.8297,4.7997,4.7668,4.7309,4.695,4.695,4.7309,4.695,4.695,4.7309,4.7309,4.695,4.6322,4.6322,4.6322,4.6262,4.5574,4.5484,4.5663,4.4676,4.4077,4.3778,4.3778,4.4197,4.4766,4.4766,4.5214,4.5693,4.5394,4.5304,4.5155,4.4436,4.4496,4.4766,4.4766,4.4766,4.5005,4.6052,4.68,4.7309,4.7309,4.7309,4.7219,4.686,4.6531,4.616,4.5616,4.4659,4.3397,4.1919,4.1186,4.0395,3.9495,4.0131,0.0,4.372,4.4925,4.6177,4.7665,4.8376,4.8646,4.8443,4.9323,0.0,5.0067,5.2909,5.416,5.3382,5.6562,5.8727,5.9607,5.9911,6.0655,6.1806,6.1806,6.2009,6.2381,6.2381,6.2381,6.2381,6.2381,6.2381,6.2381,6.2381,6.2381,6.2347,6.2009,6.211,6.2347,6.2009,6.211,6.2381,5.4072,5.4281,5.4521,5.5089,5.5179,5.5179,5.5179,5.5179,5.5179,5.5179,5.5179,5.5179,5.5179,5.5179,5.5119,5.491,5.4371,5.3324,5.1618,5.1768,5.1349,5.0152,4.9464,4.8805,4.8147,4.7578,4.7309,4.7309,4.7309,4.7309,4.7309,4.7309,4.7309,4.7309,4.7309,4.698,4.6471,4.6471,4.6471,4.6411,4.5723,4.5813,4.6172,4.4945,4.4466,4.4466,4.4466,4.4885,4.5454,4.5454,4.5903,4.6381,4.5783,4.5603,4.5603,4.5603,4.5603,4.5544,4.5334,4.5364,4.5603,4.6292,4.689,4.7309,4.7309,4.7309,4.7309,4.7309,4.686,4.6262,4.5574,4.4407,4.288,4.0876,3.9929,3.9299,3.9017,0.0,4.1409,4.4564,4.621,4.7699,4.9187,5.0947,5.1285,4.9627,5.1758,5.2469,5.0845,5.3923,5.5513,5.5108,5.8254,5.9742,5.937,6.0757,6.1772,6.2381,6.2381,6.2381,6.2381,6.2381,6.2381,6.2381,6.2381,6.2381,6.2381,6.2279,6.2212,6.2144,6.14,6.1501,6.1975,6.1366,6.1501,6.2042,5.4072,5.467,5.5059,5.5179,5.5179,5.5179,5.5179,5.5179,5.5179,5.5179,5.5179,5.5179,5.5179,5.5179,5.473,5.3593,5.3414,5.3204,5.2905,5.1409,5.0212,4.9464,4.8805,4.8117,4.7489,4.7369,4.7309,4.7309,4.7309,4.7309,4.7309,4.7309,4.7309,4.7309,4.7309,4.7249,4.716,4.716,4.716,4.71,4.6441,4.6232,4.6232,4.5454,4.5155,4.5155,4.5155,4.5574,4.6172,4.6172,4.6591,4.713,4.704,4.701,4.701,4.701,4.701,4.6741,4.5603,4.5723,4.6322,4.698,4.7219,4.7309,4.7309,4.7309,4.7309,4.7309,4.7219,4.695,4.6292,4.5065,4.3539,4.1534,3.9763,3.8818,3.9593,0.0,4.2332,4.6026,4.7767,4.9255,5.0744,5.0608,5.0811,5.1725,5.1657,5.2232,5.3822,5.504,5.6224,5.734,5.8558,5.9742,6.0926,6.1806,6.2279,6.2381,6.2381,6.2381,6.2381,6.2381,6.2381,6.2381,6.2381,6.2381,6.2347,6.1738,6.1467,6.14,6.0588,6.0351,6.0452,6.0317,6.0351,6.0554,5.461,5.497,5.5179,5.5179,5.5179,5.5179,5.5179,5.5179,5.5179,5.5179,5.5179,5.5179,5.5179,5.5179,5.479,5.3832,5.3384,5.3025,5.2665,5.1468,5.0331,4.9314,4.8985,4.8327,4.7339,4.7309,4.7309,4.7309,4.7309,4.7309,4.7309,4.7309,4.7309,4.7309,4.7309,4.7309,4.7309,4.7309,4.7309,4.7279,4.698,4.686,4.677,4.6112,4.5843,4.5843,4.5843,4.6052,4.6381,4.6741,4.704,4.7309,4.7309,4.7309,4.7309,4.7309,4.7309,4.716,4.6561,4.6621,4.692,4.7219,4.7309,4.7309,4.7309,4.7309,4.7309,4.7309,4.7764,4.7691,4.6526,4.5677,4.4552,4.2719,4.0867,0.0,0.0,4.2359,4.4207,4.7578,4.9289,5.0777,5.23,5.2131,5.2367,5.345,5.3213,5.3653,5.5108,5.5886,5.6799,5.7848,5.9438,6.0791,6.1873,6.2212,6.2381,6.2381,6.2381,6.2381,6.2381,6.2381,6.2381,6.2381,6.2381,6.2178,6.1772,6.1434,6.1028,6.0622,6.025,6.0114,6.0148,6.0588,6.0486,6.0216,5.485,5.5089,5.5179,5.5179,5.5179,5.5179,5.5179,5.5179,5.5179,5.5179,5.5179,5.5179,5.5179,5.5059,5.47,5.4042,5.3354,5.2665,5.2007,5.1349,5.0481,4.9314,4.8985,4.8327,4.7339,4.7309,4.7309,4.7309,4.7309,4.7309,4.7309,4.7309,4.7309,4.7309,4.7309,4.7309,4.7309,4.7309,4.7309,4.7309,4.7309,4.7309,4.7249,4.6741,4.6561,4.6561,4.6561,4.6561,4.6621,4.713,4.7309,4.7309,4.7309,4.7309,4.7309,4.7309,4.7309,4.7309,4.7309,4.7309,4.7309,4.7309,4.7309,4.7309,4.7309,4.7452,4.7679,4.7679,4.846,4.8686,4.7183,4.6425,4.5573,4.3818,0.0,0.0,0.0,4.4364,4.6134,4.9159,5.0676,5.1995,5.3382,5.3518,5.3822,5.4532,5.46,5.5006,5.5919,5.6664,5.7543,5.866,6.0385,6.1637,6.2381,6.2381,6.2381,6.2381,6.2381,6.2381,6.2381,6.2381,6.2381,6.2381,6.2212,6.1907,6.1501,6.0994,6.052,6.008,5.9911,5.9844,5.9911,6.0554,6.0385,5.9979,5.4132,5.476,5.5179,5.5179,5.5179,5.5179,5.5179,5.5179,5.5179,5.5179,5.5179,5.5179,5.5179,5.464,5.4012,5.3324,5.2665,5.2007,5.1319,5.069,5.0002,4.9284,4.8087,4.7399,4.7309,4.7309,4.7309,4.7309,4.7309,4.7309,4.7309,4.7309,4.7309,4.7309,4.7309,4.7309,4.7309,4.7309,4.7309,4.7309,4.7309,4.7309,4.7309,4.7249,4.7249,4.7249,4.7249,4.7249,4.7249,4.7279,4.7309,4.7309,4.7309,4.7309,4.7309,4.7309,4.7309,4.7309,4.7309,4.7309,4.7309,4.7309,4.7309,4.7309,4.7309,4.7988,4.8677,4.8677,4.9536,4.9931,4.8829,4.7663,4.6282,4.4509,0.0,0.0,4.4825,4.593,4.7631,5.0713,5.1758,5.257,5.3416,5.3518,5.3822,5.4532,5.46,5.5209,5.663,5.7408,5.8795,6.0994,6.1231,6.1637,6.2381,6.2381,6.2381,6.2381,6.2381,6.2381,6.2381,6.2381,6.2381,6.2347,6.167,6.1738,6.2144,6.0047,5.9539,6.0047,5.937,5.9099,5.9099,5.9167,5.9133,5.9201,5.461,5.5029,5.5059,5.464,5.491,5.5059,5.464,5.494,5.5179,5.5179,5.485,5.4581,5.4581,5.3982,5.3294,5.2636,5.2336,5.1917,5.1259,5.0601,4.9763,4.8686,4.7788,4.7309,4.7309,4.7309,4.7309,4.7309,4.7309,4.7309,4.7309,4.7309,4.7309,4.7309,4.7309,4.7309,4.7309,4.7309,4.7309,4.7309,4.7309,4.7309,4.7309,4.7309,4.7309,4.7309,4.7309,4.7309,4.7309,4.7309,4.7309,4.7309,4.7309,4.7309,4.7309,4.7309,4.7309,4.7309,4.7309,4.7309,4.7309,4.7309,4.7309,4.7309,4.7309,4.8072,4.8841,4.8841,4.9615,5.0087,4.8973,4.8066,4.7398,4.7099,0.0,4.6247,4.8367,4.9161,5.0253,5.2369,5.3281,5.4025,5.4803,5.4871,5.5175,5.5919,5.5953,5.6596,5.8084,5.9336,6.0419,6.1264,6.1738,6.211,6.2381,6.2381,6.2381,6.2381,6.2381,6.2381,6.2381,6.2381,6.2381,6.2347,6.1603,6.1163,6.0858,5.9573,5.9167,5.9404,5.9133,5.9302,5.9742,6.025,6.0114,5.9708,5.494,5.5029,5.482,5.4551,5.4551,5.4491,5.4251,5.4401,5.4551,5.4551,5.4162,5.3892,5.3892,5.3294,5.2695,5.2247,5.2007,5.1708,5.1259,5.0421,4.9434,4.8327,4.7668,4.7309,4.7309,4.7309,4.7309,4.7309,4.7309,4.7309,4.7309,4.7309,4.7309,4.7309,4.7309,4.7309,4.7309,4.7309,4.7309,4.7309,4.7309,4.7309,4.7309,4.7309,4.7309,4.7309,4.7309,4.7309,4.7309,4.7309,4.7309,4.7309,4.7309,4.7309,4.7309,4.7309,4.7309,4.7309,4.7309,4.7309,4.7309,4.7309,4.7309,4.7309,4.7309,4.8293,4.9296,4.9296,5.0397,5.093,4.9536,4.892,4.859,4.8469,4.8103,4.861,5.0824,5.1563,5.2503,5.4025,5.4634,5.5141,5.5683,5.5716,5.6021,5.6731,5.6799,5.7543,5.9268,6.0588,6.14,6.1637,6.2144,6.2381,6.2381,6.2381,6.2381,6.2381,6.2381,6.2381,6.2381,6.2381,6.2381,6.2347,6.1603,6.1129,6.0757,5.9776,5.937,5.937,5.9641,5.9877,6.0216,6.0994,6.1155,6.087,5.491,5.464,5.4401,5.5059,5.4072,5.3414,5.4102,5.3623,5.3174,5.3174,5.3174,5.3174,5.3174,5.2576,5.2187,5.2187,5.1588,5.1199,5.1199,4.9972,4.8955,4.8297,4.7638,4.7309,4.7309,4.7309,4.7309,4.7309,4.7309,4.7309,4.7309,4.7309,4.7309,4.7309,4.7309,4.7309,4.7309,4.7309,4.7309,4.7309,4.7309,4.7309,4.7309,4.7309,4.7309,4.7309,4.7309,4.7309,4.7309,4.7309,4.7309,4.7309,4.7309,4.7309,4.7309,4.7309,4.7309,4.7309,4.7309,4.7309,4.7309,4.7309,4.7309,4.7309,4.7309,4.8922,5.0397,5.0397,5.2026,5.28,5.0779,5.0397,4.9864,4.8071,4.8653,4.9973,5.1789,5.287,5.4059,5.5547,5.5716,5.5716,5.575,5.575,5.6021,5.6765,5.6833,5.778,5.9979,6.0858,6.1637,6.2381,6.2381,6.2381,6.2381,6.2381,6.2381,6.2381,6.2381,6.2381,6.2381,6.2381,6.2381,6.2347,6.1603,6.1704,6.2245,6.0723,6.0114,6.0182,6.0994,6.0825,6.0216,6.1028,6.1879,6.2504,5.3623,5.3623,5.3414,5.3144,5.3144,5.3084,5.2845,5.3025,5.3174,5.3174,5.2785,5.2306,5.1858,5.1618,5.1319,5.087,5.0631,5.0152,4.9224,4.8805,4.8297,4.7638,4.7429,4.7309,4.7309,4.7309,4.7309,4.7309,4.7309,4.7309,4.7309,4.7309,4.7309,4.7309,4.7309,4.7309,4.7309,4.7309,4.7309,4.7309,4.7309,4.7309,4.7309,4.7309,4.7309,4.7309,4.7309,4.7309,4.7309,4.7309,4.7309,4.7309,4.7309,4.7309,4.7309,4.7309,4.7309,4.7309,4.7309,4.7309,4.7309,4.7309,4.7309,4.7309,4.7309,4.8293,4.9296,4.9296,4.9773,5.0242,5.0397,4.9773,4.96,5.0564,5.1401,5.2342,5.3643,5.4563,5.5412,5.6359,5.6461,5.6697,5.7171,5.7239,5.734,5.7543,5.8524,5.9404,6.0047,6.1332,6.2178,6.2381,6.2381,6.2381,6.2381,6.2381,6.2381,6.2381,6.2381,6.2381,6.2381,6.2381,6.2381,6.2347,6.1603,6.1434,6.1535,6.052,6.0419,6.0926,6.0588,6.096,6.1748,6.2096,6.2706,6.3231,5.3054,5.2965,5.2755,5.2606,5.2486,5.2366,5.2217,5.2306,5.2396,5.2396,5.2067,5.1648,5.1259,5.1229,5.096,5.0301,5.0002,4.9404,4.8356,4.8297,4.7997,4.7339,4.7309,4.7309,4.7309,4.7309,4.7309,4.7309,4.7309,4.7309,4.7309,4.7309,4.7309,4.7309,4.7309,4.7309,4.7309,4.7309,4.7309,4.7309,4.7309,4.7309,4.7309,4.7309,4.7309,4.7309,4.7309,4.7309,4.7309,4.7309,4.7309,4.7309,4.7309,4.7309,4.7309,4.7309,4.7309,4.7369,4.7608,4.7489,4.7429,4.7967,4.7698,4.7309,4.7309,4.8255,4.9151,4.8872,4.9353,4.9864,5.0105,4.9724,5.001,5.1826,5.2655,5.3573,5.5204,5.5852,5.6427,5.7137,5.7239,5.7408,5.7848,5.7881,5.8017,5.8321,5.9438,6.025,6.0554,6.1738,6.2381,6.2381,6.2381,6.2381,6.2381,6.2381,6.2381,6.2381,6.2381,6.2381,6.2381,6.2381,6.2381,6.2381,6.1907,6.1738,6.1704,6.1197,6.1129,6.1298,6.1095,6.14,6.2019,6.2358,6.3048,6.3577,5.2875,5.2516,5.2306,5.2905,5.2007,5.1409,5.1947,5.1558,5.1199,5.1139,5.1139,5.1109,5.105,5.105,5.078,5.0122,4.9523,4.8895,4.8237,4.8207,4.7938,4.7339,4.7309,4.7309,4.7309,4.7309,4.7309,4.7309,4.7309,4.7309,4.7309,4.7309,4.7309,4.7309,4.7309,4.7309,4.7309,4.7309,4.7309,4.7309,4.7309,4.7309,4.7309,4.7309,4.7309,4.7309,4.7309,4.7309,4.7309,4.7309,4.7309,4.7309,4.7309,4.7309,4.7309,4.7309,4.7309,4.7429,4.8027,4.7758,4.7578,4.8805,4.8237,4.7399,4.7459,4.8627,4.9603,4.8986,5.0147,5.0911,5.0009,5.0294,5.1005,5.2412,5.3008,5.411,5.6453,5.6867,5.7137,5.7814,5.7881,5.7881,5.7881,5.7949,5.8287,5.8964,5.9742,6.052,6.1264,6.2009,6.2381,6.2381,6.2381,6.2381,6.2381,6.2381,6.2381,6.2381,6.2381,6.2381,6.2381,6.2381,6.2381,6.2381,6.2381,6.2381,6.2381,6.2381,6.2009,6.1467,6.2144,6.1975,6.1467,6.2222,6.3015,6.347,5.1618,5.1528,5.1468,5.1618,5.1409,5.1079,5.072,5.099,5.102,5.0511,5.0451,5.0242,4.9733,4.9703,4.9434,4.8775,4.8566,4.8207,4.7549,4.7519,4.7459,4.7309,4.7309,4.7309,4.7309,4.7309,4.7309,4.7309,4.7309,4.7309,4.7309,4.7309,4.7309,4.7309,4.7309,4.7309,4.7309,4.7309,4.7309,4.7309,4.7309,4.7309,4.7309,4.7309,4.7309,4.7309,4.7309,4.7309,4.7309,4.7309,4.7309,4.7309,4.7309,4.7309,4.7309,4.7309,4.7309,4.7339,4.7489,4.7429,4.7369,4.7668,4.7908,4.8207,4.8716,4.9104,4.9342,4.9191,4.9516,4.9927,5.0468,5.1398,5.2441,5.3509,5.4981,5.6179,5.6765,5.7306,5.7712,5.7881,5.7881,5.7881,5.7881,5.8423,5.8829,5.8998,6.0283,6.1129,6.1298,6.2009,6.2381,6.2381,6.2381,6.2381,6.2381,6.2381,6.2381,6.2381,6.2381,6.2381,6.2381,6.2381,6.2381,6.2381,6.2381,6.2381,6.2381,6.2381,6.2313,6.2178,6.2347,6.2279,6.2222,6.3131,6.3194,6.2645,5.1229,5.1229,5.1229,5.1229,5.1229,5.099,5.0331,5.0541,5.0511,4.9853,4.9763,4.9643,4.9284,4.9254,4.9015,4.8356,4.7997,4.7668,4.7339,4.7309,4.7309,4.7309,4.7309,4.7309,4.7309,4.7309,4.7309,4.7309,4.7309,4.7309,4.7309,4.7309,4.7309,4.7309,4.7309,4.7309,4.7309,4.7309,4.7309,4.7309,4.7309,4.7309,4.7309,4.7309,4.7309,4.7309,4.7309,4.7309,4.7309,4.7309,4.7309,4.7309,4.7309,4.7309,4.7309,4.7309,4.7309,4.7369,4.7698,4.7788,4.7848,4.8147,4.8716,4.9134,4.8865,4.9284,4.9643,4.9344,4.9913,5.0717,5.1178,5.2377,5.3649,5.4876,5.601,5.6934,5.7273,5.7645,5.7881,5.7881,5.7881,5.8017,5.8389,5.9099,5.9674,6.008,6.0858,6.1467,6.1806,6.2178,6.2381,6.2381,6.2381,6.2381,6.2381,6.2381,6.2381,6.2381,6.2381,6.2381,6.2381,6.2381,6.2381,6.2381,6.2381,6.2381,6.2381,6.2381,6.2381,6.2381,6.2381,6.2381,6.2425,6.2522,6.2096,6.1273,5.1229,5.1139,5.1079,5.1199,5.102,5.069,5.0152,5.0062,4.9853,4.9194,4.9105,4.9105,4.9105,4.9015,4.8716,4.8177,4.7608,4.7309,4.7309,4.7309,4.7309,4.7309,4.7309,4.7309,4.7309,4.7309,4.7309,4.7309,4.7309,4.7309,4.7309,4.7309,4.7309,4.7309,4.7309,4.7309,4.7309,4.7309,4.7309,4.7309,4.7309,4.7309,4.7309,4.7309,4.7309,4.7309,4.7309,4.7309,4.7309,4.7309,4.7309,4.7309,4.7309,4.7309,4.7309,4.7309,4.7309,4.7459,4.8117,4.8297,4.8446,4.9105,4.9763,4.9942,4.8865,4.9553,5.0242,4.9703,5.0934,5.2064,5.2064,5.3375,5.482,5.6006,5.6612,5.7205,5.7814,5.7881,5.7881,5.7881,5.8017,5.8389,5.9133,5.9877,6.0588,6.1264,6.1434,6.1738,6.2347,6.2381,6.2381,6.2381,6.2381,6.2381,6.2381,6.2381,6.2381,6.2381,6.2381,6.2381,6.2381,6.2381,6.2381,6.2381,6.2381,6.2381,6.2381,6.2381,6.2381,6.2381,6.2245,6.2212,6.211,6.1231,6.0486,5.981,5.1229,5.075,5.0541,5.1109,5.0272,4.9494,4.9404,4.9404,4.9164,4.8506,4.8416,4.8416,4.8416,4.7908,4.7549,4.7429,4.7369,4.7309,4.7309,4.7309,4.7309,4.7309,4.7309,4.7309,4.7309,4.7309,4.7309,4.7309,4.7309,4.7309,4.7309,4.7309,4.7309,4.7309,4.7309,4.7309,4.7309,4.7309,4.7309,4.7309,4.7309,4.7309,4.7309,4.7309,4.7309,4.7309,4.7309,4.7309,4.7309,4.7309,4.7309,4.7309,4.7309,4.7309,4.7309,4.7309,4.7309,4.7459,4.8117,4.8297,4.8446,4.9105,4.9763,5.0182,5.0002,5.0541,5.105,5.096,5.1941,5.2776,5.2776,5.4498,5.5973,5.6171,5.7047,5.778,5.7881,5.7881,5.7881,5.7881,5.8457,5.9167,5.9877,6.0689,6.1197,6.1298,6.1873,6.2279,6.2381,6.2381,6.2381,6.2381,6.2381,6.2381,6.2381,6.2381,6.2381,6.2381,6.2381,6.2381,6.2381,6.2381,6.2381,6.2381,6.2381,6.2381,6.2381,6.2381,6.2381,6.2347,6.1704,6.1467,6.1264,5.9844,5.9268,5.9066,5.0661,5.0421,5.0212,5.0152,4.9942,4.9553,4.8835,4.9045,4.8895,4.7878,4.7728,4.7728,4.7728,4.7489,4.7309,4.7309,4.7309,4.7309,4.7309,4.7309,4.7309,4.7309,4.7309,4.7309,4.7309,4.7309,4.7309,4.7309,4.7309,4.7309,4.7309,4.7309,4.7309,4.7309,4.7309,4.7309,4.7309,4.7309,4.7309,4.7309,4.7309,4.7309,4.7309,4.7309,4.7309,4.7309,4.7309,4.7309,4.7309,4.7309,4.7309,4.7309,4.7309,4.7309,4.7309,4.7309,4.7578,4.7908,4.8207,4.8805,4.9374,4.9284,5.0032,5.069,5.0331,5.075,5.1229,5.1229,5.2664,5.3828,5.3828,5.5651,5.7114,5.7114,5.7554,5.7881,5.7881,5.8254,5.866,5.9066,5.981,6.0419,6.0757,6.1467,6.1907,6.1907,6.2212,6.2381,6.2381,6.2381,6.2381,6.2381,6.2381,6.2381,6.2381,6.2381,6.2381,6.2381,6.2381,6.2381,6.2381,6.2381,6.2381,6.2381,6.2381,6.2381,6.2381,6.2381,6.2381,6.2313,6.1603,6.0791,5.9945,5.9268,5.8761,5.8355]},{"header":{"parameterUnit":"m.s-1","parameterCategory":1,"la1":30.6,"la2":28.766,"lo1":-90.7593,"lo2":-88.6598,"dy":0.0162,"dx":0.0183,"nx":116,"ny":114,"refTime":"2023-04-08T00:00:00:Z","depth":0,"parameterNumber":3,"parameterNumberName":"V-component_of_WINDS"},"data":[0.0,0.0,0.0,0.0,0.0,0.0,0.0,0.0,0.0,0.0,0.0,0.0,0.0,0.0,0.0,0.0,0.0,0.0,0.0,0.0,0.0,0.0,0.0,0.0,0.0,0.0,0.0,0.0,0.0,0.0,0.0,0.0,0.0,0.0,0.0,0.0,0.0,0.0,0.0,0.0,0.0,0.0,0.0,0.0,0.0,0.0,0.0,0.0,0.0,0.0,0.0,0.0,0.0,0.0,0.0,0.0,0.0,0.0,0.0,0.0,0.0,0.0,0.0,0.0,0.0,0.0,0.0,0.0,0.0,0.0,0.0,0.0,0.0,0.0,0.0,0.0,0.0,0.0,0.0,0.0,0.0,0.0,0.0,0.0,0.0,0.0,0.0,0.0,0.0,0.0,0.0,0.0,0.0,0.0,0.0,0.0,0.0,0.0,0.0,0.0,0.0,0.0,0.0,0.0,0.0,0.0,0.0,0.0,0.0,0.0,0.0,0.0,0.0,0.0,0.0,0.0,0.0,0.0,0.0,0.0,0.0,0.0,0.0,0.0,0.0,0.0,0.0,0.0,0.0,0.0,0.0,0.0,0.0,0.0,0.0,0.0,0.0,0.0,0.0,0.0,0.0,0.0,0.0,0.0,0.0,0.0,0.0,0.0,0.0,0.0,0.0,0.0,0.0,0.0,0.0,0.0,0.0,0.0,0.0,0.0,0.0,0.0,0.0,0.0,0.0,0.0,0.0,0.0,0.0,0.0,0.0,0.0,0.0,0.0,0.0,0.0,0.0,0.0,0.0,0.0,0.0,0.0,0.0,0.0,0.0,0.0,0.0,0.0,0.0,0.0,0.0,0.0,0.0,0.0,0.0,0.0,0.0,0.0,0.0,0.0,0.0,0.0,0.0,0.0,0.0,0.0,0.0,0.0,0.0,0.0,0.0,0.0,0.0,0.0,0.0,0.0,0.0,0.0,0.0,0.0,0.0,0.0,0.0,0.0,0.0,0.0,0.0,0.0,0.0,0.0,0.0,0.0,0.0,0.0,0.0,0.0,0.0,0.0,0.0,0.0,0.0,0.0,0.0,0.0,0.0,0.0,0.0,0.0,0.0,0.0,0.0,0.0,0.0,0.0,0.0,0.0,0.0,0.0,0.0,0.0,0.0,0.0,0.0,0.0,0.0,0.0,0.0,0.0,0.0,0.0,0.0,0.0,0.0,0.0,0.0,0.0,0.0,0.0,0.0,0.0,0.0,0.0,0.0,0.0,0.0,0.0,0.0,0.0,0.0,0.0,0.0,0.0,0.0,0.0,0.0,0.0,0.0,0.0,0.0,0.0,0.0,0.0,0.0,0.0,0.0,0.0,0.0,0.0,0.0,0.0,0.0,0.0,0.0,0.0,0.0,0.0,0.0,0.0,0.0,0.0,0.0,0.0,0.0,0.0,0.0,0.0,0.0,0.0,0.0,0.0,0.0,0.0,0.0,0.0,0.0,0.0,0.0,0.0,0.0,0.0,0.0,0.0,0.0,0.0,0.0,0.0,0.0,0.0,0.0,0.0,0.0,0.0,0.0,0.0,0.0,0.0,0.0,0.0,0.0,0.0,0.0,0.0,0.0,0.0,0.0,0.0,0.0,0.0,0.0,0.0,0.0,0.0,0.0,0.0,0.0,0.0,0.0,0.0,0.0,0.0,0.0,0.0,0.0,0.0,0.0,0.0,0.0,0.0,0.0,0.0,0.0,0.0,0.0,0.0,0.0,0.0,0.0,0.0,0.0,0.0,0.0,0.0,0.0,0.0,0.0,0.0,0.0,0.0,0.0,0.0,0.0,0.0,0.0,0.0,0.0,0.0,0.0,0.0,0.0,0.0,0.0,0.0,0.0,0.0,0.0,0.0,0.0,0.0,0.0,0.0,0.0,0.0,0.0,0.0,0.0,0.0,0.0,0.0,0.0,0.0,0.0,0.0,0.0,0.0,0.0,0.0,0.0,0.0,0.0,0.0,0.0,0.0,0.0,0.0,0.0,0.0,0.0,0.0,0.0,0.0,0.0,0.0,0.0,0.0,0.0,0.0,0.0,0.0,0.0,0.0,0.0,0.0,0.0,0.0,0.0,0.0,0.0,0.0,0.0,0.0,0.0,0.0,0.0,0.0,0.0,0.0,0.0,0.0,0.0,0.0,0.0,0.0,0.0,0.0,0.0,0.0,0.0,0.0,0.0,0.0,0.0,0.0,0.0,0.0,0.0,0.0,0.0,0.0,0.0,0.0,0.0,0.0,0.0,0.0,0.0,0.0,0.0,0.0,0.0,0.0,0.0,0.0,0.0,0.0,0.0,0.0,0.0,0.0,0.0,0.0,0.0,0.0,0.0,0.0,0.0,0.0,0.0,0.0,0.0,0.0,0.0,0.0,0.0,0.0,0.0,0.0,0.0,0.0,0.0,0.0,0.0,0.0,0.0,0.0,0.0,0.0,0.0,0.0,0.0,0.0,0.0,0.0,0.0,0.0,0.0,0.0,0.0,0.0,0.0,0.0,0.0,0.0,0.0,0.0,0.0,0.0,0.0,0.0,0.0,0.0,0.0,0.0,0.0,0.0,0.0,0.0,0.0,0.0,0.0,0.0,0.0,0.0,0.0,0.0,0.0,0.0,0.0,0.0,0.0,0.0,0.0,0.0,0.0,0.0,0.0,0.0,0.0,0.0,0.0,0.0,0.0,0.0,0.0,0.0,0.0,0.0,0.0,0.0,0.0,0.0,0.0,0.0,0.0,0.0,0.0,0.0,0.0,0.0,0.0,0.0,0.0,0.0,0.0,0.0,0.0,0.0,0.0,0.0,0.0,0.0,0.0,0.0,0.0,0.0,0.0,0.0,0.0,0.0,0.0,0.0,0.0,0.0,0.0,0.0,0.0,0.0,0.0,0.0,0.0,0.0,0.0,0.0,0.0,0.0,0.0,0.0,0.0,0.0,0.0,0.0,0.0,0.0,0.0,0.0,0.0,0.0,0.0,0.0,0.0,0.0,0.0,0.0,0.0,0.0,0.0,0.0,0.0,0.0,0.0,0.0,0.0,0.0,0.0,0.0,0.0,0.0,0.0,0.0,0.0,0.0,0.0,0.0,0.0,0.0,0.0,0.0,0.0,0.0,0.0,0.0,0.0,0.0,0.0,0.0,0.0,0.0,0.0,0.0,0.0,0.0,0.0,0.0,0.0,0.0,0.0,0.0,0.0,0.0,0.0,0.0,0.0,0.0,0.0,0.0,0.0,0.0,0.0,0.0,0.0,0.0,0.0,0.0,0.0,0.0,0.0,0.0,0.0,0.0,0.0,0.0,0.0,0.0,0.0,0.0,0.0,0.0,0.0,0.0,0.0,0.0,0.0,0.0,0.0,0.0,0.0,0.0,0.0,0.0,0.0,0.0,0.0,0.0,0.0,0.0,0.0,0.0,0.0,0.0,0.0,0.0,0.0,0.0,0.0,0.0,0.0,0.0,0.0,0.0,0.0,0.0,0.0,0.0,0.0,0.0,0.0,0.0,0.0,0.0,0.0,0.0,0.0,0.0,0.0,0.0,0.0,0.0,0.0,0.0,0.0,0.0,0.0,0.0,0.0,0.0,0.0,0.0,0.0,0.0,0.0,0.0,0.0,0.0,0.0,0.0,0.0,0.0,0.0,0.0,0.0,0.0,0.0,0.0,0.0,0.0,0.0,0.0,0.0,0.0,0.0,0.0,0.0,0.0,0.0,0.0,0.0,0.0,0.0,0.0,0.0,0.0,0.0,0.0,0.0,0.0,0.0,0.0,0.0,0.0,0.0,0.0,0.0,0.0,0.0,0.0,0.0,0.0,0.0,0.0,0.0,0.0,0.0,0.0,0.0,0.0,0.0,0.0,0.0,0.0,0.0,0.0,0.0,0.0,0.0,0.0,0.0,0.0,0.0,0.0,0.0,0.0,0.0,0.0,0.0,0.0,0.0,0.0,0.0,0.0,0.0,0.0,0.0,0.0,0.0,0.0,0.0,0.0,0.0,0.0,0.0,0.0,0.0,0.0,0.0,0.0,0.0,0.0,0.0,0.0,0.0,0.0,0.0,0.0,0.0,0.0,0.0,0.0,0.0,0.0,0.0,0.0,0.0,0.0,0.0,0.0,0.0,0.0,0.0,0.0,0.0,0.0,0.0,0.0,0.0,0.0,0.0,0.0,0.0,0.0,0.0,0.0,0.0,0.0,0.0,0.0,0.0,0.0,0.0,0.0,0.0,0.0,0.0,0.0,0.0,0.0,0.0,0.0,0.0,0.0,0.0,0.0,0.0,0.0,0.0,0.0,0.0,0.0,0.0,0.0,0.0,0.0,0.0,0.0,0.0,0.0,0.0,0.0,0.0,0.0,0.0,0.0,0.0,0.0,0.0,0.0,0.0,0.0,0.0,0.0,0.0,0.0,0.0,0.0,0.0,0.0,0.0,0.0,0.0,0.0,0.0,0.0,0.0,0.0,0.0,0.0,0.0,0.0,0.0,0.0,0.0,0.0,0.0,0.0,0.0,0.0,0.0,0.0,0.0,0.0,0.0,0.0,0.0,0.0,0.0,0.0,0.0,0.0,0.0,0.0,0.0,0.0,0.0,0.0,0.0,0.0,0.0,0.0,0.0,0.0,0.0,0.0,0.0,0.0,0.0,0.0,0.0,0.0,0.0,0.0,0.0,0.0,0.0,0.0,0.0,0.0,0.0,0.0,0.0,0.0,0.0,0.0,0.0,0.0,0.0,0.0,0.0,0.0,0.0,0.0,0.0,0.0,0.0,0.0,0.0,0.0,0.0,0.0,0.0,0.0,0.0,0.0,0.0,0.0,0.0,0.0,0.0,0.0,0.0,0.0,0.0,0.0,0.0,0.0,0.0,0.0,0.0,0.0,0.0,0.0,0.0,0.0,0.0,0.0,0.0,0.0,0.0,0.0,0.0,0.0,0.0,0.0,0.0,0.0,0.0,0.0,0.0,0.0,0.0,0.0,0.0,0.0,0.0,0.0,0.0,0.0,0.0,0.0,0.0,0.0,0.0,0.0,0.0,0.0,0.0,0.0,0.0,0.0,0.0,0.0,0.0,0.0,0.0,0.0,0.0,0.0,0.0,0.0,0.0,0.0,0.0,0.0,0.0,0.0,0.0,0.0,0.0,0.0,0.0,0.0,0.0,0.0,0.0,0.0,0.0,0.0,0.0,0.0,0.0,0.0,0.0,0.0,0.0,0.0,0.0,0.0,0.0,0.0,0.0,0.0,0.0,0.0,0.0,0.0,0.0,0.0,0.0,0.0,0.0,0.0,0.0,0.0,0.0,0.0,0.0,0.0,0.0,0.0,0.0,0.0,0.0,0.0,0.0,0.0,0.0,0.0,0.0,0.0,0.0,0.0,0.0,0.0,0.0,0.0,0.0,0.0,0.0,0.0,0.0,0.0,0.0,0.0,0.0,0.0,0.0,0.0,0.0,0.0,0.0,0.0,0.0,0.0,0.0,0.0,0.0,0.0,0.0,0.0,0.0,0.0,0.0,0.0,0.0,0.0,0.0,0.0,0.0,0.0,0.0,0.0,0.0,0.0,0.0,0.0,0.0,0.0,0.0,0.0,0.0,0.0,0.0,0.0,0.0,0.0,0.0,0.0,0.0,0.0,0.0,0.0,0.0,0.0,0.0,0.0,0.0,0.0,0.0,0.0,0.0,0.0,0.0,0.0,0.0,0.0,0.0,0.0,0.0,0.0,0.0,0.0,0.0,0.0,0.0,0.0,0.0,0.0,0.0,0.0,0.0,0.0,0.0,0.0,0.0,0.0,0.0,0.0,0.0,0.0,0.0,0.0,0.0,0.0,0.0,0.0,0.0,0.0,0.0,0.0,0.0,0.0,0.0,0.0,0.0,0.0,0.0,0.0,0.0,0.0,0.0,0.0,0.0,0.0,0.0,0.0,0.0,0.0,0.0,0.0,0.0,0.0,0.0,0.0,0.0,0.0,0.0,0.0,0.0,0.0,0.0,0.0,0.0,0.0,0.0,0.0,0.0,0.0,0.0,0.0,0.0,0.0,0.0,0.0,0.0,0.0,0.0,0.0,0.0,0.0,0.0,0.0,0.0,0.0,2.7447,0.0,0.0,0.0,0.0,0.0,0.0,0.0,0.0,0.0,0.0,0.0,0.0,0.0,0.0,0.0,0.0,0.0,0.0,0.0,0.0,0.0,0.0,0.0,0.0,0.0,0.0,0.0,0.0,0.0,0.0,0.0,0.0,0.0,0.0,0.0,0.0,0.0,0.0,0.0,3.2807,3.1428,2.99,3.0381,3.0139,2.9402,0.0,0.0,0.0,0.0,0.0,0.0,0.0,0.0,0.0,0.0,0.0,0.0,0.0,0.0,0.0,0.0,0.0,0.0,0.0,0.0,0.0,0.0,0.0,0.0,0.0,0.0,0.0,0.0,0.0,0.0,0.0,0.0,0.0,0.0,0.0,0.0,0.0,0.0,0.0,0.0,0.0,0.0,0.0,0.0,0.0,0.0,0.0,0.0,0.0,0.0,0.0,0.0,0.0,0.0,0.0,0.0,0.0,0.0,0.0,0.0,0.0,0.0,0.0,0.0,0.0,0.0,0.0,0.0,0.0,0.0,0.0,2.9899,0.0,0.0,0.0,0.0,0.0,0.0,0.0,0.0,0.0,0.0,0.0,0.0,0.0,0.0,0.0,0.0,0.0,0.0,0.0,0.0,0.0,0.0,0.0,0.0,3.1958,3.2617,3.3185,3.3784,0.0,0.0,0.0,0.0,0.0,0.0,0.0,0.0,0.0,0.0,3.2556,3.1496,3.0843,3.052,3.0156,2.9804,3.1035,0.0,0.0,0.0,0.0,0.0,0.0,0.0,0.0,0.0,0.0,0.0,0.0,0.0,0.0,0.0,0.0,0.0,0.0,0.0,0.0,0.0,0.0,0.0,0.0,0.0,0.0,0.0,0.0,0.0,0.0,0.0,0.0,0.0,0.0,0.0,0.0,0.0,0.0,0.0,0.0,0.0,0.0,0.0,0.0,0.0,0.0,0.0,0.0,0.0,0.0,0.0,0.0,0.0,0.0,0.0,0.0,0.0,0.0,0.0,0.0,0.0,0.0,0.0,3.4636,3.6219,3.9186,3.9196,3.9105,3.8688,3.6557,3.4797,3.3706,3.4142,0.0,0.0,0.0,0.0,0.0,0.0,0.0,0.0,0.0,0.0,0.0,0.0,0.0,0.0,0.0,0.0,0.0,0.0,0.0,0.0,0.0,3.2377,3.2647,3.3305,3.3455,3.3784,0.0,0.0,0.0,0.0,0.0,0.0,0.0,3.461,3.4109,3.4013,3.26,3.2228,3.2769,3.2701,3.2867,3.3144,3.1044,3.0842,3.2047,0.0,0.0,0.0,0.0,0.0,0.0,0.0,0.0,0.0,0.0,0.0,0.0,0.0,0.0,0.0,0.0,0.0,0.0,0.0,0.0,0.0,0.0,0.0,0.0,0.0,0.0,0.0,0.0,0.0,0.0,0.0,0.0,0.0,0.0,0.0,0.0,0.0,0.0,0.0,0.0,0.0,3.1562,3.2039,0.0,0.0,0.0,0.0,0.0,0.0,0.0,0.0,0.0,0.0,0.0,0.0,0.0,3.3901,3.6185,3.7698,3.8608,3.8948,4.0195,4.0637,4.0479,4.1966,4.2975,4.3479,4.4249,0.0,3.7187,3.6319,0.0,0.0,0.0,0.0,0.0,0.0,0.0,0.0,0.0,0.0,0.0,0.0,0.0,0.0,0.0,0.0,0.0,0.0,0.0,0.0,0.0,3.3185,3.3724,3.4023,3.54,3.5908,3.51,0.0,0.0,0.0,0.0,0.0,3.4677,3.4245,3.3804,3.332,3.3858,3.455,3.5402,3.5889,3.6182,3.6088,3.4371,3.3322,3.2667,3.2561,0.0,0.0,0.0,0.0,0.0,0.0,0.0,0.0,0.0,0.0,0.0,0.0,0.0,0.0,0.0,0.0,0.0,0.0,0.0,0.0,0.0,0.0,0.0,0.0,0.0,0.0,0.0,0.0,0.0,0.0,0.0,0.0,0.0,0.0,0.0,0.0,0.0,0.0,0.0,3.266,3.3293,3.2757,3.3843,3.3621,0.0,0.0,0.0,0.0,0.0,0.0,0.0,0.0,0.0,3.4532,3.711,3.8105,3.7583,4.0416,4.2339,4.364,4.4196,4.5443,4.707,4.7537,4.809,4.8713,4.8957,4.7358,4.4265,4.0837,3.8755,3.7559,0.0,0.0,0.0,0.0,3.44,3.445,0.0,0.0,0.0,0.0,0.0,0.0,0.0,0.0,0.0,0.0,0.0,0.0,3.3634,3.4502,3.534,3.6178,3.7734,3.8033,3.6596,3.7225,0.0,0.0,0.0,3.461,3.3671,3.3847,3.4038,3.4228,3.6008,3.745,3.8601,3.9781,3.9798,3.8801,3.8176,3.6389,3.3847,3.2842,3.2064,3.1411,0.0,0.0,0.0,0.0,0.0,0.0,0.0,0.0,0.0,0.0,0.0,0.0,0.0,0.0,0.0,0.0,0.0,0.0,0.0,0.0,0.0,0.0,0.0,0.0,0.0,0.0,0.0,0.0,0.0,0.0,0.0,0.0,0.0,0.0,0.0,0.0,0.0,3.4053,3.4795,3.3458,3.5083,3.5304,0.0,0.0,0.0,0.0,0.0,0.0,3.6036,3.6534,3.7188,3.8199,4.1859,4.3044,4.1383,4.4484,4.6786,4.8391,4.8537,5.0136,5.2729,5.2302,5.2352,5.2703,5.2151,5.1348,5.0012,4.5208,4.2238,4.0434,3.7752,3.6668,3.6622,3.7376,3.7929,3.8459,0.0,0.0,0.0,0.0,0.0,0.0,0.0,0.0,0.0,0.0,0.0,3.2287,3.6686,3.6686,3.7644,4.0756,4.0008,3.932,3.923,3.6985,3.5452,3.5045,3.4427,3.3602,3.2664,3.3346,3.513,3.8113,3.9336,4.0675,4.2419,4.4272,4.3748,4.114,4.1328,3.9485,3.6056,3.3922,3.3294,3.3596,3.1989,0.0,0.0,0.0,0.0,0.0,0.0,0.0,0.0,0.0,0.0,0.0,0.0,0.0,0.0,0.0,0.0,0.0,0.0,0.0,0.0,0.0,0.0,0.0,0.0,0.0,0.0,0.0,0.0,0.0,0.0,0.0,0.0,0.0,0.0,0.0,0.0,0.0,0.0,3.3997,3.7139,0.0,0.0,0.0,0.0,3.5069,3.6744,3.809,3.8918,4.0144,4.2256,4.5247,4.6607,4.8464,5.1295,5.2616,5.3192,5.3318,5.3869,5.4336,5.4436,5.4411,5.4411,5.4411,5.3833,5.3256,5.2452,4.8434,4.6781,4.6384,4.3216,4.2712,4.3525,4.307,4.3238,4.3644,0.0,0.0,0.0,0.0,0.0,0.0,0.0,0.0,3.2258,3.2467,3.3933,3.5908,3.8422,4.0397,4.2162,4.3748,4.3868,4.315,4.1414,3.9077,3.7099,3.5697,3.4299,3.3652,3.3858,3.4115,3.603,3.9522,4.1802,4.3394,4.4402,4.6767,4.6498,4.3894,4.3968,4.2708,4.0161,3.6726,3.4474,3.3294,3.2315,3.1486,0.0,0.0,0.0,0.0,0.0,0.0,0.0,0.0,0.0,0.0,0.0,0.0,0.0,0.0,0.0,0.0,0.0,0.0,0.0,0.0,0.0,0.0,0.0,0.0,0.0,0.0,0.0,0.0,0.0,0.0,0.0,0.0,0.0,0.0,0.0,0.0,0.0,3.917,4.1706,0.0,3.8851,3.8431,3.8755,3.9504,3.9755,4.1532,4.567,4.6347,4.7519,4.9551,5.1467,5.2607,5.2938,5.4166,5.4963,5.5315,5.5516,5.5817,5.6143,5.5792,5.5616,5.5591,5.5039,5.4486,5.3884,5.2477,5.0444,4.8058,4.6093,4.5476,4.5599,4.6069,4.6612,4.7107,0.0,0.0,0.0,0.0,0.0,0.0,0.0,0.0,3.2587,3.2826,3.5519,3.8332,4.0816,4.3599,4.5933,4.7489,4.704,4.5813,4.3838,4.0305,3.7584,3.5923,3.4032,3.3833,3.5579,3.6482,3.9017,4.3245,4.5204,4.6532,4.7319,4.9134,4.8441,4.5799,4.5898,4.4813,4.2787,3.9829,3.6985,3.4374,3.3244,3.2667,3.239,0.0,0.0,0.0,0.0,0.0,0.0,0.0,0.0,0.0,0.0,0.0,0.0,0.0,0.0,0.0,0.0,0.0,0.0,0.0,0.0,0.0,0.0,0.0,0.0,0.0,0.0,0.0,0.0,0.0,0.0,0.0,0.0,0.0,0.0,0.0,4.2183,4.2911,4.5121,4.561,4.2904,4.2732,4.3272,4.4522,4.4876,4.6843,5.0989,5.164,5.24,5.335,5.5135,5.5582,5.4908,5.5806,5.642,5.6771,5.6771,5.6972,5.7323,5.6947,5.6671,5.647,5.5917,5.5365,5.4838,5.4637,5.2929,5.0368,4.964,4.9012,4.8636,4.9339,4.9841,5.0193,0.0,0.0,0.0,0.0,0.0,0.0,0.0,3.2108,3.2796,3.3455,3.5938,3.9349,4.3928,4.6292,4.8835,5.2037,4.9314,4.71,4.6411,4.048,3.655,3.5537,3.3427,3.4067,3.7872,4.0108,4.3973,4.9542,4.9415,4.9952,5.1106,5.1254,4.9781,4.7123,4.7179,4.5929,4.3929,4.335,4.0827,3.7186,3.4926,3.4324,3.465,0.0,0.0,0.0,0.0,0.0,0.0,0.0,0.0,0.0,0.0,0.0,0.0,0.0,0.0,0.0,0.0,0.0,0.0,0.0,0.0,0.0,0.0,0.0,0.0,0.0,0.0,0.0,0.0,0.0,0.0,0.0,0.0,0.0,3.8868,4.2308,4.4744,4.4819,4.728,4.8109,4.5974,4.7707,4.9213,4.9741,5.2251,5.4034,5.4637,5.5691,5.652,5.7097,5.7097,5.7374,5.7951,5.7926,5.7926,5.7951,5.7951,5.7951,5.7951,5.7951,5.7625,5.7047,5.6495,5.5942,5.539,5.4838,5.4285,5.3758,5.3708,5.3381,5.2929,5.2929,5.2929,5.2854,0.0,0.0,0.0,0.0,0.0,0.0,0.0,3.2497,3.3634,3.4801,3.932,4.3629,4.683,5.069,5.3593,5.497,5.1618,4.8745,4.713,4.0567,3.5861,3.3887,3.4585,3.7095,4.1416,4.3518,4.6616,5.0846,5.0616,5.0789,5.1135,5.2171,5.1912,5.0622,4.907,4.8324,4.8053,4.4934,4.2961,4.1681,3.8241,3.6483,3.5705,0.0,0.0,0.0,0.0,0.0,0.0,0.0,0.0,0.0,0.0,0.0,0.0,0.0,0.0,0.0,0.0,0.0,0.0,0.0,0.0,0.0,0.0,0.0,0.0,0.0,0.0,0.0,0.0,0.0,0.0,0.0,0.0,4.2534,4.2459,4.507,4.7606,4.9264,5.1548,5.2729,5.2126,5.298,5.3632,5.3783,5.4863,5.5942,5.6922,5.7273,5.7851,5.878,5.8453,5.8504,5.9056,5.8679,5.8679,5.9056,5.9056,5.9056,5.9056,5.9056,5.8755,5.8227,5.7675,5.7123,5.6545,5.5993,5.544,5.4838,5.4009,5.3381,5.2929,5.2929,5.2929,5.2904,0.0,0.0,0.0,0.0,0.0,0.0,0.0,3.186,3.3431,3.4824,4.062,4.5753,4.8416,5.2336,5.494,5.5329,5.1977,4.8567,4.5661,3.9671,3.5762,3.4736,3.6955,4.0529,4.5635,4.7559,5.0241,5.3715,5.3349,5.3349,5.3583,5.3952,5.3757,5.3271,5.1626,5.071,4.9897,4.7571,4.5959,4.4995,4.2484,4.04,3.8542,3.6332,3.5855,3.6157,3.4776,3.4977,3.5629,3.3847,0.0,0.0,0.0,0.0,0.0,0.0,0.0,0.0,0.0,0.0,0.0,0.0,0.0,0.0,0.0,0.0,0.0,0.0,0.0,0.0,0.0,0.0,0.0,0.0,4.4116,4.7004,4.7832,4.9138,5.0745,5.2754,5.4336,5.5265,5.5265,5.5968,5.6344,5.6093,5.7223,5.8127,5.8554,5.9006,5.9558,6.0186,5.991,5.9885,6.0186,5.991,5.9784,5.9834,5.9834,5.9709,5.9483,5.9483,5.9207,5.8679,5.8127,5.7575,5.6997,5.6445,5.5892,0.0,0.0,0.0,0.0,0.0,5.2929,5.2929,0.0,0.0,0.0,0.0,0.0,0.0,0.0,3.0864,3.2789,3.4341,4.0808,4.6292,4.8865,5.2127,5.4102,5.4102,5.105,4.7288,4.2909,3.8448,3.6449,3.7524,4.0521,4.4803,5.0261,5.2093,5.4391,5.7334,5.6615,5.6585,5.7184,5.6047,5.5486,5.5365,5.4569,5.3023,5.1029,5.0618,4.9421,4.7576,4.6924,4.492,4.2208,4.0124,3.9572,3.9672,3.804,3.7236,3.6734,3.5504,0.0,0.0,0.0,0.0,0.0,0.0,0.0,0.0,0.0,0.0,0.0,0.0,0.0,0.0,0.0,0.0,0.0,0.0,0.0,0.0,0.0,0.0,0.0,0.0,4.7983,5.1071,5.3708,5.3833,5.4135,5.5415,5.6168,5.657,5.657,5.76,5.8052,5.7549,5.9307,6.0236,5.9809,0.0,0.0,0.0,0.0,6.119,6.119,6.119,6.0914,6.0412,6.0412,6.0136,5.9583,5.9583,5.9307,5.878,5.8227,5.765,5.7072,5.647,5.5892,5.5365,5.5239,5.4561,5.3557,5.3105,5.2929,5.2929,0.0,0.0,0.0,0.0,0.0,0.0,0.0,3.1272,3.3303,3.6348,4.1756,4.6112,4.8237,5.1409,5.3384,5.3384,5.0361,4.6432,4.1555,3.9116,3.9038,4.1603,4.6392,5.0616,5.411,5.5984,5.757,5.871,5.7513,5.7274,5.7932,5.7663,5.7856,5.8248,5.6945,5.5992,5.5395,5.2442,5.1144,5.0969,4.9113,4.6627,4.3991,4.2685,4.1706,4.0852,3.9647,3.9722,4.0074,3.8065,3.8216,3.8894,3.686,0.0,0.0,0.0,0.0,0.0,0.0,0.0,0.0,0.0,0.0,0.0,0.0,0.0,0.0,0.0,0.0,0.0,0.0,0.0,0.0,4.7933,5.1423,5.426,5.6118,5.7449,5.7851,5.6821,5.7976,5.8855,5.8855,5.9885,6.0487,6.0387,6.0763,6.1165,6.1492,6.1316,6.1391,6.1843,6.1416,6.119,6.119,6.119,6.1115,6.1014,0.0,0.0,6.0161,6.0161,5.9859,5.9307,5.878,5.8252,5.765,5.662,5.5892,5.529,5.4386,5.3632,5.3055,5.2955,5.2929,5.2929,0.0,0.0,0.0,0.0,0.0,0.0,0.0,3.0227,3.2377,3.5859,4.0412,4.4107,4.6082,4.8356,4.9344,4.8327,4.5391,4.2956,4.1397,4.1499,4.3305,4.7091,5.0989,5.4428,5.7605,5.8595,5.9428,6.0116,5.9428,5.9279,5.9608,5.9608,5.9787,6.0116,5.9392,5.8516,5.7628,5.4939,5.3439,5.2807,5.0869,4.9188,4.7782,4.6075,4.4769,4.3714,4.2886,4.2585,4.2308,4.0651,4.0275,4.0174,3.8216,3.7036,3.6157,0.0,0.0,0.0,0.0,0.0,0.0,0.0,0.0,0.0,0.0,0.0,0.0,0.0,0.0,3.7646,0.0,0.0,4.753,5.1389,5.4411,5.6721,5.8077,5.9207,5.9508,5.8403,5.9483,6.0337,6.0337,6.109,6.1492,6.1215,6.1692,6.1994,6.1994,6.1994,6.2119,6.2395,6.2144,6.1994,6.1994,6.1994,6.1868,6.1592,6.1592,6.114,6.0311,6.0311,6.001,5.9458,5.8654,5.8152,5.7801,5.6671,5.5892,5.5315,5.4461,5.4135,5.4084,5.3532,5.3306,5.3281,0.0,0.0,0.0,0.0,0.0,0.0,0.0,2.9138,3.1274,3.4806,3.8424,4.1354,4.3329,4.4526,4.4526,4.291,4.0862,4.0538,4.2507,4.4783,4.7885,5.2252,5.4934,5.7614,6.0446,6.0475,6.0745,6.1313,6.1164,6.1194,6.1313,6.1313,6.1313,6.1313,6.1433,6.0664,5.9277,5.7591,5.6184,5.4888,5.3192,5.217,5.1727,4.9875,4.8207,4.6878,4.6326,4.5121,4.3689,4.2886,4.1831,4.0626,3.9371,3.8743,3.8115,3.6232,3.5855,0.0,0.0,0.0,0.0,0.0,0.0,0.0,0.0,0.0,3.5789,3.8113,3.9625,4.1631,4.5207,4.8496,5.1749,5.4863,5.7047,5.8704,5.9684,6.0311,6.0487,6.0035,6.0788,6.1341,6.1341,6.1843,6.1994,6.1542,6.232,6.2621,6.2195,6.2596,6.2822,6.2822,6.2822,6.2822,6.2822,6.2822,6.2596,6.2169,6.2169,6.1642,6.0638,6.0537,6.0186,5.9583,5.8403,5.7826,5.765,5.662,5.5892,5.5365,5.5013,5.5164,5.539,5.4034,5.3557,5.3482,0.0,0.0,0.0,0.0,0.0,0.0,0.0,0.0,3.133,3.4984,3.6858,3.8601,4.0636,4.0965,4.0965,4.0756,4.1712,4.3257,4.5556,4.8336,5.1657,5.5423,5.8719,6.0932,6.1852,6.1882,6.1912,6.2002,6.1403,6.1403,6.2002,6.2002,6.2002,6.2002,6.26,6.2396,6.16,5.9974,5.9549,5.9586,5.7453,5.5599,5.4183,5.3921,5.1949,4.9163,4.8611,4.6426,4.3865,4.4217,4.3288,4.2032,4.2333,4.1404,4.0099,3.9346,0.0,3.4951,3.5203,3.5002,0.0,3.578,3.6081,3.7086,0.0,0.0,4.1239,4.3936,4.5735,4.7558,5.0137,5.2792,5.5491,5.7826,5.9232,6.0261,6.0914,6.1466,6.1793,6.1743,6.1843,6.1918,6.1918,6.2421,6.2722,6.2647,6.2772,6.2797,6.2747,6.2797,6.2822,6.2822,6.2822,6.2822,6.2822,6.2822,6.2797,6.2747,6.2747,6.2421,6.1793,6.1316,6.0763,6.0136,5.8579,5.76,5.7072,5.647,5.5892,5.544,5.5867,5.6068,5.5867,5.3783,5.3005,5.3005,0.0,0.0,0.0,0.0,0.0,0.0,0.0,0.0,0.0,3.3988,3.513,3.6178,3.7404,3.7554,3.7317,3.677,3.99,4.3337,4.6638,5.0892,5.5042,5.8837,6.1148,6.2391,6.266,6.266,6.266,6.266,6.2391,6.2391,6.266,6.266,6.266,6.269,6.2959,6.2929,6.2545,6.0879,6.0249,6.0359,5.8843,5.7542,5.6604,5.6604,5.4557,5.1355,4.8706,4.6301,0.0,0.0,4.2986,4.2208,4.2434,4.158,4.0275,3.9069,3.7487,0.0,3.6056,0.0,0.0,0.0,3.8793,4.04,4.3011,4.4166,4.5397,4.7857,4.9916,5.2076,5.4662,5.6344,5.7951,0.0,6.0512,6.1014,6.1592,6.1868,6.1768,6.1115,6.1592,6.2119,6.2446,6.2697,6.2822,6.2822,6.2822,6.2822,6.2822,6.2822,6.2822,6.2822,6.2822,6.2822,6.2822,6.2822,6.2822,6.2822,6.2822,6.2546,6.1994,6.1441,6.0537,5.9332,5.8328,5.7575,5.6997,5.6445,5.6068,5.5867,5.5767,5.5742,5.5616,5.4712,5.416,5.3833,0.0,0.0,0.0,0.0,0.0,0.0,0.0,0.0,0.0,0.0,3.3365,3.3931,3.451,3.515,3.5067,3.4109,3.8693,4.318,4.68,5.2157,5.6885,6.0655,6.2091,6.2899,6.3079,6.3079,6.3079,6.3079,6.3079,6.3079,6.3079,6.3079,6.3079,6.3079,6.3258,6.3318,6.3348,6.2232,6.1783,6.1691,6.0698,5.9667,5.8675,5.788,5.5344,5.1625,4.8236,4.5501,0.0,0.0,4.1103,4.0802,4.0953,4.0676,4.0049,3.8843,3.7864,3.7111,3.6734,0.0,0.0,4.0023,4.2108,4.4267,4.6225,4.7857,4.9615,5.2,5.3758,5.5616,5.8102,5.9031,5.9834,6.119,6.1542,6.1768,6.2169,6.1969,6.1416,6.0437,6.0763,6.1291,6.1843,6.232,6.2672,6.2822,6.2822,6.2822,6.2822,6.2822,6.2822,6.2822,6.2822,6.2822,6.2822,6.2822,6.2822,6.2822,6.2822,6.2621,6.222,6.1492,6.0362,5.8905,5.8353,5.7876,5.7449,5.6721,5.6445,5.6394,5.5842,5.5616,5.5616,5.5616,5.5164,5.4486,0.0,0.0,0.0,0.0,0.0,0.0,0.0,0.0,0.0,0.0,0.0,0.0,0.0,3.4168,3.5067,3.4109,3.9106,4.3479,4.6172,5.1887,5.6675,5.9967,6.1403,6.2421,6.3079,6.3079,6.3079,6.3079,6.3079,6.3079,6.3079,6.3079,6.3079,6.3109,6.3707,6.3977,6.4006,6.4546,6.4845,6.4785,6.4128,6.2439,6.01,5.7657,5.3613,4.9227,4.7611,4.4388,0.0,0.0,3.7362,3.7437,3.7965,3.8868,0.0,3.9647,3.8467,0.0,0.0,0.0,4.04,4.3639,4.61,4.846,5.1247,5.2729,5.4285,5.7097,5.7725,5.8278,5.9935,6.0713,6.1291,6.1893,6.2421,6.2797,6.2797,6.1893,6.0989,6.0387,5.9408,5.8981,0.0,6.1065,6.2245,6.2797,6.2822,6.2822,6.2822,6.2822,6.2822,6.2822,6.2822,6.2822,6.2822,6.2822,6.2822,6.2822,6.2822,6.2822,6.2772,6.1667,6.0563,5.9433,5.893,5.8679,5.8579,5.7474,5.7022,5.6947,5.6394,5.6194,5.6194,5.6194,5.5491,5.4486,0.0,0.0,0.0,0.0,0.0,0.0,0.0,0.0,0.0,0.0,0.0,0.0,0.0,0.0,0.0,0.0,3.7155,4.1235,4.4766,4.9344,5.3593,5.7334,6.0027,6.1553,6.1762,6.263,6.3079,6.3079,6.3079,6.3079,6.3079,6.3079,6.3079,6.3079,6.3288,6.3617,6.4006,6.4246,6.4874,6.5533,6.4006,6.3118,6.244,5.9428,5.5096,5.0022,0.0,4.191,0.0,0.0,0.0,0.0,3.5655,0.0,0.0,3.5855,0.0,0.0,0.0,0.0,4.4794,4.7732,5.0419,5.2854,5.4913,5.6495,5.7725,5.8328,5.8453,5.8604,5.9156,5.8805,5.8956,6.0613,6.104,6.1567,6.2672,6.2496,6.1391,5.9006,5.9332,0.0,0.0,0.0,0.0,6.2195,6.2621,6.2822,6.2822,6.3199,6.3224,6.2847,6.2822,6.2822,6.2822,6.2822,6.2822,6.2822,6.2822,6.2446,6.1718,6.1341,6.0563,5.9458,5.8956,5.873,5.8654,5.7901,5.7374,5.7022,5.6821,5.652,5.6219,5.6219,5.5968,5.5516,0.0,0.0,0.0,0.0,0.0,0.0,0.0,0.0,0.0,0.0,0.0,0.0,0.0,0.0,0.0,0.0,0.0,3.9679,4.2701,4.6172,4.9883,5.3862,5.5628,5.6974,5.7902,5.8082,5.859,5.9548,5.9548,6.0146,6.1313,6.1313,6.1553,6.2032,6.2271,6.2869,6.3677,6.3677,6.3887,6.4066,6.1822,6.0475,5.9398,5.5867,5.1488,0.0,4.2166,3.8136,0.0,0.0,0.0,0.0,0.0,0.0,0.0,0.0,0.0,0.0,0.0,4.5573,4.8837,5.2,5.4561,5.6646,5.7926,5.9031,5.9583,5.8855,5.8077,5.7524,5.7524,5.6143,5.5968,5.8956,5.9106,5.9709,6.2195,6.2019,6.0864,5.873,5.9056,5.8981,0.0,0.0,0.0,6.1868,6.2345,6.2621,6.2822,6.3174,6.3224,6.2847,6.2822,6.2822,6.2822,6.2822,6.2822,6.2822,6.2822,6.2245,6.119,6.119,6.0563,5.9483,5.9156,5.9006,5.8956,5.8403,5.7976,5.7625,5.7424,5.6997,5.652,5.652,5.6244,5.5792,0.0,0.0,0.0,0.0,0.0,0.0,0.0,0.0,0.0,0.0,0.0,0.0,0.0,0.0,0.0,0.0,0.0,0.0,4.0157,4.2671,4.5843,4.9673,4.8805,4.9404,5.1887,5.0182,5.0511,5.3025,5.3025,5.467,5.7782,5.7782,5.8441,5.9697,6.0356,6.1403,6.263,6.26,6.1882,6.0535,5.7782,5.485,5.1678,4.7758,4.3626,3.9642,3.6697,0.0,0.0,0.0,0.0,0.0,0.0,0.0,0.0,0.0,0.0,4.2585,4.6928,4.9866,5.2553,5.6244,5.8403,5.9734,6.0211,6.0286,5.9935,5.8755,5.6721,5.5139,0.0,0.0,5.2628,5.6972,5.6922,5.77,6.1542,6.0713,5.9684,0.0,0.0,0.0,0.0,0.0,0.0,6.1918,0.0,6.2295,6.2847,6.2898,6.2898,6.2873,6.2847,6.2822,6.2822,6.2822,6.2822,6.2822,6.2822,6.227,6.1215,6.1215,6.0613,5.9533,5.9533,5.9533,5.9458,5.8956,5.873,5.8629,5.8102,5.7524,5.6997,5.6997,5.6319,5.5315,0.0,0.0,0.0,0.0,0.0,0.0,0.0,0.0,0.0,0.0,0.0,0.0,0.0,0.0,0.0,0.0,0.0,0.0,3.8093,4.0187,4.2282,4.4287,4.6411,4.7878,4.8536,4.9015,4.9823,5.099,5.099,5.1678,5.2995,5.2995,5.3414,5.4221,5.4401,5.5209,5.6436,5.5927,5.5807,5.5688,5.2546,5.105,5.0361,4.689,4.3294,3.9758,3.7704,0.0,0.0,0.0,0.0,0.0,0.0,0.0,3.6684,0.0,0.0,4.6451,5.0042,5.3858,5.7123,5.8529,6.0136,6.119,6.0487,6.001,5.9056,5.6696,5.416,5.1825,0.0,0.0,0.0,5.426,5.662,0.0,6.2772,6.2898,0.0,6.0889,0.0,6.0236,5.9935,5.991,0.0,0.0,6.2873,6.2873,6.345,6.3827,6.3877,6.3475,6.3048,6.2822,6.2822,6.2822,6.2822,6.2822,6.2822,6.2471,6.1793,6.1793,6.1165,6.0111,6.0111,5.9885,5.9483,5.9357,5.883,5.8102,5.7951,5.7298,5.642,5.642,5.5993,5.5315,0.0,0.0,0.0,0.0,0.0,0.0,0.0,0.0,0.0,0.0,0.0,0.0,0.0,0.0,0.0,0.0,0.0,0.0,0.0,3.7614,3.896,4.0546,4.1594,4.2521,4.3389,4.3299,4.3958,4.5484,4.5484,4.6411,4.8177,4.8177,4.8716,4.9613,4.9613,5.0361,5.1558,5.09,5.0481,0.0,0.0,4.5753,4.4766,4.2342,3.9501,3.6628,3.5703,0.0,0.0,0.0,0.0,3.5002,3.5755,3.7839,4.0651,4.3991,0.0,5.0469,5.4034,5.7524,6.0261,6.0814,6.1868,6.2195,6.0085,5.8805,5.6922,5.2929,5.0318,0.0,4.5799,4.6502,0.0,0.0,0.0,0.0,6.2747,6.3324,6.2973,0.0,6.2144,0.0,6.1466,6.1642,6.2421,0.0,6.3274,6.3174,6.4002,6.4078,6.4002,6.3701,6.3124,6.2822,6.2822,6.2822,6.2822,6.2822,6.2822,6.2546,6.1994,6.1994,6.1391,6.0311,0.0,6.001,5.9483,5.9483,5.9006,5.8252,5.8252,5.7575,5.657,5.657,5.6219,5.5666,0.0,0.0,0.0,0.0,0.0,0.0,0.0,0.0,0.0,0.0,2.9322,0.0,0.0,0.0,0.0,0.0,0.0,0.0,0.0,0.0,3.6237,3.7943,3.6387,3.6297,3.7973,3.6357,3.6656,3.902,3.902,4.0516,4.3389,4.3389,4.4077,4.5274,4.5274,4.5963,4.707,4.6411,4.5394,4.4107,4.2312,4.0054,3.7714,0.0,0.0,0.0,0.0,0.0,0.0,0.0,3.6885,3.8165,3.9998,4.2836,4.615,4.9414,5.2,5.4587,5.8177,6.0713,6.2446,6.2847,6.3149,6.2471,5.9056,5.6796,5.3884,4.8385,0.0,4.4192,4.2108,4.3313,4.6075,5.0544,0.0,5.7399,6.227,6.2998,6.3048,6.3048,6.35,6.3626,6.3199,6.355,6.4053,6.463,6.3726,6.3576,6.453,6.4153,6.3827,6.3701,6.3124,6.2822,6.2822,6.2822,6.2822,6.2822,6.2822,6.2571,6.2119,6.2044,6.1441,6.0437,6.0362,6.001,5.9483,5.9408,5.9081,5.8604,5.8529,5.7851,5.6922,5.6922,5.657,5.6018,0.0,0.0,0.0,0.0,0.0,0.0,0.0,0.0,0.0,0.0,2.8464,3.0292,0.0,0.0,0.0,0.0,0.0,0.0,0.0,0.0,0.0,3.5998,3.5699,3.5669,3.5998,3.5669,3.5998,3.6985,3.6985,3.7554,3.8601,3.8601,3.902,3.9768,3.9768,4.0217,4.0905,4.0217,3.9499,3.8691,3.7853,3.6428,3.4708,0.0,0.0,0.0,0.0,0.0,0.0,0.0,3.9998,4.1756,4.4342,4.7456,5.0695,5.3557,5.6269,5.8805,6.0864,6.2722,6.3952,6.3626,6.2571,6.0638,5.6821,5.3607,0.0,0.0,4.2534,4.0978,3.9672,4.2283,4.6075,5.0544,5.4762,0.0,0.0,0.0,6.4178,0.0,0.0,0.0,0.0,0.0,0.0,0.0,0.0,6.4931,6.5132,6.5057,6.4605,6.3726,6.3124,6.2822,6.2822,6.2822,6.2822,6.2822,6.2822,6.2772,6.2672,6.222,6.1642,6.1014,6.0537,0.0,5.9458,5.9031,5.8529,5.8001,5.7524,5.6922,5.6344,5.6344,5.6018,5.544,0.0,0.0,0.0,0.0,0.0,0.0,0.0,2.6025,2.6253,2.7591,2.9487,3.0964,3.1751,3.2653,3.3671,0.0,0.0,0.0,0.0,0.0,0.0,0.0,0.0,0.0,3.5519,3.5519,0.0,0.0,0.0,0.0,0.0,0.0,0.0,0.0,0.0,3.7075,3.7375,3.7015,3.6387,3.5624,3.5331,0.0,0.0,0.0,0.0,0.0,0.0,0.0,0.0,0.0,4.0827,4.4468,4.7832,5.0971,5.3909,5.6394,5.8654,6.0738,6.2421,6.3877,6.4781,6.4228,6.2395,5.9483,5.4762,0.0,0.0,0.0,3.9346,3.8542,3.7713,4.0953,0.0,4.8159,5.1674,5.5767,0.0,0.0,0.0,0.0,0.0,0.0,0.0,0.0,0.0,0.0,0.0,6.571,6.571,6.5183,6.4379,6.3274,6.2973,6.2822,6.2822,6.2822,6.2822,6.2822,6.2822,6.2822,6.2822,6.2546,6.1969,6.1165,6.0889,0.0,5.9458,5.893,5.8403,5.7851,5.7273,5.6696,5.6219,5.6219,5.6043,5.5742,0.0,0.0,0.0,0.0,0.0,0.0,0.0,2.662,2.6841,2.9302,3.0808,3.1809,3.2124,3.2611,3.3059,0.0,0.0,0.0,0.0,0.0,0.0,0.0,0.0,0.0,0.0,0.0,0.0,0.0,0.0,0.0,0.0,0.0,0.0,0.0,0.0,0.0,0.0,3.5294,3.4706,0.0,0.0,0.0,0.0,0.0,0.0,0.0,0.0,0.0,0.0,0.0,4.0626,4.497,4.9088,5.2854,5.6093,5.7851,5.996,6.2044,6.3475,6.463,6.5308,6.463,6.2119,5.8378,5.298,4.8134,0.0,0.0,3.6835,3.6734,3.6408,0.0,4.3162,0.0,4.8636,5.2452,5.8328,0.0,0.0,0.0,0.0,0.0,0.0,0.0,0.0,0.0,0.0,6.5936,6.5936,6.4906,6.3902,6.3048,6.2898,6.2822,6.2822,6.2822,6.2822,6.2822,6.2822,6.2822,6.2822,6.2571,6.1994,6.1165,6.0939,0.0,5.9433,5.8805,5.8303,5.7826,5.7123,5.6595,5.6219,5.6219,5.6219,5.6118,0.0,0.0,0.0,0.0,0.0,0.0,0.0,2.7238,2.8273,3.1486,3.1625,3.1889,3.3083,3.3565,3.3374,0.0,0.0,0.0,0.0,0.0,0.0,0.0,0.0,0.0,0.0,0.0,0.0,0.0,0.0,0.0,0.0,0.0,0.0,0.0,0.0,0.0,0.0,0.0,0.0,0.0,0.0,0.0,0.0,0.0,0.0,0.0,0.0,0.0,0.0,0.0,0.0,4.1078,4.5974,5.1825,5.6922,5.7123,0.0,0.0,6.4228,6.5208,6.5785,6.4731,6.1266,5.6796,5.1724,0.0,0.0,3.6634,3.5705,3.583,3.6282,3.8341,0.0,0.0,0.0,5.2201,5.7323,6.0186,0.0,0.0,0.0,0.0,0.0,0.0,0.0,0.0,0.0,6.5358,6.5358,6.4354,6.3726,6.3626,6.3099,6.2822,6.2822,6.2822,6.2822,6.2822,6.2822,6.2822,6.2797,6.1793,6.1291,6.1115,6.0085,0.0,0.0,5.8403,5.7951,5.7801,5.6721,5.6244,5.6219,5.6219,5.6219,5.6118,0.0,0.0,0.0,0.0,0.0,0.0,2.7006,2.6992,2.8097,3.1738,3.2514,3.2455,3.1733,3.3052,3.3271,3.1376,0.0,0.0,0.0,0.0,0.0,0.0,0.0,0.0,0.0,0.0,0.0,0.0,0.0,0.0,0.0,0.0,0.0,0.0,0.0,0.0,0.0,0.0,0.0,0.0,0.0,0.0,0.0,0.0,0.0,0.0,0.0,0.0,0.0,0.0,0.0,0.0,4.0249,4.4995,0.0,0.0,5.7976,6.1165,6.34,6.5032,6.5835,6.4731,6.0387,5.5239,5.0921,0.0,3.9295,3.6182,3.5278,3.5328,3.6207,3.7362,3.932,4.276,4.3689,0.0,5.1599,5.3909,5.6646,0.0,0.0,0.0,0.0,0.0,0.0,0.0,6.5283,6.4806,6.4806,6.4103,6.3525,6.3174,6.2948,6.2822,6.2822,6.2822,6.2822,6.2822,6.2822,6.2822,6.2797,6.2019,6.1492,6.114,6.0337,0.0,0.0,5.8353,5.7901,5.7801,5.6646,5.6219,5.6219,5.6219,5.6219,5.6168,0.0,0.0,0.0,0.0,0.0,2.4674,2.6936,2.7092,2.8369,3.2148,3.3065,3.2982,3.1937,3.2506,3.2404,3.1002,2.9969,0.0,0.0,0.0,0.0,0.0,0.0,0.0,0.0,0.0,0.0,0.0,0.0,0.0,0.0,0.0,0.0,0.0,0.0,0.0,0.0,0.0,0.0,0.0,0.0,0.0,0.0,0.0,0.0,0.0,0.0,0.0,0.0,0.0,0.0,0.0,0.0,0.0,0.0,0.0,5.5239,5.8855,6.1893,6.4128,6.5358,6.4254,5.9533,5.4135,0.0,0.0,3.8241,3.6006,3.5102,3.5002,3.5956,3.6709,3.7939,4.0224,4.0651,4.261,4.8234,5.0243,5.3105,0.0,0.0,0.0,0.0,0.0,0.0,6.6112,6.5082,6.4454,6.4454,6.3802,6.3249,6.2847,6.2822,6.2822,6.2822,6.2822,6.2822,6.2822,6.2822,6.2747,6.2571,6.2019,6.1466,6.0889,6.0337,0.0,0.0,5.8504,5.8052,5.7801,5.6821,5.6344,5.6219,5.6219,5.6219,5.6219,0.0,0.0,0.0,0.0,0.0,0.0,2.6866,2.7745,2.9452,3.3197,3.3146,3.3239,3.4526,3.2249,3.0748,3.1157,3.0105,0.0,0.0,0.0,0.0,0.0,0.0,0.0,0.0,0.0,3.2593,3.2593,3.2593,0.0,0.0,0.0,0.0,0.0,0.0,0.0,0.0,0.0,0.0,0.0,0.0,0.0,2.9804,0.0,0.0,0.0,0.0,0.0,0.0,0.0,0.0,0.0,0.0,0.0,0.0,0.0,5.2277,5.7549,5.9784,6.2395,6.4228,6.3124,5.8679,5.3557,0.0,0.0,3.8241,3.6006,3.5102,3.4901,3.5454,3.6458,3.7563,3.8718,4.1178,4.4493,4.8962,5.1498,5.416,0.0,0.0,0.0,0.0,0.0,6.6112,6.6112,6.5082,0.0,6.4454,6.3425,6.2847,6.2822,6.2822,6.2822,6.2822,6.2822,6.2822,6.2822,6.2822,6.2546,6.1994,6.1441,6.0864,6.0286,0.0,0.0,0.0,5.893,5.8403,5.7851,5.7248,5.6696,5.6219,5.6219,5.6219,5.6219,0.0,0.0,0.0,0.0,0.0,0.0,0.0,2.6615,2.799,3.07,3.1159,3.1442,3.2071,3.1929,3.1078,2.952,2.9209,0.0,0.0,0.0,0.0,0.0,0.0,0.0,0.0,0.0,3.0996,3.1683,3.0996,3.1193,3.2092,3.1756,0.0,0.0,0.0,0.0,0.0,0.0,0.0,0.0,0.0,2.9804,2.9829,0.0,0.0,0.0,0.0,0.0,0.0,0.0,0.0,0.0,0.0,0.0,0.0,4.0551,4.6326,0.0,5.3658,5.6168,5.7826,5.5968,5.2477,4.8661,4.5522,0.0,3.7312,3.5855,3.5102,3.5002,3.5931,3.6383,3.7613,4.0626,4.1856,4.3815,0.0,0.0,0.0,5.7549,6.1718,6.463,0.0,0.0,6.6112,6.6112,6.5082,6.4454,6.4454,6.3425,6.2822,6.2822,6.2822,6.2822,6.2822,6.2822,6.2822,6.2822,6.2446,6.2169,6.1969,6.1014,6.0487,0.0,0.0,0.0,5.893,5.8378,5.7826,5.7248,5.6696,5.6369,5.6219,5.6219,5.6219,5.6219,0.0,0.0,0.0,0.0,0.0,0.0,0.0,2.5968,2.7378,2.9262,2.9954,3.0647,3.1778,3.165,3.0956,2.9597,2.9206,0.0,0.0,0.0,0.0,0.0,0.0,0.0,0.0,2.9732,3.0062,3.1241,3.0671,3.1008,3.217,3.1785,3.1856,3.2372,0.0,0.0,0.0,0.0,0.0,0.0,2.9804,2.9804,2.9829,0.0,0.0,0.0,0.0,0.0,0.0,0.0,0.0,0.0,0.0,0.0,0.0,0.0,4.0827,4.5447,0.0,5.1724,5.3457,5.1875,4.8962,0.0,0.0,0.0,3.6634,3.573,3.5102,3.5052,3.6157,3.6533,3.7538,4.0174,0.0,0.0,0.0,0.0,0.0,5.7725,0.0,0.0,0.0,6.5835,6.6112,6.6112,6.5082,6.4454,6.4454,6.3425,6.2822,6.2822,6.2822,6.2822,6.2822,6.2822,6.2722,6.2521,6.2169,6.1793,6.1341,6.0638,6.0211,0.0,0.0,5.9207,0.0,5.8353,5.775,5.6997,5.6646,5.6394,5.6219,5.6219,5.6219,5.6219,0.0,0.0,0.0,0.0,0.0,0.0,0.0,2.5561,2.7227,2.8691,2.927,3.0459,3.2879,3.136,3.038,3.0922,2.9687,0.0,0.0,0.0,0.0,0.0,0.0,0.0,2.89,2.8976,2.9754,3.1336,3.1361,3.2153,3.3564,3.2657,3.2128,3.1964,3.1029,0.0,0.0,0.0,0.0,0.0,2.9804,2.9804,0.0,0.0,0.0,0.0,0.0,0.0,0.0,0.0,0.0,0.0,0.0,0.0,0.0,0.0,0.0,0.0,0.0,4.8309,5.0243,0.0,0.0,0.0,0.0,0.0,0.0,3.5604,3.5077,3.5077,3.6257,3.6835,3.7387,0.0,0.0,0.0,0.0,4.9138,0.0,0.0,0.0,0.0,6.3073,6.4906,6.6086,6.6061,6.5057,6.4454,6.4404,6.34,6.2822,6.2822,6.2822,6.2822,6.2822,6.2797,6.2521,6.1994,6.1918,6.1341,6.0311,6.0236,5.9935,0.0,0.0,5.9081,5.8604,5.8604,5.7951,5.6972,5.6972,5.6671,5.6219,5.6219,5.6219,5.6219,0.0,0.0,0.0,0.0,0.0,0.0,0.0,0.0,0.0,0.0,2.6747,2.7417,2.9105,2.8848,2.856,0.0,0.0,0.0,0.0,0.0,0.0,0.0,0.0,0.0,2.8925,2.9352,2.998,3.0809,3.1185,3.1827,3.2548,3.2751,3.2432,3.1508,3.1266,3.0683,0.0,0.0,0.0,0.0,2.9804,2.9804,0.0,0.0,0.0,0.0,3.1386,3.2114,0.0,0.0,0.0,0.0,0.0,0.0,0.0,0.0,3.4751,3.5906,3.7764,0.0,4.1455,4.0023,3.9069,3.814,0.0,0.0,0.0,0.0,0.0,3.5303,3.7262,3.7036,3.7713,0.0,0.0,0.0,4.7657,0.0,0.0,0.0,0.0,0.0,6.5383,6.581,6.5936,6.5509,6.4856,6.4304,6.3902,6.3199,6.2822,6.2822,6.2822,6.2822,6.2822,6.2395,6.2144,6.1994,6.114,6.0563,6.0286,5.9458,5.9031,0.0,5.8453,5.7951,5.7424,5.7424,5.7022,5.642,5.642,5.6319,5.6219,5.6219,5.6219,5.6219,0.0,0.0,0.0,0.0,0.0,0.0,0.0,0.0,0.0,0.0,2.639,2.7244,2.8002,2.8278,2.8266,0.0,0.0,0.0,0.0,0.0,0.0,0.0,0.0,2.772,2.8524,2.885,2.9779,3.1336,3.1637,3.2315,3.337,3.342,3.2842,3.1738,3.0984,3.0331,0.0,0.0,0.0,2.9804,2.9804,0.0,0.0,0.0,0.0,0.0,3.1687,3.234,0.0,3.3671,3.3822,3.3822,0.0,0.0,0.0,0.0,3.3746,3.4022,3.4324,3.6408,3.8266,3.7337,3.6935,3.6533,0.0,0.0,0.0,0.0,0.0,0.0,3.7236,0.0,0.0,0.0,4.2258,0.0,0.0,0.0,0.0,0.0,6.5886,6.6363,0.0,6.5735,6.5509,6.4957,6.4429,6.3977,6.3701,6.3149,6.2822,6.2822,6.2822,6.2697,6.2446,6.2144,6.1743,6.1215,6.0613,6.006,5.9558,5.8981,5.8579,0.0,5.8027,5.7424,5.6671,5.6922,5.657,5.5867,5.6118,5.6219,5.6219,5.6219,5.6219,5.6219,0.0,0.0,0.0,0.0,0.0,0.0,0.0,0.0,0.0,0.0,0.0,0.0,0.0,0.0,0.0,0.0,0.0,0.0,0.0,0.0,0.0,0.0,0.0,2.7143,2.8097,2.8273,2.9553,3.1964,3.2315,3.3244,3.4726,3.45,3.3671,3.2265,3.0733,2.9955,0.0,0.0,0.0,2.9804,2.9804,0.0,0.0,0.0,0.0,0.0,0.0,0.0,0.0,3.4148,3.4525,3.4575,3.45,0.0,0.0,0.0,0.0,0.0,3.3495,3.5755,3.7889,3.7387,3.7036,3.6659,3.6031,0.0,0.0,0.0,0.0,0.0,0.0,0.0,0.0,0.0,0.0,0.0,5.411,5.7826,0.0,6.4078,6.5434,0.0,6.5233,6.5233,6.5032,6.4404,6.3952,6.3651,6.3576,6.3099,6.2797,6.2697,6.2697,6.2345,6.1642,6.1793,6.1316,6.0186,6.0186,5.9633,5.8604,5.8604,5.8303,5.775,0.0,0.0,5.6118,5.6495,5.6168,5.544,5.5917,5.6143,5.6219,5.6219,5.6219,5.6219,0.0,0.0,0.0,0.0,0.0,0.0,0.0,0.0,0.0,0.0,0.0,0.0,0.0,0.0,0.0,0.0,0.0,0.0,0.0,0.0,0.0,2.6533,2.7344,2.7921,2.8097,2.9051,2.998,3.0859,3.2717,3.4022,3.4751,3.6056,3.5353,3.2893,3.1687,3.0633,2.9804,0.0,0.0,2.9804,2.9804,0.0,0.0,0.0,0.0,0.0,0.0,0.0,0.0,3.3269,3.3646,3.3947,3.347,0.0,0.0,0.0,0.0,0.0,3.5353,3.691,3.7337,3.4525,3.4474,3.4826,0.0,0.0,0.0,0.0,0.0,0.0,0.0,0.0,0.0,0.0,0.0,0.0,0.0,0.0,0.0,6.4178,0.0,6.571,6.468,6.5007,6.4881,6.3877,6.3726,6.3475,6.2998,6.2873,6.2621,6.2144,6.2119,6.1416,5.9885,6.0839,6.0738,5.9608,5.9608,5.9056,5.8027,5.8027,5.77,5.7123,0.0,5.5666,5.5491,5.5089,5.5114,5.539,5.5491,5.5792,5.6219,5.6219,5.6219,5.6219,0.0,0.0,0.0,0.0,0.0,0.0,0.0,0.0,0.0,0.0,0.0,0.0,0.0,0.0,0.0,0.0,0.0,0.0,0.0,0.0,2.6659,2.6892,2.767,2.8097,2.8097,2.9503,3.0934,3.239,3.46,3.5956,3.6483,3.5755,3.4399,3.2541,3.116,3.0256,2.9804,2.9804,2.9804,2.9829,0.0,0.0,0.0,0.0,0.0,0.0,0.0,0.0,0.0,0.0,3.4098,3.465,3.3796,0.0,0.0,0.0,0.0,0.0,3.4324,3.5604,3.6307,3.4801,3.5931,3.7036,0.0,0.0,0.0,0.0,0.0,0.0,0.0,0.0,0.0,0.0,0.0,0.0,0.0,0.0,0.0,0.0,0.0,6.5358,6.4555,6.4705,6.4404,6.3299,6.3224,6.3099,6.2847,6.2546,6.227,6.2019,6.1718,6.104,5.996,6.0161,5.9709,5.8629,5.8629,5.8202,5.7424,5.7123,5.6671,5.6093,0.0,5.4762,5.4511,5.4863,5.4988,5.5013,5.5591,5.5993,5.6168,5.5867,5.5968,5.6168,0.0,0.0,0.0,0.0,0.0,0.0,0.0,0.0,0.0,0.0,0.0,0.0,0.0,0.0,0.0,0.0,0.0,0.0,0.0,0.0,2.6841,2.7268,2.8072,2.8574,2.8699,3.0331,3.2215,3.4274,3.6634,3.7914,3.8165,3.5655,3.3671,3.2164,3.0783,3.003,2.9804,2.9804,2.9804,2.9829,0.0,0.0,0.0,0.0,0.0,0.0,0.0,0.0,0.0,0.0,0.0,0.0,0.0,0.0,0.0,3.3847,3.337,3.3395,3.3897,3.4951,3.5956,3.6081,0.0,0.0,0.0,0.0,0.0,0.0,0.0,0.0,0.0,4.3639,0.0,0.0,0.0,0.0,0.0,0.0,0.0,0.0,6.4931,6.4881,6.4329,6.4279,6.3877,6.2898,6.2822,6.2772,6.2647,6.2245,6.1893,6.1617,6.119,6.0588,5.9759,5.9332,5.8704,5.7901,5.7901,5.7524,5.6821,5.6394,5.5917,5.534,5.4662,5.4185,5.3959,5.4687,5.4888,5.4838,5.5691,5.6093,5.6143,5.5591,5.5742,5.6118,0.0,0.0,0.0,0.0,0.0,0.0,0.0,0.0,0.0,0.0,0.0,0.0,0.0,0.0,0.0,0.0,0.0,0.0,0.0,0.0,2.7243,2.7293,2.8825,2.9905,3.0432,3.2039,3.3721,3.5336,3.8165,3.927,3.8768,3.7036,3.4801,3.219,3.1562,3.0733,2.9804,2.9804,2.9804,2.9804,2.9829,0.0,0.0,0.0,0.0,0.0,0.0,0.0,0.0,0.0,0.0,0.0,0.0,0.0,3.4751,3.465,3.4248,3.4299,3.6332,3.6985,3.7186,3.7713,3.7211,0.0,0.0,0.0,0.0,0.0,0.0,0.0,0.0,4.7832,5.2,5.6018,5.9056,6.1466,6.3149,0.0,6.453,6.5157,6.4806,6.4329,6.3802,6.3751,6.35,6.2873,6.2822,6.2596,6.2094,6.2019,6.1517,6.0462,6.0412,5.9633,5.8102,5.8027,5.7976,5.7901,5.7901,5.7323,5.6269,5.6219,5.5917,5.534,5.4235,5.4059,5.4461,5.4009,5.4411,5.534,5.5415,5.5767,5.6143,5.5591,5.5742,5.6068,0.0,0.0,0.0,0.0,0.0,0.0,0.0,0.0,0.0,0.0,0.0,0.0,0.0,0.0,0.0,0.0,0.0,0.0,0.0,2.6967,2.7444,2.777,2.9402,3.0557,3.1085,3.4073,3.6609,3.8642,3.9697,3.9572,3.8266,3.5604,3.3395,3.1662,3.0783,3.0181,2.9804,2.9804,2.9804,2.9829,3.0156,3.0733,0.0,0.0,0.0,0.0,0.0,0.0,0.0,0.0,3.3847,3.4324,3.3847,3.4399,3.5102,3.4399,3.4073,3.4073,3.4926,3.6132,3.7236,3.7437,0.0,0.0,0.0,0.0,0.0,0.0,0.0,0.0,0.0,0.0,5.4762,5.76,6.0387,6.2546,6.355,6.4128,6.4555,6.4756,6.458,6.4254,6.3751,6.3701,6.3299,6.2395,6.232,6.2069,6.1517,6.114,6.0763,6.0337,5.9659,5.9031,5.8403,5.77,5.7198,5.6846,5.6495,5.6118,5.5666,5.4963,5.4536,5.431,5.3532,5.3532,5.4034,5.4185,5.4687,5.539,5.539,5.5315,5.5114,5.4561,5.4712,5.5064,0.0,0.0,0.0,0.0,0.0,0.0,0.0,0.0,0.0,0.0,0.0,0.0,0.0,0.0,0.0,0.0,0.0,0.0,2.6533,2.7143,2.772,2.8097,2.988,3.1361,3.2416,3.5906,3.8542,4.0249,4.0601,3.9747,3.7688,3.455,3.2566,3.1612,3.0532,3.0156,3.0281,3.0131,2.9955,2.9829,3.0206,3.0758,0.0,0.0,0.0,0.0,0.0,0.0,0.0,0.0,3.3721,3.4173,3.3922,3.4525,3.5177,3.46,3.4299,3.4123,3.3947,3.5127,3.6483,0.0,0.0,0.0,0.0,0.0,0.0,0.0,0.0,0.0,0.0,0.0,0.0,0.0,6.1065,6.3249,6.3626,6.4002,6.4228,6.4228,6.4053,6.3802,6.345,6.3425,6.3023,6.2069,6.1994,6.1692,6.0939,6.0362,5.9985,5.9809,5.893,5.8378,5.8202,5.7248,5.6495,5.5942,5.5214,5.4938,5.5089,5.4135,5.3708,5.3683,5.3331,5.3482,5.4009,5.4411,5.4787,5.5139,5.5139,5.5013,5.4737,5.3984,5.4185,5.4687,0.0,0.0,0.0,0.0,0.0,0.0,0.0,0.0,0.0,0.0,0.0,0.0,0.0,0.0,0.0,0.0,0.0,0.0,2.6533,2.7494,2.8097,2.8097,3.0206,3.2416,3.4625,3.7387,3.912,3.9697,4.0777,3.9873,3.7086,3.4349,3.2742,3.2139,3.1085,3.0909,3.1336,3.0834,3.0306,2.9804,2.9804,3.0432,0.0,0.0,0.0,0.0,0.0,0.0,0.0,0.0,3.352,3.337,3.5002,3.5177,3.4851,3.5378,3.5152,3.46,3.4048,3.4299,0.0,0.0,0.0,0.0,0.0,0.0,0.0,0.0,0.0,0.0,0.0,0.0,0.0,0.0,6.1165,6.3676,6.3676,6.3676,6.3676,6.3676,6.3174,6.2822,6.2822,6.2822,6.2571,6.2019,6.1994,6.1492,6.0362,5.9784,5.9232,5.873,5.8177,5.76,5.7022,5.647,5.5917,5.5365,5.4235,5.4009,5.4536,5.3959,5.3683,5.3683,5.3683,5.4009,5.4561,5.4561,5.4561,5.4561,5.4561,5.4888,5.5239,5.411,5.4411,5.5139,0.0,0.0,0.0,0.0,0.0,0.0,0.0,0.0,0.0,0.0,0.0,0.0,0.0,0.0,0.0,0.0,0.0,0.0,2.6533,2.7494,2.8097,2.8097,3.0206,3.1336,3.126,3.3972,3.6784,3.9697,3.922,3.7161,3.3671,3.2842,3.1763,3.0557,3.1361,3.1185,3.0281,3.0507,3.0532,3.0357,3.0357,3.1009,3.1964,0.0,0.0,0.0,0.0,0.0,0.0,0.0,0.0,0.0,3.4223,3.5077,3.5755,3.5152,3.5127,3.5102,3.4148,3.5152,0.0,0.0,0.0,0.0,0.0,0.0,0.0,0.0,0.0,0.0,0.0,0.0,0.0,0.0,0.0,6.2647,6.3023,6.3099,6.3099,6.3099,6.2596,6.2245,6.2245,6.1893,6.1441,6.0864,6.0462,5.9935,5.9232,5.8679,5.8127,5.7549,5.6997,5.6445,5.5892,5.534,5.4762,5.421,5.3858,5.3783,5.3934,5.3406,5.3155,5.3155,5.3155,5.3457,5.3984,5.4386,5.4336,5.3959,5.3959,5.3833,5.3607,5.3281,5.3381,5.3582,0.0,0.0,0.0,0.0,0.0,0.0,0.0,0.0,0.0,0.0,0.0,0.0,0.0,0.0,0.0,0.0,0.0,0.0,0.0,2.7821,2.8423,2.8423,2.993,3.0859,3.1085,3.337,3.5378,3.7061,3.6835,3.5152,3.2215,3.2441,3.2139,3.1486,3.2667,3.2541,3.1411,3.1311,3.111,3.0934,3.0934,3.1587,3.2566,0.0,0.0,0.0,0.0,0.0,0.0,0.0,0.0,0.0,3.3822,3.4575,3.5303,3.4851,3.465,3.4575,3.455,0.0,0.0,0.0,0.0,0.0,0.0,0.0,0.0,0.0,0.0,0.0,0.0,0.0,0.0,5.9784,6.124,6.237,6.2496,6.2697,6.2672,6.222,6.2069,6.1918,6.1692,6.1391,6.0839,6.006,5.9684,5.9182,5.8428,5.7851,5.7298,5.6721,5.6168,5.5616,5.5064,5.4511,5.4059,5.3708,5.3482,5.3381,5.3381,5.308,5.2929,5.2929,5.3155,5.3406,5.3733,5.4084,5.3884,5.3381,5.3381,5.3331,5.3206,5.3005,5.3055,5.3206,0.0,0.0,0.0,0.0,0.0,0.0,0.0,0.0,0.0,0.0,0.0,0.0,0.0,0.0,0.0,0.0,0.0,0.0,0.0,0.0,2.8925,2.8925,2.9478,3.0733,3.2742,3.4248,3.4274,3.2767,3.3972,3.3721,3.2089,3.2817,3.3395,3.3847,3.4449,3.4349,3.3671,3.2591,3.1863,3.1386,3.1436,3.2114,3.3068,3.3068,0.0,0.0,0.0,0.0,0.0,0.0,0.0,0.0,3.3721,3.3922,3.4073,3.4525,3.3997,3.3646,3.5203,0.0,0.0,4.1505,0.0,0.0,0.0,0.0,0.0,0.0,0.0,0.0,0.0,6.006,5.9935,6.0387,6.1768,6.2571,6.2069,6.2395,6.2295,6.1291,6.1567,6.1642,6.109,6.0989,6.0512,5.9433,5.9257,5.878,5.7801,5.7148,5.6545,5.5993,5.5491,5.4963,5.4411,5.3884,5.3632,5.3632,5.3155,5.2929,5.2929,5.2929,5.2929,5.2955,5.3432,5.3632,5.3632,5.3632,5.3356,5.2929,5.2929,5.3231,5.3582,5.3105,5.3231,5.3557,0.0,0.0,0.0,0.0,0.0,0.0,0.0,0.0,0.0,0.0,0.0,0.0,0.0,0.0,0.0,0.0,0.0,0.0,0.0,0.0,2.8925,2.8925,2.9478,3.0005,3.0482,3.0859,3.0859,3.0507,3.2466,3.2591,3.1009,3.2867,3.3545,3.3294,3.4274,3.3922,3.2541,3.1863,3.1486,3.1436,3.1863,3.2441,3.3068,3.3068,3.3068,0.0,0.0,0.0,0.0,0.0,0.0,0.0,3.3721,3.4198,3.4474,3.4173,3.4525,3.5177,3.5981,3.7563,0.0,0.0,4.8912,5.3582,0.0,0.0,0.0,0.0,0.0,0.0,6.104,6.1617,6.1994,6.1692,6.1943,6.2144,6.2019,6.1743,6.1441,6.1215,6.0889,6.0462,5.991,5.9483,5.8981,5.8303,5.7424,5.6821,5.6595,5.5641,5.4838,5.426,5.4135,5.3808,5.3281,5.3155,5.308,5.308,5.298,5.2929,5.2929,5.2929,5.2929,5.2929,5.3055,5.308,5.308,5.308,5.303,5.2929,5.2929,5.3005,5.308,5.298,5.3005,5.308,0.0,0.0,0.0,0.0,0.0,0.0,0.0,0.0,0.0,0.0,0.0,0.0,0.0,0.0,0.0,0.0,0.0,0.0,0.0,0.0,2.9352,2.9352,2.988,3.0055,2.9804,3.0055,3.0055,2.9804,3.0959,3.121,3.0658,3.2867,3.3897,3.3897,3.4751,3.4324,3.2968,3.2139,3.1788,3.1838,3.239,3.2968,3.347,3.347,3.3144,0.0,0.0,0.0,0.0,0.0,0.0,0.0,0.0,0.0,3.3922,3.3897,3.4299,3.5102,3.6709,0.0,0.0,4.7682,0.0,5.4988,5.6646,0.0,0.0,0.0,5.9859,6.119,6.119,6.1642,6.1943,6.1667,6.1617,6.1517,6.124,6.119,6.0889,6.0085,5.996,5.9608,5.8805,5.8478,5.7976,5.7148,5.6545,5.5993,5.544,5.4888,5.4285,5.3708,5.3708,5.3457,5.2929,5.2929,5.2929,5.2929,5.2929,5.2929,5.2929,5.2929,5.2929,5.2929,5.2929,5.2929,5.2929,5.2929,5.2929,5.2929,5.2929,5.2929,5.2929,5.2929,5.2929,5.2929,0.0,0.0,0.0,0.0,0.0,0.0,0.0,0.0,0.0,0.0,0.0,0.0,0.0,0.0,0.0,0.0,0.0,0.0,0.0,0.0,0.0,2.9804,3.0231,3.0256,2.9804,3.0231,3.0256,2.9804,2.9804,3.0206,3.1085,3.2993,3.4248,3.4876,3.5152,3.47,3.3671,3.2466,3.1989,3.2114,3.2692,3.3269,3.3746,3.3746,3.3169,0.0,0.0,0.0,0.0,0.0,0.0,0.0,0.0,0.0,3.3169,3.3621,3.3822,3.4449,3.7036,0.0,4.4443,5.1021,5.3532,0.0,5.6394,5.6821,5.7047,5.7625,5.8981,6.0211,6.0788,6.0964,6.104,6.104,6.0964,6.0688,6.0111,6.0362,6.0111,5.8755,5.888,5.8679,5.77,5.7524,5.7047,5.6018,5.5842,5.539,5.4461,5.4336,5.4059,5.3582,5.3557,5.3356,5.2929,5.2929,5.2929,5.2929,5.2929,5.2929,5.2929,5.2491,5.2629,5.2929,5.2491,5.2629,5.2929,5.2491,5.2629,5.2929,5.2929,5.2929,5.2929,5.2929,5.2929,5.2929,0.0,0.0,0.0,0.0,0.0,0.0,0.0,0.0,0.0,0.0,0.0,0.0,0.0,0.0,0.0,0.0,0.0,0.0,0.0,0.0,0.0,2.9804,2.9854,2.9854,2.9804,2.9854,2.9854,2.9804,2.9804,0.0,0.0,0.0,0.0,3.5403,3.4525,3.3771,3.3093,3.1486,3.1085,3.1537,3.2114,3.2667,3.3194,3.3194,3.3093,0.0,0.0,0.0,0.0,0.0,0.0,0.0,0.0,0.0,3.3093,3.3169,3.352,3.4299,3.6081,0.0,4.6677,0.0,5.2678,5.4135,0.0,0.0,5.647,0.0,5.8102,5.9106,5.9633,6.0111,6.0437,6.0437,6.0035,5.9533,5.8981,5.8579,5.8252,5.8027,5.7625,5.7123,5.6495,5.5993,5.5465,5.4838,5.431,5.3959,5.3833,5.3381,5.3105,5.303,5.303,5.3005,5.2929,5.2929,5.2929,5.2929,5.2929,5.2929,5.2792,5.1163,5.1303,5.2792,5.1163,5.1303,5.2792,5.1138,5.1443,5.2929,5.2929,5.2929,5.2929,5.2929,5.2929,5.2929,0.0,0.0,0.0,0.0,0.0,0.0,0.0,0.0,0.0,0.0,0.0,0.0,0.0,0.0,0.0,0.0,0.0,0.0,0.0,0.0,0.0,2.9804,2.9804,2.9804,2.9804,2.9804,2.9804,2.9804,2.9804,0.0,0.0,3.3796,3.465,0.0,0.0,0.0,3.2993,3.1637,3.1009,3.1035,3.1863,3.219,3.219,3.2842,0.0,0.0,0.0,0.0,0.0,0.0,0.0,0.0,3.3068,0.0,0.0,0.0,3.3696,3.5203,3.9019,4.2208,4.5623,0.0,5.2051,5.2804,5.4536,0.0,5.5365,5.5591,5.6043,5.6846,5.8328,5.8805,5.8855,5.8529,5.8278,5.7926,5.7374,5.7097,5.6846,5.652,5.6269,5.5892,5.534,5.5064,5.4687,5.4135,5.3858,5.3582,5.3281,5.3055,5.2929,5.2929,5.2929,5.2779,5.2477,5.2477,5.2477,5.2477,5.2477,5.2029,5.1303,5.041,5.041,5.1163,4.9248,4.9391,5.1163,5.041,5.1163,5.2929,5.2929,5.2929,5.2929,5.2929,5.2929,5.2929,0.0,0.0,0.0,0.0,0.0,0.0,0.0,0.0,0.0,0.0,0.0,0.0,0.0,0.0,0.0,0.0,0.0,0.0,0.0,0.0,0.0,2.9804,2.9804,2.9804,2.9804,2.9804,2.9804,2.9804,0.0,0.0,3.4324,3.4324,3.5429,0.0,3.5378,3.4073,0.0,0.0,0.0,0.0,0.0,0.0,0.0,0.0,0.0,0.0,0.0,0.0,0.0,0.0,0.0,0.0,0.0,0.0,0.0,0.0,0.0,3.5328,0.0,0.0,4.3614,4.8887,5.0519,5.1348,0.0,0.0,5.4185,0.0,5.4461,5.5064,5.6746,5.7173,5.7123,5.6696,5.662,5.642,5.5867,5.5792,5.5641,5.5239,5.5039,5.4787,5.4386,5.4235,5.3959,5.3532,5.3507,5.3331,5.2955,5.2804,5.2729,5.2729,5.2578,5.2302,5.19,5.19,5.19,5.19,5.1444,5.0636,4.9581,4.8542,4.8182,4.8321,4.6837,4.7613,4.9961,4.9391,5.0717,5.2929,5.2929,5.2929,5.2929,5.2929,5.2929,5.2929,0.0,0.0,0.0,0.0,0.0,0.0,0.0,0.0,0.0,0.0,0.0,0.0,0.0,0.0,2.8047,2.8097,2.9076,2.9729,2.9804,2.9804,2.9804,2.9804,2.9804,0.0,2.9804,2.9804,2.9804,2.9804,0.0,0.0,3.5454,3.5454,3.7186,4.0174,3.7437,3.5353,3.3771,0.0,0.0,0.0,0.0,0.0,0.0,0.0,0.0,0.0,0.0,0.0,0.0,0.0,0.0,0.0,0.0,0.0,0.0,0.0,0.0,0.0,0.0,3.8642,0.0,4.4292,4.738,4.9992,0.0,0.0,5.3155,5.3632,5.4185,5.4612,5.4712,5.5164,5.5516,5.5491,5.5465,5.529,5.4737,5.4637,5.4637,5.4612,5.4135,5.3783,5.3758,5.3306,5.3005,5.298,5.298,5.2955,5.2929,5.2427,5.2151,5.2151,5.1649,5.1348,5.1322,5.1322,5.1322,5.1322,4.9582,4.8601,4.8487,4.4782,4.3467,4.3912,4.4208,4.6441,4.9819,4.7904,4.9391,5.2929,5.2929,5.2929,5.2929,5.2929,5.2929,5.2929,0.0,0.0,0.0,0.0,0.0,0.0,0.0,0.0,0.0,0.0,0.0,0.0,0.0,2.6525,2.6944,2.7999,2.9151,2.9804,2.9804,2.9804,2.9804,2.9804,2.9804,2.9804,2.9804,2.9804,2.9804,0.0,0.0,3.1411,3.3972,3.4324,3.5705,3.7814,3.6458,3.5504,3.4801,3.2265,0.0,0.0,0.0,0.0,0.0,0.0,0.0,0.0,0.0,0.0,0.0,0.0,0.0,0.0,0.0,0.0,0.0,0.0,0.0,0.0,0.0,0.0,0.0,4.261,4.4995,4.6878,4.8711,5.0544,5.1925,5.2101,5.2879,5.3507,5.3507,5.426,5.4737,5.4361,5.431,5.411,5.3582,5.3507,5.3507,5.3507,5.3331,5.3206,5.3206,5.303,5.2929,5.2929,5.2929,5.2779,5.2427,5.2201,5.195,5.1599,5.1398,5.1096,5.072,5.0368,5.0368,5.072,4.8888,4.751,4.6561,4.3997,4.2249,4.1133,4.1294,4.3679,4.747,4.7209,4.9203,5.2427,5.2779,5.2929,5.2929,5.2929,5.2929,5.2929,0.0,0.0,0.0,0.0,0.0,0.0,0.0,0.0,0.0,0.0,0.0,0.0,0.0,0.0,2.7017,2.8525,2.9352,2.9804,2.9804,2.9804,2.9624,2.9287,2.9624,2.9624,2.9287,2.9624,2.9804,2.9804,2.998,3.111,0.0,3.3646,3.4901,3.6609,3.5303,3.5127,0.0,0.0,0.0,3.1662,0.0,0.0,3.0708,0.0,0.0,0.0,0.0,0.0,0.0,0.0,0.0,0.0,0.0,0.0,0.0,0.0,0.0,0.0,3.5077,0.0,0.0,0.0,4.2836,4.4016,4.6979,4.8661,4.9766,5.0318,5.1473,5.2427,5.2628,5.3406,5.3884,5.3507,5.3432,5.3331,5.298,5.2929,5.2929,5.2929,5.2929,5.2929,5.2929,5.2754,5.2653,5.2653,5.2477,0.0,5.185,5.1649,5.1197,5.0469,5.0619,5.0343,4.959,4.959,4.9407,4.8903,4.7274,4.5737,4.4091,4.227,4.0787,3.9668,3.9668,4.206,4.6088,4.6424,4.8662,5.1875,5.2226,5.2377,5.2402,5.2578,5.2653,5.2678,0.0,0.0,0.0,0.0,0.0,0.0,0.0,0.0,0.0,2.4782,0.0,0.0,0.0,0.0,0.0,2.9626,2.9779,2.9804,2.9804,2.9804,2.9287,2.8164,2.9184,2.9287,2.8084,2.9209,2.9804,2.9804,3.0331,3.1411,3.3018,3.3571,3.4977,3.6935,3.4274,3.4299,3.6257,0.0,3.4801,3.3671,0.0,3.1286,3.2315,0.0,0.0,0.0,3.4299,3.4022,0.0,0.0,0.0,0.0,0.0,0.0,0.0,0.0,0.0,0.0,0.0,0.0,0.0,0.0,0.0,0.0,4.5899,4.6502,4.6652,4.8335,4.9992,5.1322,5.195,5.2503,5.2854,5.2904,5.2929,5.2929,5.2929,5.2904,5.2904,5.2904,5.2879,5.2879,5.2879,5.2402,5.2076,5.2076,5.1574,5.1272,5.1222,5.067,4.9866,4.8786,4.9289,4.9038,4.7908,4.9012,4.8337,4.5954,4.4686,4.2988,4.1184,3.9385,3.8769,3.916,3.9141,4.1523,4.5505,4.5572,4.7863,5.1247,5.1272,5.1272,5.1348,5.19,5.2101,5.2176,0.0,0.0,0.0,0.0,0.0,0.0,2.3409,2.3803,2.4481,0.0,0.0,0.0,0.0,0.0,2.8673,2.8615,2.9287,2.9804,2.9804,2.9804,2.9287,2.8164,2.9184,2.9287,2.8084,2.9209,2.9804,2.9804,2.9955,3.0457,3.1311,3.1838,3.2842,0.0,3.3822,3.3796,3.3897,3.2139,0.0,0.0,3.1336,3.1738,0.0,0.0,0.0,0.0,0.0,3.4449,0.0,0.0,3.4299,3.4474,0.0,0.0,0.0,0.0,0.0,0.0,3.3269,0.0,0.0,0.0,0.0,0.0,0.0,4.1957,4.3413,4.5899,4.7079,4.8335,5.0494,5.0996,5.1373,5.2201,5.2678,5.2929,5.2929,5.2578,5.2327,5.2327,5.1975,5.1724,5.1724,5.1599,5.1498,0.0,5.1373,5.0921,5.0117,4.9138,4.846,4.8159,4.8711,4.8661,4.7908,4.7415,4.6752,4.593,4.3103,4.1571,4.1184,3.9066,3.8164,3.8262,3.7949,3.9935,4.3556,4.499,4.7628,5.0695,5.1122,5.1272,5.1348,5.19,5.2101,5.2176,0.0,0.0,0.0,0.0,0.0,2.4863,2.4091,2.4439,2.5056,0.0,0.0,0.0,0.0,0.0,2.9422,2.8846,2.9443,2.9804,2.9804,2.9365,2.8767,2.8084,2.8767,2.8767,2.8084,2.9209,2.9804,2.9804,2.9804,2.9955,3.0281,3.0583,3.121,0.0,0.0,0.0,0.0,0.0,0.0,0.0,3.219,0.0,0.0,3.4374,3.4851,0.0,0.0,0.0,3.6784,3.5755,3.5328,0.0,0.0,0.0,0.0,0.0,0.0,0.0,0.0,0.0,0.0,0.0,0.0,0.0,3.8417,3.9245,4.0275,4.2585,4.4066,4.5547,4.7631,4.8586,4.9414,5.0544,5.1172,5.1774,5.2477,5.2101,5.1749,5.1749,5.1473,5.1272,5.1272,5.1071,5.0921,5.0921,5.0695,5.0193,4.9289,4.841,4.7807,4.7581,4.8134,4.7633,4.6191,4.6014,4.4958,4.3148,4.1352,4.0111,3.9536,3.8323,3.7656,3.7656,3.7402,3.8902,4.1655,4.3618,4.65,4.9766,5.0117,5.0368,5.0645,5.1197,5.1398,5.1523,0.0,0.0,2.4868,2.4853,2.5369,2.5569,2.5103,2.5519,2.6063,0.0,2.681,0.0,0.0,0.0,0.0,2.993,2.9829,2.9804,2.9804,2.8846,2.8243,2.8084,2.8267,2.8267,2.8084,2.9209,2.9829,2.988,2.988,2.988,2.988,2.988,0.0,0.0,0.0,0.0,0.0,0.0,0.0,3.2215,3.3345,3.4575,0.0,0.0,3.7613,0.0,3.8768,3.9044,3.8894,3.7312,3.5981,0.0,0.0,0.0,0.0,0.0,3.3169,0.0,0.0,0.0,0.0,0.0,0.0,0.0,3.7764,3.7688,3.7487,3.917,4.1078,4.2836,4.4192,4.5723,4.7104,4.8134,4.8887,4.9916,5.1674,5.1448,5.1071,5.1021,5.0946,5.0896,5.0896,5.0444,5.0142,5.0142,4.964,4.9113,4.8611,4.8033,4.7506,4.7054,4.7283,4.6289,4.3731,4.4428,4.2849,3.9155,3.9574,3.8861,3.7305,3.7246,3.7226,3.7226,3.7448,3.8364,4.0108,4.1949,4.4948,4.8507,4.8761,4.9113,4.9665,5.0218,5.0419,5.0569,0.0,0.0,2.5319,2.4985,2.6079,2.6831,2.6336,2.7015,2.7645,2.777,2.8574,0.0,0.0,0.0,0.0,3.0457,3.0055,2.9804,2.9804,2.9624,2.9028,2.8164,2.8949,2.9028,2.8084,2.9209,3.0005,3.0457,3.0457,3.0457,3.0457,0.0,0.0,0.0,0.0,0.0,0.0,0.0,0.0,3.1637,3.2792,0.0,3.6885,3.7111,3.809,3.9371,3.9496,4.0099,4.0676,0.0,3.8015,3.6558,0.0,0.0,0.0,0.0,0.0,0.0,0.0,0.0,0.0,0.0,0.0,0.0,3.5579,3.5705,3.6332,3.799,3.8693,3.9848,4.276,4.394,4.4669,4.5321,4.6652,4.8335,5.0444,5.0268,4.9766,4.9314,4.8862,4.856,4.856,4.846,4.841,4.841,4.7908,4.7556,4.7456,4.6928,4.6577,4.6476,4.5573,4.475,4.3731,4.1611,4.0158,3.9134,3.794,3.7371,3.7285,3.6953,3.6797,3.6916,3.7868,3.8604,3.9136,4.2221,4.4697,4.6867,4.8228,4.9113,4.9665,5.0218,5.0419,5.0569,0.0,2.6063,2.6377,2.6159,2.7257,2.795,2.7385,2.8027,2.8725,2.9277,3.0557,0.0,0.0,0.0,0.0,0.0,0.0,2.9804,0.0,2.9287,2.8949,2.8949,2.8949,2.8949,2.8949,2.9546,2.993,3.0206,3.0206,3.0206,3.0206,0.0,0.0,0.0,0.0,0.0,0.0,0.0,3.116,3.1587,3.3822,0.0,3.6885,3.8015,3.912,4.0149,4.0425,4.1053,4.1505,3.9848,3.8894,0.0,0.0,3.5353,3.5077,0.0,3.4525,3.4299,0.0,0.0,0.0,3.5127,0.0,0.0,0.0,3.45,3.47,3.6081,3.6358,3.7036,3.927,4.0124,4.1053,4.271,4.3689,4.502,4.723,4.8008,4.8259,4.7983,4.7456,4.7104,4.7104,4.7104,4.723,4.7506,4.7029,4.6853,4.7129,4.6602,4.5914,4.5013,4.4367,4.3088,4.1181,3.9733,3.8553,3.7631,3.6739,3.6465,3.666,3.6445,3.6348,3.6328,3.7024,3.7307,3.7441,4.0148,4.1871,4.319,4.6895,4.8862,4.9615,4.9916,5.0017,5.0167,0.0,0.0,2.7318,2.7419,2.8273,2.8825,2.8473,2.88,2.9528,3.0758,0.0,0.0,0.0,0.0,0.0,0.0,0.0,0.0,0.0,0.0,2.8699,2.9628,2.8973,2.8919,2.9628,2.9829,2.9955,2.9955,2.9955,2.9955,2.9955,2.9955,0.0,0.0,0.0,0.0,0.0,0.0,0.0,3.1989,0.0,3.6232,3.6282,3.8517,3.9722,4.03,4.1178,4.1856,4.2007,4.0023,0.0,3.9346,3.6433,3.5981,0.0,0.0,0.0,0.0,0.0,0.0,0.0,0.0,0.0,3.5002,0.0,0.0,0.0,0.0,0.0,0.0,0.0,0.0,0.0,3.9873,0.0,0.0,0.0,4.4945,0.0,4.6451,4.5999,4.5723,4.5824,4.5623,4.5748,4.6301,4.5924,4.5779,4.5942,4.5668,4.4768,4.3192,4.2818,4.1324,3.8597,3.8221,3.7441,3.6016,3.6016,3.6016,3.6016,3.6016,3.6016,3.6016,3.6403,3.6287,3.6152,3.8221,3.9269,3.9848,4.4934,4.7725,4.8898,4.8998,4.9307,4.9741,2.6565,2.6892,0.0,2.7921,2.8524,2.9076,2.9528,2.9654,3.0256,3.1813,0.0,0.0,0.0,0.0,0.0,0.0,0.0,0.0,3.1813,0.0,0.0,2.9026,2.9824,2.9874,2.9051,3.0005,3.0532,3.0532,3.0532,3.0532,3.0532,3.0532,0.0,0.0,2.9754,0.0,0.0,0.0,3.1913,0.0,3.5429,3.578,0.0,3.7362,3.8542,3.932,4.1329,4.2409,4.271,0.0,4.0777,4.0199,0.0,3.7789,0.0,0.0,0.0,0.0,0.0,0.0,0.0,0.0,3.8015,0.0,0.0,0.0,0.0,0.0,0.0,0.0,0.0,0.0,0.0,0.0,0.0,0.0,3.9622,4.0953,4.2534,4.4016,4.3689,4.3539,4.4041,4.3212,4.2861,4.3413,4.3388,4.2995,4.2064,4.2496,4.2202,4.0887,3.9365,3.8569,3.8597,3.7059,3.6152,3.6016,3.6016,3.6016,3.6016,3.6016,3.6016,3.6152,3.7575,3.7441,3.6268,3.9497,4.0301,3.9601,4.2171,4.4565,4.6597,4.7053,4.8191,4.969,2.7469,2.7595,0.0,2.8473,2.9051,2.9528,2.9754,3.116,3.219,3.2215,0.0,0.0,0.0,0.0,0.0,0.0,0.0,3.1085,0.0,0.0,0.0,0.0,0.0,0.0,2.9905,3.0055,3.0131,3.0131,3.0131,3.0131,3.0131,3.0131,0.0,0.0,2.9654,0.0,2.9729,0.0,0.0,0.0,0.0,0.0,0.0,3.8015,3.9346,3.9998,4.1229,4.1831,4.1806,0.0,4.0174,0.0,0.0,0.0,0.0,0.0,0.0,0.0,0.0,0.0,0.0,0.0,0.0,0.0,0.0,0.0,3.5554,0.0,0.0,0.0,0.0,0.0,0.0,0.0,3.6458,0.0,0.0,0.0,3.9069,4.2032,0.0,0.0,4.0245,4.0123,4.0498,4.1422,4.115,4.0886,4.0877,4.1424,4.0843,3.8716,3.7997,3.7348,3.6809,3.6048,3.5664,3.5664,3.5664,3.5508,3.5254,3.5254,3.5254,3.5273,3.631,3.6296,3.5799,3.7473,3.7945,3.7496,3.8739,4.1342,4.4718,4.6012,4.7112,4.8264,0.0,0.0,0.0,0.0,2.9402,2.9854,3.0005,3.1712,0.0,0.0,0.0,0.0,3.5203,3.5027,0.0,0.0,0.0,3.2742,0.0,0.0,3.0357,0.0,0.0,0.0,0.0,0.0,3.0156,3.0005,2.9854,2.988,3.0005,3.0005,0.0,0.0,0.0,3.0457,3.0206,0.0,0.0,3.352,3.5454,3.6408,3.686,3.8567,3.9772,4.0576,4.0978,4.1204,4.1128,3.9772,3.9848,0.0,3.8894,0.0,0.0,0.0,0.0,0.0,3.8241,0.0,0.0,0.0,0.0,0.0,0.0,0.0,0.0,0.0,0.0,0.0,0.0,0.0,0.0,0.0,0.0,3.5127,0.0,3.5077,0.0,0.0,0.0,0.0,0.0,3.712,3.7619,3.8599,3.8048,3.7856,3.832,3.8966,3.8372,3.6308,3.6325,3.6051,3.5391,3.5273,3.5273,3.5391,3.5273,3.5019,3.4707,3.4707,3.4766,3.4902,3.5117,3.5332,3.5586,3.5762,3.5918,3.6055,3.6367,3.8534,4.1782,4.3936,4.5192,4.6257,2.9628,2.9277,0.0,0.0,0.0,0.0,3.0507,0.0,0.0,0.0,0.0,0.0,0.0,0.0,0.0,0.0,0.0,3.4625,3.4625,0.0,3.1185,0.0,0.0,0.0,0.0,0.0,0.0,3.0583,3.0055,3.0055,3.0583,3.0583,0.0,0.0,0.0,3.2968,3.3043,3.4726,3.5755,3.6332,3.7462,3.8592,3.9446,0.0,3.9094,4.0526,4.0526,0.0,0.0,4.0651,4.0475,0.0,0.0,0.0,0.0,0.0,0.0,0.0,0.0,0.0,0.0,3.8417,0.0,0.0,0.0,0.0,3.5301,0.0,0.0,0.0,0.0,0.0,0.0,0.0,0.0,0.0,0.0,0.0,0.0,0.0,0.0,0.0,0.0,3.4544,3.3982,3.417,3.374,3.3271,3.2649,3.3578,3.401,3.3544,3.3995,3.4642,3.5391,3.4941,3.4941,3.5391,3.4941,3.4707,3.4707,3.4707,3.4941,3.5351,3.4902,3.5215,3.5976,3.5566,3.5664,3.6016,3.6035,3.6446,3.7213,3.9924,4.2015,4.3849,0.0,0.0,0.0,0.0,0.0,0.0,0.0,3.1537,0.0,0.0,0.0,0.0,0.0,0.0,4.03,0.0,0.0,3.7688,3.6935,3.5002,0.0,0.0,0.0,3.234,0.0,0.0,0.0,0.0,0.0,0.0,3.1135,0.0,0.0,0.0,0.0,3.2516,0.0,0.0,0.0,0.0,0.0,3.9471,4.0651,0.0,0.0,3.9973,3.9973,4.0099,0.0,4.0023,3.9973,3.9948,3.9747,3.9572,3.9421,3.9421,3.9421,0.0,0.0,0.0,4.0651,3.8994,0.0,0.0,0.0,0.0,0.0,0.0,0.0,0.0,0.0,0.0,0.0,0.0,0.0,0.0,0.0,0.0,0.0,0.0,0.0,0.0,0.0,0.0,3.2881,3.3208,3.2491,3.2307,3.2678,3.3061,3.3135,3.2559,3.3008,3.3633,3.4512,3.4355,3.4355,3.4512,3.4355,3.4141,3.3848,3.3848,3.3945,3.4121,3.4512,3.4863,3.5176,3.5625,3.5898,3.6016,3.6016,3.6113,3.6602,3.9351,4.0817,4.1943,2.9804,0.0,0.0,0.0,0.0,0.0,0.0,0.0,0.0,0.0,3.8894,0.0,4.3037,0.0,4.2886,0.0,4.1982,4.0249,3.814,3.7236,0.0,3.45,3.4299,0.0,0.0,0.0,0.0,0.0,0.0,3.1687,3.1687,0.0,0.0,0.0,0.0,3.3119,3.3269,0.0,3.6609,0.0,0.0,3.9798,0.0,0.0,3.9948,4.0224,0.0,3.9697,3.9697,3.9697,3.9697,3.9697,3.9697,3.9572,3.9396,3.9396,3.9396,3.9471,3.9848,4.0475,0.0,3.9471,3.8926,0.0,3.6184,0.0,0.0,0.0,0.0,0.0,0.0,0.0,0.0,0.0,0.0,0.0,0.0,2.8019,0.0,0.0,0.0,0.0,0.0,0.0,3.0348,3.0331,2.9785,2.9714,0.0,3.1179,3.164,3.168,3.2422,3.3203,3.4062,3.3926,3.3926,3.4082,3.3906,3.3691,3.3418,3.3418,3.3496,3.3691,3.4238,3.4648,3.498,3.5566,3.5879,3.6016,3.6016,3.6113,3.6465,3.8381,3.9827,4.1088,0.0,0.0,0.0,0.0,3.0256,0.0,0.0,0.0,3.696,0.0,4.0902,4.2735,4.3915,4.4016,4.3991,4.3991,4.394,0.0,3.8567,3.9772,0.0,0.0,3.573,3.5504,3.3294,0.0,0.0,0.0,0.0,0.0,3.229,0.0,0.0,0.0,3.4223,0.0,3.4851,3.7613,3.8492,3.814,3.9245,3.9722,3.9772,3.9722,4.0375,4.1204,4.0099,3.9697,3.9697,3.9672,3.9672,3.9697,3.9672,3.932,3.8919,3.8919,3.8919,3.8919,3.8944,3.9722,4.0375,3.9823,0.0,0.0,0.0,0.0,3.5019,0.0,0.0,0.0,0.0,0.0,0.0,0.0,0.0,0.0,0.0,0.0,0.0,0.0,0.0,0.0,0.0,2.727,2.6663,2.582,2.5761,2.5977,0.0,2.7969,2.9492,3.082,3.209,3.3184,3.4023,3.3633,3.3633,3.4043,3.3613,3.3418,3.3418,3.3418,3.3652,3.4043,3.4082,3.459,3.5371,3.541,3.5664,3.6016,3.6016,3.6289,3.6719,3.7168,3.895,4.0921,2.9804,3.0131,3.0407,0.0,3.0181,3.0658,0.0,0.0,0.0,0.0,4.2635,4.4895,4.723,4.7104,4.6853,4.6853,4.6125,0.0,0.0,0.0,0.0,3.9521,3.9044,3.7814,3.5604,3.5278,0.0,3.3244,0.0,0.0,3.3445,0.0,0.0,0.0,0.0,0.0,3.4274,3.6609,3.8015,3.8718,3.9421,4.0199,0.0,0.0,4.0375,4.1204,4.0099,3.9697,3.9622,3.922,3.9346,3.9622,3.922,3.927,3.9471,3.9471,3.9471,3.9572,3.9973,4.03,4.0375,3.9823,3.9019,3.804,0.0,0.0,0.0,0.0,0.0,0.0,0.0,0.0,0.0,0.0,0.0,0.0,0.0,0.0,0.0,0.0,0.0,0.0,2.6152,2.6577,2.6619,2.6135,2.6023,0.0,0.0,0.0,2.9043,3.0332,3.1641,3.2734,3.3574,3.3476,3.3476,3.3594,3.3476,3.3418,3.3418,3.3418,3.3476,3.3633,3.4258,3.4668,3.4922,3.5586,3.5918,3.6016,3.6016,3.6289,3.6758,3.75,3.8373,3.9261,3.0105,0.0,0.0,3.1311,0.0,0.0,3.4299,0.0,0.0,4.1254,4.384,0.0,4.7531,4.8058,4.8184,4.7933,4.7154,0.0,0.0,0.0,0.0,4.1404,4.0752,3.9371,3.7161,3.6081,0.0,3.3897,0.0,0.0,3.352,3.2968,0.0,0.0,0.0,3.4675,3.4776,3.6985,3.8417,3.927,3.9572,0.0,0.0,3.9672,3.9722,4.0149,3.927,3.927,3.9622,3.9069,3.9069,3.932,3.9245,3.927,3.9371,3.9622,3.9697,3.9772,4.0074,4.0325,4.045,4.0124,3.9674,3.8998,3.7922,3.6943,3.6241,0.0,0.0,0.0,0.0,0.0,0.0,0.0,0.0,0.0,0.0,0.0,0.0,0.0,0.0,0.0,2.4883,2.5185,2.53,2.4921,2.5361,0.0,0.0,0.0,2.8613,2.9336,3.1367,3.2676,3.3144,3.3711,3.3789,3.3418,3.3418,3.3418,3.3418,3.3418,3.3535,3.375,3.4414,3.4824,3.5059,3.5742,3.6016,3.6035,3.623,3.6445,3.6758,3.7402,3.7812,3.8008,0.0,0.0,0.0,0.0,0.0,0.0,0.0,3.804,0.0,4.2359,0.0,4.6728,4.6728,4.8008,4.8611,4.7958,0.0,4.6351,4.4267,4.5045,4.4443,4.1882,4.1706,4.0626,3.8391,3.6634,0.0,0.0,0.0,0.0,3.3169,3.2591,0.0,0.0,0.0,0.0,0.0,3.7688,3.8868,3.9371,3.9521,3.9597,3.9546,3.9044,3.8818,3.8668,3.8115,3.8567,3.9396,3.8843,3.8693,3.8818,3.9245,3.9145,3.8969,3.9446,3.9647,3.9697,3.9697,4.0049,4.04,4.04,4.0777,4.0877,3.9923,3.8816,3.7781,3.7124,3.5538,3.4624,0.0,0.0,0.0,0.0,0.0,0.0,0.0,0.0,0.0,0.0,0.0,0.0,2.4023,2.3848,2.3613,2.3184,0.0,0.0,0.0,0.0,2.8066,2.8281,3.1055,3.2656,3.2871,3.3984,3.418,3.3496,3.3457,3.3418,3.3418,3.3418,3.3652,3.4101,3.4453,3.4922,3.543,3.5781,3.5937,3.5976,3.6348,3.6504,3.6562,3.6973,3.7129,3.7148,0.0,0.0,0.0,0.0,0.0,3.8241,4.0174,4.1781,4.3463,4.5347,4.7581,4.9012,4.9012,4.9264,4.9038,4.8008,4.7832,0.0,0.0,0.0,0.0,4.4116,4.3614,4.2333,4.0124,3.799,3.6584,0.0,0.0,0.0,0.0,0.0,0.0,0.0,0.0,0.0,3.5604,3.6433,0.0,3.7713,3.8642,3.9019,3.8994,3.8919,3.8567,3.809,3.7538,3.7739,3.8216,3.7663,3.7789,3.809,3.7739,3.8191,3.8894,3.8994,3.9346,3.9697,3.9697,3.9772,3.9848,3.9848,3.9898,3.9923,3.9747,3.9465,3.9212,3.8664,3.7865,3.7245,3.6997,0.0,0.0,0.0,0.0,0.0,0.0,0.0,0.0,0.0,0.0,0.0,0.0,0.0,0.0,0.0,0.0,0.0,0.0,0.0,2.6836,0.0,3.0195,0.0,0.0,0.0,3.375,3.3945,3.3594,3.3418,3.3418,3.3418,3.3652,3.4082,3.416,3.4648,3.541,3.5469,3.5508,3.5508,3.5586,3.5625,3.5664,3.6094,3.625,3.6465,0.0,0.0,0.0,0.0,0.0,0.0,0.0,4.4945,0.0,4.5924,4.7054,4.7883,4.7883,4.8661,4.8837,4.7983,4.7657,4.7179,4.6351,4.605,4.5497,4.4669,4.3815,0.0,4.0978,3.8467,3.691,3.6358,0.0,0.0,0.0,0.0,0.0,3.3119,0.0,3.5353,0.0,0.0,0.0,3.7688,3.8517,3.8868,3.8818,3.8216,3.7814,3.7513,3.696,3.6935,3.7161,3.7186,3.7362,3.7588,3.7613,3.799,3.8492,3.8793,3.927,3.9697,3.9697,3.9697,3.9697,3.9697,3.9697,3.9697,3.9697,3.9471,3.9195,3.8919,3.8191,3.7337,3.6483,3.4848,0.0,0.0,0.0,0.0,0.0,0.0,0.0,0.0,0.0,0.0,0.0,0.0,0.0,0.0,0.0,0.0,0.0,0.0,2.6562,0.0,0.0,0.0,3.2754,0.0,3.3965,3.373,3.3516,3.3418,3.3418,3.3418,3.3769,3.4394,3.4394,3.4785,3.5391,3.5391,3.5391,3.541,3.5625,3.5723,3.5742,3.5937,3.6016,3.621,0.0,3.5052,0.0,0.0,4.0224,0.0,4.4543,4.7154,4.8309,4.6577,4.6627,4.6828,4.6828,4.7883,4.836,4.7782,4.7355,4.6853,4.6175,4.5849,4.5296,4.4493,4.374,4.271,4.1354,3.8969,3.7211,0.0,0.0,0.0,0.0,0.0,0.0,0.0,0.0,0.0,0.0,0.0,3.7663,3.7739,3.8417,3.8617,3.8417,3.7513,3.7111,3.696,3.6508,3.6358,3.6433,3.686,3.701,3.7086,3.7513,3.7814,3.809,3.8542,3.917,3.9697,3.9697,3.9697,3.9697,3.9697,3.9697,3.9697,3.9697,3.9346,3.8969,3.8743,3.7789,3.6709,3.573,3.4019,0.0,0.0,0.0,0.0,0.0,0.0,0.0,0.0,0.0,0.0,0.0,0.0,0.0,0.0,0.0,0.0,2.3184,0.0,0.0,0.0,0.0,3.1543,3.2168,0.0,3.4141,3.3555,3.3457,3.3418,3.3418,3.3418,3.3848,3.457,3.4473,3.4746,3.5234,3.5234,3.5312,3.543,3.5762,3.5879,3.5898,3.5996,3.6016,3.6035,0.0,0.0,0.0,0.0,0.0,0.0,4.5372,4.7757,4.9439,4.9238,4.8812,4.8535,4.8535,4.8209,4.7782,4.7255,4.7154,4.6702,4.5623,4.5974,4.5522,4.394,4.4267,4.3489,4.1379,4.0099,3.8191,0.0,0.0,0.0,0.0,0.0,0.0,0.0,0.0,0.0,0.0,3.5881,3.6558,3.6659,3.7663,3.7789,3.7337,3.7236,3.6885,3.6433,3.6383,3.6358,3.6358,3.6408,3.6433,3.6433,3.6508,3.7211,3.8015,3.8065,3.8843,3.9697,3.9697,3.9697,3.9697,3.9697,3.9697,3.9697,3.9697,3.9647,3.932,3.8291,3.7211,3.6257,3.5655,3.4311,3.3244,0.0,0.0,0.0,0.0,0.0,0.0,0.0,0.0,0.0,0.0,2.4375,0.0,0.0,2.3223,0.0,0.0,0.0,0.0,2.6426,2.8965,3.0918,3.2148,3.3086,3.3691,3.4004,3.3613,3.3418,3.3418,3.3418,3.3691,3.4101,3.3711,3.4004,3.4766,3.4766,3.5019,3.5391,3.543,3.5449,3.5488,3.5879,3.6016,3.6074,0.0,0.0,0.0,0.0,0.0,0.0,0.0,4.846,4.9464,4.9138,4.9188,4.9138,4.8812,4.8259,4.7707,4.7179,4.6828,4.6451,4.6024,4.5874,4.5372,4.4342,4.4192,4.3237,4.1379,4.0576,3.8843,0.0,0.0,0.0,0.0,0.0,0.0,0.0,0.0,3.4349,3.5429,3.6107,3.6584,3.691,3.7337,3.7387,3.7136,3.681,3.6558,3.6358,3.6358,3.6358,3.6358,3.6358,3.6358,3.6358,3.6358,3.7111,3.8015,3.8015,3.8818,3.9697,3.9697,3.9697,3.9697,3.9697,3.9446,3.9195,3.9195,3.8944,3.8467,3.7663,3.6885,3.6383,3.6508,3.4437,3.2666,0.0,0.0,0.0,0.0,0.0,0.0,0.0,0.0,0.0,0.0,0.0,0.0,0.0,0.0,0.0,0.0,0.0,0.0,2.6719,0.0,3.0703,3.1758,3.3125,3.3906,3.4082,3.3887,3.3809,3.3809,3.3535,3.3652,3.4082,3.416,3.4394,3.4726,3.5,3.5234,3.541,3.5664,3.5762,3.5801,3.5957,3.6016,3.6035,4.0249,0.0,4.143,0.0,4.502,4.6125,4.7682,4.8736,4.9264,4.9038,4.9063,4.8887,4.836,4.7782,4.728,4.6928,4.6527,4.625,4.6075,4.5698,4.5146,4.4418,4.4016,0.0,4.1379,4.0953,3.9396,3.6634,3.6609,0.0,0.0,0.0,0.0,0.0,3.4248,3.4826,3.6132,3.6458,3.6734,3.696,3.7111,3.7086,3.6885,3.6508,3.6358,3.6358,3.6358,3.6358,3.6358,3.6358,3.6358,3.6358,3.6358,3.7111,3.8015,3.8015,3.8693,3.9496,3.9647,3.9572,3.9496,3.9647,3.9396,3.9069,3.8919,3.8693,3.8341,3.7789,3.7111,3.6614,3.6601,3.4596,3.2755,3.2331,0.0,0.0,0.0,0.0,0.0,0.0,2.5048,2.4376,2.4888,0.0,0.0,0.0,0.0,0.0,0.0,0.0,0.0,0.0,0.0,0.0,3.1699,3.3281,3.4082,3.4082,3.4082,3.4082,3.4062,3.375,3.3789,3.4101,3.4512,3.4766,3.4922,3.5254,3.5469,3.5605,3.5898,3.6016,3.6016,3.6016,3.6016,3.6035,4.1806,4.2559,4.3463,4.5171,4.6803,4.7883,4.7908,4.841,4.8987,4.9515,4.8611,4.7732,4.7205,4.6652,4.6326,4.6326,4.6301,4.6075,4.5522,4.5497,4.4995,0.0,0.0,4.3037,4.1379,4.1329,3.9973,3.7186,0.0,0.0,3.3897,0.0,3.4726,3.4776,3.583,3.6031,3.5629,3.6709,3.686,3.6408,3.696,3.686,3.6358,3.6358,3.6358,3.6358,3.6358,3.6358,3.6358,3.6358,3.6358,3.6358,3.6358,3.7111,3.8015,3.8015,3.8417,3.8994,3.9546,3.9295,3.9019,3.9546,3.9697,3.9546,3.8994,3.9295,3.9521,3.8969,3.7965,3.6748,3.5421,3.4718,3.3871,3.2532,0.0,0.0,0.0,0.0,0.0,0.0,2.5772,2.5172,2.5409,0.0,0.0,0.0,0.0,0.0,0.0,0.0,0.0,2.7637,2.9746,0.0,3.2148,3.3437,3.4082,3.4082,3.4082,3.4082,3.4082,3.4062,3.4062,3.4101,3.4512,3.4961,3.5391,3.5391,3.5644,3.6016,3.6016,3.6016,3.6016,3.6016,3.6016,3.6074,4.3087,4.4041,4.497,4.5899,4.6778,4.738,4.738,4.7832,4.8134,4.7933,4.7606,4.7179,4.6627,4.6753,4.6577,0.0,4.61,4.5899,0.0,4.5271,4.497,4.384,4.379,4.3037,4.1379,4.1329,4.0149,3.7739,0.0,0.0,0.0,3.5554,3.568,3.6383,3.6383,3.6684,3.7211,3.7186,3.7287,3.7462,3.7262,3.7086,3.6935,3.6935,3.6684,3.6358,3.6358,3.6358,3.6358,3.6358,3.6358,3.6358,3.6358,3.7111,3.7939,3.7563,3.8115,3.8919,3.9094,3.8718,3.8517,3.9446,3.912,3.8592,3.8818,3.8693,3.8617,3.8818,3.7965,3.6773,3.5421,3.4718,3.397,3.2532,3.0846,0.0,0.0,0.0,0.0,0.0,2.5349,2.4973,0.0,2.5237,0.0,0.0,0.0,0.0,0.0,0.0,0.0,0.0,3.0195,0.0,3.2598,3.3574,3.4219,3.4492,3.4492,3.4492,3.4492,3.4492,3.4492,3.4531,3.498,3.5254,3.541,3.5703,3.5898,3.6016,3.6016,3.6016,3.6016,3.6016,3.6016,3.6035,4.3966,4.4669,4.5397,4.6175,4.6753,4.7129,4.7129,4.7405,4.7581,4.7431,4.7079,4.6778,4.6627,4.6753,0.0,4.5573,4.5999,4.5824,4.4694,4.497,4.4744,4.384,4.3413,4.261,4.1354,4.1128,0.0,3.8642,3.8592,3.8191,3.7462,3.6584,3.6759,3.7789,3.7462,3.7563,3.799,3.7638,3.7563,3.7638,3.7086,3.701,3.7161,3.696,3.6659,3.6358,3.6358,3.6483,3.6634,3.6433,3.6508,3.6634,3.6433,3.6985,3.7638,3.7287,3.7688,3.8291,3.8492,3.814,3.7965,3.9094,3.8843,3.8492,3.9044,3.8743,3.8492,3.9069,3.8291,3.7071,3.5709,3.5355,3.4606,3.2978,3.1207,2.9721,2.8964,0.0,0.0,0.0,0.0,0.0,0.0,2.5968,2.5957,0.0,0.0,0.0,0.0,0.0,0.0,2.8984,3.0957,3.2324,3.3027,3.4062,3.4609,3.4707,3.4883,3.4863,3.4707,3.4883,3.4961,3.498,3.543,3.5625,3.5644,3.5918,3.6016,3.6016,3.6016,3.6016,3.6016,3.6016,3.6016,3.6016,4.4468,4.4719,4.507,0.0,4.6728,0.0,4.7079,4.7079,4.7255,4.7732,4.6928,4.6502,4.7029,4.6627,4.6075,4.5472,0.0,0.0,0.0,4.4568,4.4292,4.3714,4.271,4.1882,4.1304,4.0777,4.0249,3.9697,3.8592,3.809,3.8115,3.7563,3.7889,3.8919,3.8919,3.8617,3.8065,3.8065,3.7764,3.7262,3.6709,3.6784,3.7186,3.6634,3.6383,3.6358,3.6358,3.6709,3.7111,3.6584,3.6784,3.7161,3.6634,3.6835,3.7236,3.7161,3.7161,3.7287,3.7814,3.7588,3.7462,3.8592,3.8894,3.9069,3.9572,3.9295,3.9069,3.9546,3.8793,3.7618,3.6165,3.6186,3.5804,3.3815,3.1785,3.0305,2.9579,0.0,0.0,0.0,0.0,0.0,0.0,2.6641,2.7109,0.0,0.0,0.0,0.0,0.0,2.9004,3.0156,3.1894,3.3027,3.3496,3.4707,3.5117,3.4746,3.5176,3.5176,3.4805,3.5234,3.543,3.5449,3.5859,3.6016,3.6016,3.6016,3.6016,3.6016,3.6016,3.6016,3.6016,3.6016,3.6016,3.6016,0.0,0.0,4.5999,4.625,4.6426,4.6502,4.6502,4.6502,4.6552,4.6677,4.6476,4.6351,4.6502,4.6401,4.5899,4.492,4.5347,4.5196,4.4066,4.3991,4.3564,4.2585,4.2308,4.1706,4.0727,4.0576,4.0249,3.9697,3.8994,3.8894,3.9295,3.8718,3.8843,3.9496,3.9496,3.9195,3.8668,3.8668,3.8592,3.8417,3.7839,3.7688,3.7739,3.7186,3.6734,3.6358,3.6358,3.6709,3.7161,3.7036,3.7362,3.7789,3.7663,3.7713,3.7638,3.681,3.686,3.7211,3.7337,3.7287,3.7462,3.8592,3.9195,3.9521,3.9672,3.9597,3.9421,3.912,3.8843,3.7966,3.5757,3.6235,3.6127,3.3385,3.2251,3.0924,2.8743,2.6772,0.0,0.0,2.5371,2.584,2.6484,2.6641,2.6836,0.0,0.0,0.0,2.8437,2.9609,3.0254,3.0195,3.1894,3.3301,3.4394,3.4394,3.4668,3.5234,3.5351,3.5508,3.5703,3.582,3.5879,3.5879,3.5976,3.6016,3.6016,3.6016,3.6016,3.6016,3.6016,3.6016,3.6016,3.6016,3.6016,3.6016,4.5372,4.5723,4.6024,4.6276,4.6301,4.6301,4.6301,4.6301,4.6301,4.6301,4.6301,4.6301,4.6301,4.6301,4.6075,4.5447,4.5447,4.4895,4.3514,4.3664,4.3313,4.2208,4.1907,4.1379,4.0526,4.0275,3.9998,3.9697,3.9396,3.9396,3.9697,3.9396,3.9396,3.9697,3.9697,3.9396,3.8868,3.8868,3.8868,3.8818,3.8241,3.8165,3.8316,3.7487,3.6985,3.6734,3.6734,3.7086,3.7563,3.7563,3.7939,3.8341,3.809,3.8015,3.7889,3.7287,3.7337,3.7563,3.7563,3.7563,3.7764,3.8642,3.927,3.9697,3.9697,3.9697,3.9622,3.932,3.9044,3.8391,3.6775,3.6651,3.6093,3.3643,3.2178,3.0579,2.8042,2.6562,0.0,2.5369,2.5937,2.666,2.7519,2.793,2.8086,2.7969,2.8476,0.0,2.8906,3.0547,3.1269,3.082,3.2656,3.3906,3.4414,3.459,3.5019,3.5684,3.5684,3.5801,3.6016,3.6016,3.6016,3.6016,3.6016,3.6016,3.6016,3.6016,3.6016,3.5996,3.5801,3.5859,3.5996,3.5801,3.5859,3.6016,4.5372,4.5547,4.5748,4.6225,4.6301,4.6301,4.6301,4.6301,4.6301,4.6301,4.6301,4.6301,4.6301,4.6301,4.625,4.6075,4.5623,4.4744,4.3313,4.3438,4.3087,4.2082,4.1505,4.0953,4.04,3.9923,3.9697,3.9697,3.9697,3.9697,3.9697,3.9697,3.9697,3.9697,3.9697,3.9421,3.8994,3.8994,3.8994,3.8944,3.8366,3.8442,3.8743,3.7713,3.7312,3.7312,3.7312,3.7663,3.814,3.814,3.8517,3.8919,3.8417,3.8266,3.8266,3.8266,3.8266,3.8216,3.804,3.8065,3.8266,3.8843,3.9346,3.9697,3.9697,3.9697,3.9697,3.9697,3.932,3.8818,3.8241,3.7262,3.5981,3.4299,3.219,3.0019,2.7702,0.0,2.5875,2.5859,2.668,2.7539,2.8398,2.9414,2.9609,2.8652,2.9883,3.0293,2.9355,3.1133,3.2051,3.1816,3.3633,3.4492,3.4277,3.5078,3.5664,3.6016,3.6016,3.6016,3.6016,3.6016,3.6016,3.6016,3.6016,3.6016,3.6016,3.5957,3.5918,3.5879,3.5449,3.5508,3.5781,3.543,3.5508,3.582,4.5372,4.5874,4.62,4.6301,4.6301,4.6301,4.6301,4.6301,4.6301,4.6301,4.6301,4.6301,4.6301,4.6301,4.5924,4.497,4.4819,4.4644,4.4392,4.3137,4.2133,4.1505,4.0953,4.0375,3.9848,3.9747,3.9697,3.9697,3.9697,3.9697,3.9697,3.9697,3.9697,3.9697,3.9697,3.9647,3.9572,3.9572,3.9572,3.9521,3.8969,3.8793,3.8793,3.814,3.7889,3.7889,3.7889,3.8241,3.8743,3.8743,3.9094,3.9546,3.9471,3.9446,3.9446,3.9446,3.9446,3.922,3.8266,3.8366,3.8868,3.9421,3.9622,3.9697,3.9697,3.9697,3.9697,3.9697,3.9622,3.9396,3.8843,3.7814,3.6533,3.4851,3.3071,3.1016,2.8241,0.0,2.7622,2.6842,2.7578,2.8437,2.9297,2.9219,2.9336,2.9863,2.9824,3.0156,3.1074,3.1777,3.2461,3.3105,3.3809,3.4492,3.5176,3.5684,3.5957,3.6016,3.6016,3.6016,3.6016,3.6016,3.6016,3.6016,3.6016,3.6016,3.5996,3.5644,3.5488,3.5449,3.498,3.4844,3.4902,3.4824,3.4844,3.4961,4.5824,4.6125,4.6301,4.6301,4.6301,4.6301,4.6301,4.6301,4.6301,4.6301,4.6301,4.6301,4.6301,4.6301,4.5974,4.5171,4.4794,4.4493,4.4192,4.3187,4.2233,4.1379,4.1103,4.0551,3.9722,3.9697,3.9697,3.9697,3.9697,3.9697,3.9697,3.9697,3.9697,3.9697,3.9697,3.9697,3.9697,3.9697,3.9697,3.9672,3.9421,3.932,3.9245,3.8693,3.8467,3.8467,3.8467,3.8642,3.8919,3.922,3.9471,3.9697,3.9697,3.9697,3.9697,3.9697,3.9697,3.9572,3.9069,3.912,3.9371,3.9622,3.9697,3.9697,3.9697,3.9697,3.9697,3.9697,3.9025,3.862,3.8867,3.732,3.5917,3.5687,3.339,0.0,0.0,2.8571,2.8028,2.7747,2.8457,2.9316,3.0195,3.0098,3.0234,3.0859,3.0723,3.0976,3.1816,3.2266,3.2793,3.3398,3.4316,3.5098,3.5723,3.5918,3.6016,3.6016,3.6016,3.6016,3.6016,3.6016,3.6016,3.6016,3.6016,3.5898,3.5664,3.5469,3.5234,3.5,3.4785,3.4707,3.4726,3.498,3.4922,3.4766,4.6024,4.6225,4.6301,4.6301,4.6301,4.6301,4.6301,4.6301,4.6301,4.6301,4.6301,4.6301,4.6301,4.62,4.5899,4.5347,4.4769,4.4192,4.3639,4.3087,4.2359,4.1379,4.1103,4.0551,3.9722,3.9697,3.9697,3.9697,3.9697,3.9697,3.9697,3.9697,3.9697,3.9697,3.9697,3.9697,3.9697,3.9697,3.9697,3.9697,3.9697,3.9697,3.9647,3.922,3.9069,3.9069,3.9069,3.9069,3.912,3.9546,3.9697,3.9697,3.9697,3.9697,3.9697,3.9697,3.9697,3.9697,3.9697,3.9697,3.9697,3.9697,3.9697,3.9697,3.9697,3.9465,3.9129,3.9129,3.8031,3.7358,3.8378,3.6763,3.5445,3.6443,0.0,0.0,0.0,2.9225,2.8409,2.8525,2.9258,3.0019,3.082,3.0898,3.1074,3.1484,3.1523,3.1758,3.2285,3.2715,3.3223,3.3867,3.4863,3.5586,3.6016,3.6016,3.6016,3.6016,3.6016,3.6016,3.6016,3.6016,3.6016,3.6016,3.5918,3.5742,3.5508,3.5215,3.4941,3.4687,3.459,3.4551,3.459,3.4961,3.4863,3.4629,4.5422,4.5949,4.6301,4.6301,4.6301,4.6301,4.6301,4.6301,4.6301,4.6301,4.6301,4.6301,4.6301,4.5849,4.5321,4.4744,4.4192,4.3639,4.3062,4.2534,4.1957,4.1354,4.035,3.9772,3.9697,3.9697,3.9697,3.9697,3.9697,3.9697,3.9697,3.9697,3.9697,3.9697,3.9697,3.9697,3.9697,3.9697,3.9697,3.9697,3.9697,3.9697,3.9697,3.9647,3.9647,3.9647,3.9647,3.9647,3.9647,3.9672,3.9697,3.9697,3.9697,3.9697,3.9697,3.9697,3.9697,3.9697,3.9697,3.9697,3.9697,3.9697,3.9697,3.9697,3.9697,3.8687,3.769,3.769,3.6487,3.5945,3.7299,3.6573,3.5997,3.7017,0.0,0.0,3.1532,3.0113,2.9331,2.9427,2.9883,3.0351,3.084,3.0898,3.1074,3.1484,3.1523,3.1875,3.2695,3.3144,3.3945,3.5215,3.5351,3.5586,3.6016,3.6016,3.6016,3.6016,3.6016,3.6016,3.6016,3.6016,3.6016,3.5996,3.5605,3.5644,3.5879,3.4668,3.4375,3.4668,3.4277,3.4121,3.4121,3.416,3.4141,3.418,4.5824,4.6175,4.62,4.5849,4.6075,4.62,4.5849,4.61,4.6301,4.6301,4.6024,4.5799,4.5799,4.5296,4.4719,4.4166,4.3915,4.3564,4.3011,4.2459,4.1756,4.0852,4.0099,3.9697,3.9697,3.9697,3.9697,3.9697,3.9697,3.9697,3.9697,3.9697,3.9697,3.9697,3.9697,3.9697,3.9697,3.9697,3.9697,3.9697,3.9697,3.9697,3.9697,3.9697,3.9697,3.9697,3.9697,3.9697,3.9697,3.9697,3.9697,3.9697,3.9697,3.9697,3.9697,3.9697,3.9697,3.9697,3.9697,3.9697,3.9697,3.9697,3.9697,3.9697,3.9697,3.8582,3.7477,3.7477,3.6379,3.5727,3.724,3.6882,3.6534,3.7297,0.0,3.2836,3.2165,3.057,2.9749,3.0388,3.0762,3.1191,3.1641,3.168,3.1855,3.2285,3.2305,3.2676,3.3535,3.4258,3.4883,3.5371,3.5644,3.5859,3.6016,3.6016,3.6016,3.6016,3.6016,3.6016,3.6016,3.6016,3.6016,3.5996,3.5566,3.5312,3.5137,3.4394,3.416,3.4297,3.4141,3.4238,3.4492,3.4785,3.4707,3.4473,4.61,4.6175,4.5999,4.5773,4.5773,4.5723,4.5522,4.5648,4.5773,4.5773,4.5447,4.5221,4.5221,4.4719,4.4217,4.384,4.3639,4.3388,4.3011,4.2308,4.148,4.0551,3.9998,3.9697,3.9697,3.9697,3.9697,3.9697,3.9697,3.9697,3.9697,3.9697,3.9697,3.9697,3.9697,3.9697,3.9697,3.9697,3.9697,3.9697,3.9697,3.9697,3.9697,3.9697,3.9697,3.9697,3.9697,3.9697,3.9697,3.9697,3.9697,3.9697,3.9697,3.9697,3.9697,3.9697,3.9697,3.9697,3.9697,3.9697,3.9697,3.9697,3.9697,3.9697,3.9697,3.8243,3.6811,3.6811,3.5288,3.4515,3.6487,3.653,3.645,3.7191,3.5271,3.3409,3.2691,3.1135,3.0312,3.1191,3.1543,3.1836,3.2148,3.2168,3.2344,3.2754,3.2793,3.3223,3.4219,3.498,3.5449,3.5586,3.5879,3.6016,3.6016,3.6016,3.6016,3.6016,3.6016,3.6016,3.6016,3.6016,3.6016,3.5996,3.5566,3.5293,3.5078,3.4512,3.4277,3.4277,3.4434,3.457,3.4766,3.5215,3.4776,3.4089,4.6075,4.5849,4.5648,4.62,4.5372,4.4819,4.5397,4.4995,4.4618,4.4618,4.4618,4.4618,4.4618,4.4116,4.379,4.379,4.3288,4.2961,4.2961,4.1932,4.1078,4.0526,3.9973,3.9697,3.9697,3.9697,3.9697,3.9697,3.9697,3.9697,3.9697,3.9697,3.9697,3.9697,3.9697,3.9697,3.9697,3.9697,3.9697,3.9697,3.9697,3.9697,3.9697,3.9697,3.9697,3.9697,3.9697,3.9697,3.9697,3.9697,3.9697,3.9697,3.9697,3.9697,3.9697,3.9697,3.9697,3.9697,3.9697,3.9697,3.9697,3.9697,3.9697,3.9697,3.9697,3.737,3.5288,3.5288,3.2985,3.1883,3.4736,3.5288,3.5568,3.6554,3.5511,3.4185,3.2993,3.1767,3.1211,3.207,3.2168,3.2168,3.2187,3.2187,3.2344,3.2773,3.2812,3.3359,3.4629,3.5137,3.5586,3.6016,3.6016,3.6016,3.6016,3.6016,3.6016,3.6016,3.6016,3.6016,3.6016,3.6016,3.6016,3.5996,3.5566,3.5625,3.5937,3.5059,3.4707,3.4746,3.5215,3.5117,3.4766,3.5234,3.4124,3.2711,4.4995,4.4995,4.4819,4.4593,4.4593,4.4543,4.4342,4.4493,4.4618,4.4618,4.4292,4.389,4.3514,4.3313,4.3062,4.2685,4.2484,4.2082,4.1304,4.0953,4.0526,3.9973,3.9798,3.9697,3.9697,3.9697,3.9697,3.9697,3.9697,3.9697,3.9697,3.9697,3.9697,3.9697,3.9697,3.9697,3.9697,3.9697,3.9697,3.9697,3.9697,3.9697,3.9697,3.9697,3.9697,3.9697,3.9697,3.9697,3.9697,3.9697,3.9697,3.9697,3.9697,3.9697,3.9697,3.9697,3.9697,3.9697,3.9697,3.9697,3.9697,3.9697,3.9697,3.9697,3.9697,3.8243,3.6811,3.6811,3.6162,3.5508,3.5288,3.6162,3.6202,3.4428,3.4022,3.3507,3.2073,3.182,3.1992,3.2539,3.2598,3.2734,3.3008,3.3047,3.3105,3.3223,3.3789,3.4297,3.4668,3.541,3.5898,3.6016,3.6016,3.6016,3.6016,3.6016,3.6016,3.6016,3.6016,3.6016,3.6016,3.6016,3.6016,3.5996,3.5566,3.5469,3.5527,3.4941,3.4883,3.5176,3.498,3.5195,3.5471,3.3891,3.3166,3.3092,4.4518,4.4443,4.4267,4.4141,4.4041,4.394,4.3815,4.389,4.3966,4.3966,4.3689,4.3338,4.3011,4.2986,4.276,4.2208,4.1957,4.1455,4.0576,4.0526,4.0275,3.9722,3.9697,3.9697,3.9697,3.9697,3.9697,3.9697,3.9697,3.9697,3.9697,3.9697,3.9697,3.9697,3.9697,3.9697,3.9697,3.9697,3.9697,3.9697,3.9697,3.9697,3.9697,3.9697,3.9697,3.9697,3.9697,3.9697,3.9697,3.9697,3.9697,3.9697,3.9697,3.9697,3.9697,3.9697,3.9697,3.9747,3.9948,3.9848,3.9798,4.0249,4.0023,3.9697,3.9697,3.8729,3.7715,3.7501,3.719,3.6898,3.657,3.6626,3.6168,3.4793,3.4031,3.3314,3.2194,3.2246,3.2578,3.2988,3.3047,3.3144,3.3398,3.3418,3.3496,3.3672,3.4316,3.4785,3.4961,3.5644,3.6016,3.6016,3.6016,3.6016,3.6016,3.6016,3.6016,3.6016,3.6016,3.6016,3.6016,3.6016,3.6016,3.6016,3.5742,3.5644,3.5625,3.5332,3.5293,3.5391,3.5273,3.5449,3.5626,3.4388,3.3523,3.3273,4.4367,4.4066,4.389,4.4392,4.3639,4.3137,4.3589,4.3263,4.2961,4.2911,4.2911,4.2886,4.2836,4.2836,4.261,4.2057,4.1555,4.1028,4.0475,4.045,4.0224,3.9722,3.9697,3.9697,3.9697,3.9697,3.9697,3.9697,3.9697,3.9697,3.9697,3.9697,3.9697,3.9697,3.9697,3.9697,3.9697,3.9697,3.9697,3.9697,3.9697,3.9697,3.9697,3.9697,3.9697,3.9697,3.9697,3.9697,3.9697,3.9697,3.9697,3.9697,3.9697,3.9697,3.9697,3.9697,3.9697,3.9798,4.03,4.0074,3.9923,4.0953,4.0475,3.9772,3.9823,3.9202,3.8407,3.7929,3.7107,3.6989,3.82,3.6709,3.5714,3.6359,3.4919,3.3484,3.2922,3.2832,3.2988,3.3379,3.3418,3.3418,3.3418,3.3457,3.3652,3.4043,3.4492,3.4941,3.5371,3.5801,3.6016,3.6016,3.6016,3.6016,3.6016,3.6016,3.6016,3.6016,3.6016,3.6016,3.6016,3.6016,3.6016,3.6016,3.6016,3.6016,3.6016,3.6016,3.5801,3.5488,3.5879,3.5781,3.5488,3.5743,3.4571,3.3393,4.3313,4.3237,4.3187,4.3313,4.3137,4.2861,4.2559,4.2785,4.2811,4.2384,4.2333,4.2158,4.1731,4.1706,4.148,4.0927,4.0752,4.045,3.9898,3.9873,3.9823,3.9697,3.9697,3.9697,3.9697,3.9697,3.9697,3.9697,3.9697,3.9697,3.9697,3.9697,3.9697,3.9697,3.9697,3.9697,3.9697,3.9697,3.9697,3.9697,3.9697,3.9697,3.9697,3.9697,3.9697,3.9697,3.9697,3.9697,3.9697,3.9697,3.9697,3.9697,3.9697,3.9697,3.9697,3.9697,3.9697,3.9722,3.9848,3.9798,3.9747,3.9998,4.0199,4.045,4.0877,4.0839,4.0674,4.055,4.0276,3.9892,3.9077,3.7515,3.6042,3.5082,3.3858,3.2927,3.2773,3.3086,3.332,3.3418,3.3418,3.3418,3.3418,3.373,3.3965,3.4062,3.4805,3.5293,3.5391,3.5801,3.6016,3.6016,3.6016,3.6016,3.6016,3.6016,3.6016,3.6016,3.6016,3.6016,3.6016,3.6016,3.6016,3.6016,3.6016,3.6016,3.6016,3.6016,3.5976,3.5898,3.5996,3.5957,3.5743,3.4277,3.3248,3.2611,4.2986,4.2986,4.2986,4.2986,4.2986,4.2785,4.2233,4.2409,4.2384,4.1831,4.1756,4.1656,4.1354,4.1329,4.1128,4.0576,4.0275,3.9998,3.9722,3.9697,3.9697,3.9697,3.9697,3.9697,3.9697,3.9697,3.9697,3.9697,3.9697,3.9697,3.9697,3.9697,3.9697,3.9697,3.9697,3.9697,3.9697,3.9697,3.9697,3.9697,3.9697,3.9697,3.9697,3.9697,3.9697,3.9697,3.9697,3.9697,3.9697,3.9697,3.9697,3.9697,3.9697,3.9697,3.9697,3.9697,3.9697,3.9747,4.0023,4.0099,4.0149,4.04,4.0877,4.1229,4.1003,4.1354,4.1656,4.1404,4.0963,4.0342,3.9627,3.736,3.5509,3.5128,3.3821,3.2871,3.3066,3.3281,3.3418,3.3418,3.3418,3.3496,3.3711,3.4121,3.4453,3.4687,3.5137,3.5488,3.5684,3.5898,3.6016,3.6016,3.6016,3.6016,3.6016,3.6016,3.6016,3.6016,3.6016,3.6016,3.6016,3.6016,3.6016,3.6016,3.6016,3.6016,3.6016,3.6016,3.6016,3.6016,3.6016,3.6016,3.586,3.4656,3.3891,3.3442,4.2986,4.2911,4.2861,4.2961,4.2811,4.2534,4.2082,4.2007,4.1831,4.1279,4.1204,4.1204,4.1204,4.1128,4.0877,4.0425,3.9948,3.9697,3.9697,3.9697,3.9697,3.9697,3.9697,3.9697,3.9697,3.9697,3.9697,3.9697,3.9697,3.9697,3.9697,3.9697,3.9697,3.9697,3.9697,3.9697,3.9697,3.9697,3.9697,3.9697,3.9697,3.9697,3.9697,3.9697,3.9697,3.9697,3.9697,3.9697,3.9697,3.9697,3.9697,3.9697,3.9697,3.9697,3.9697,3.9697,3.9697,3.9823,4.0375,4.0526,4.0651,4.1204,4.1756,4.1907,4.1003,4.158,4.2158,4.1706,4.0696,3.995,3.995,3.7027,3.4924,3.568,3.4184,3.3027,3.3379,3.3418,3.3418,3.3418,3.3496,3.3711,3.4141,3.457,3.498,3.5371,3.5469,3.5644,3.5996,3.6016,3.6016,3.6016,3.6016,3.6016,3.6016,3.6016,3.6016,3.6016,3.6016,3.6016,3.6016,3.6016,3.6016,3.6016,3.6016,3.6016,3.6016,3.6016,3.6016,3.6016,3.5937,3.5918,3.5859,3.5351,3.4922,3.4531,4.2986,4.2585,4.2409,4.2886,4.2183,4.153,4.1455,4.1455,4.1254,4.0701,4.0626,4.0626,4.0626,4.0199,3.9898,3.9798,3.9747,3.9697,3.9697,3.9697,3.9697,3.9697,3.9697,3.9697,3.9697,3.9697,3.9697,3.9697,3.9697,3.9697,3.9697,3.9697,3.9697,3.9697,3.9697,3.9697,3.9697,3.9697,3.9697,3.9697,3.9697,3.9697,3.9697,3.9697,3.9697,3.9697,3.9697,3.9697,3.9697,3.9697,3.9697,3.9697,3.9697,3.9697,3.9697,3.9697,3.9697,3.9823,4.0375,4.0526,4.0651,4.1204,4.1756,4.2108,4.1957,4.2409,4.2836,4.276,4.1501,4.0497,4.0497,3.7807,3.5659,3.5785,3.4447,3.3359,3.3418,3.3418,3.3418,3.3418,3.375,3.416,3.457,3.5039,3.5332,3.5391,3.5723,3.5957,3.6016,3.6016,3.6016,3.6016,3.6016,3.6016,3.6016,3.6016,3.6016,3.6016,3.6016,3.6016,3.6016,3.6016,3.6016,3.6016,3.6016,3.6016,3.6016,3.6016,3.6016,3.5996,3.5625,3.5488,3.5371,3.4551,3.4219,3.4101,4.2509,4.2308,4.2133,4.2082,4.1907,4.158,4.0978,4.1153,4.1028,4.0174,4.0049,4.0049,4.0049,3.9848,3.9697,3.9697,3.9697,3.9697,3.9697,3.9697,3.9697,3.9697,3.9697,3.9697,3.9697,3.9697,3.9697,3.9697,3.9697,3.9697,3.9697,3.9697,3.9697,3.9697,3.9697,3.9697,3.9697,3.9697,3.9697,3.9697,3.9697,3.9697,3.9697,3.9697,3.9697,3.9697,3.9697,3.9697,3.9697,3.9697,3.9697,3.9697,3.9697,3.9697,3.9697,3.9697,3.9923,4.0199,4.045,4.0953,4.143,4.1354,4.1982,4.2534,4.2233,4.2585,4.2986,4.2986,4.0961,3.9288,3.9288,3.666,3.4487,3.4487,3.3902,3.3418,3.3418,3.3633,3.3867,3.4101,3.4531,3.4883,3.5078,3.5488,3.5742,3.5742,3.5918,3.6016,3.6016,3.6016,3.6016,3.6016,3.6016,3.6016,3.6016,3.6016,3.6016,3.6016,3.6016,3.6016,3.6016,3.6016,3.6016,3.6016,3.6016,3.6016,3.6016,3.6016,3.6016,3.5976,3.5566,3.5098,3.4609,3.4219,3.3926,3.3691]}]]